[[{"header":{"parameterUnit":"m.s-1","parameterCategory":1,"la1":30.6,"la2":28.766,"lo1":-90.7593,"lo2":-88.6598,"dy":0.0162,"dx":0.0183,"nx":116,"ny":114,"refTime":"2024-06-22T00:00:00:Z","depth":0,"parameterNumber":2,"parameterNumberName":"U-component_of_WINDS"},"data":[0.0,0.0,0.0,0.0,0.0,0.0,0.0,0.0,0.0,0.0,0.0,0.0,0.0,0.0,0.0,0.0,0.0,0.0,0.0,0.0,0.0,0.0,0.0,0.0,0.0,0.0,0.0,0.0,0.0,0.0,0.0,0.0,0.0,0.0,0.0,0.0,0.0,0.0,0.0,0.0,0.0,0.0,0.0,0.0,0.0,0.0,0.0,0.0,0.0,0.0,0.0,0.0,0.0,0.0,0.0,0.0,0.0,0.0,0.0,0.0,0.0,0.0,0.0,0.0,0.0,0.0,0.0,0.0,0.0,0.0,0.0,0.0,0.0,0.0,0.0,0.0,0.0,0.0,0.0,0.0,0.0,0.0,0.0,0.0,0.0,0.0,0.0,0.0,0.0,0.0,0.0,0.0,0.0,0.0,0.0,0.0,0.0,0.0,0.0,0.0,0.0,0.0,0.0,0.0,0.0,0.0,0.0,0.0,0.0,0.0,0.0,0.0,0.0,0.0,0.0,0.0,0.0,0.0,0.0,0.0,0.0,0.0,0.0,0.0,0.0,0.0,0.0,0.0,0.0,0.0,0.0,0.0,0.0,0.0,0.0,0.0,0.0,0.0,0.0,0.0,0.0,0.0,0.0,0.0,0.0,0.0,0.0,0.0,0.0,0.0,0.0,0.0,0.0,0.0,0.0,0.0,0.0,0.0,0.0,0.0,0.0,0.0,0.0,0.0,0.0,0.0,0.0,0.0,0.0,0.0,0.0,0.0,0.0,0.0,0.0,0.0,0.0,0.0,0.0,0.0,0.0,0.0,0.0,0.0,0.0,0.0,0.0,0.0,0.0,0.0,0.0,0.0,0.0,0.0,0.0,0.0,0.0,0.0,0.0,0.0,0.0,0.0,0.0,0.0,0.0,0.0,0.0,0.0,0.0,0.0,0.0,0.0,0.0,0.0,0.0,0.0,0.0,0.0,0.0,0.0,0.0,0.0,0.0,0.0,0.0,0.0,0.0,0.0,0.0,0.0,0.0,0.0,0.0,0.0,0.0,0.0,0.0,0.0,0.0,0.0,0.0,0.0,0.0,0.0,0.0,0.0,0.0,0.0,0.0,0.0,0.0,0.0,0.0,0.0,0.0,0.0,0.0,0.0,0.0,0.0,0.0,0.0,0.0,0.0,0.0,0.0,0.0,0.0,0.0,0.0,0.0,0.0,0.0,0.0,0.0,0.0,0.0,0.0,0.0,0.0,0.0,0.0,0.0,0.0,0.0,0.0,0.0,0.0,0.0,0.0,0.0,0.0,0.0,0.0,0.0,0.0,0.0,0.0,0.0,0.0,0.0,0.0,0.0,0.0,0.0,0.0,0.0,0.0,0.0,0.0,0.0,0.0,0.0,0.0,0.0,0.0,0.0,0.0,0.0,0.0,0.0,0.0,0.0,0.0,0.0,0.0,0.0,0.0,0.0,0.0,0.0,0.0,0.0,0.0,0.0,0.0,0.0,0.0,0.0,0.0,0.0,0.0,0.0,0.0,0.0,0.0,0.0,0.0,0.0,0.0,0.0,0.0,0.0,0.0,0.0,0.0,0.0,0.0,0.0,0.0,0.0,0.0,0.0,0.0,0.0,0.0,0.0,0.0,0.0,0.0,0.0,0.0,0.0,0.0,0.0,0.0,0.0,0.0,0.0,0.0,0.0,0.0,0.0,0.0,0.0,0.0,0.0,0.0,0.0,0.0,0.0,0.0,0.0,0.0,0.0,0.0,0.0,0.0,0.0,0.0,0.0,0.0,0.0,0.0,0.0,0.0,0.0,0.0,0.0,0.0,0.0,0.0,0.0,0.0,0.0,0.0,0.0,0.0,0.0,0.0,0.0,0.0,0.0,0.0,0.0,0.0,0.0,0.0,0.0,0.0,0.0,0.0,0.0,0.0,0.0,0.0,0.0,0.0,0.0,0.0,0.0,0.0,0.0,0.0,0.0,0.0,0.0,0.0,0.0,0.0,0.0,0.0,0.0,0.0,0.0,0.0,0.0,0.0,0.0,0.0,0.0,0.0,0.0,0.0,0.0,0.0,0.0,0.0,0.0,0.0,0.0,0.0,0.0,0.0,0.0,0.0,0.0,0.0,0.0,0.0,0.0,0.0,0.0,0.0,0.0,0.0,0.0,0.0,0.0,0.0,0.0,0.0,0.0,0.0,0.0,0.0,0.0,0.0,0.0,0.0,0.0,0.0,0.0,0.0,0.0,0.0,0.0,0.0,0.0,0.0,0.0,0.0,0.0,0.0,0.0,0.0,0.0,0.0,0.0,0.0,0.0,0.0,0.0,0.0,0.0,0.0,0.0,0.0,0.0,0.0,0.0,0.0,0.0,0.0,0.0,0.0,0.0,0.0,0.0,0.0,0.0,0.0,0.0,0.0,0.0,0.0,0.0,0.0,0.0,0.0,0.0,0.0,0.0,0.0,0.0,0.0,0.0,0.0,0.0,0.0,0.0,0.0,0.0,0.0,0.0,0.0,0.0,0.0,0.0,0.0,0.0,0.0,0.0,0.0,0.0,0.0,0.0,0.0,0.0,0.0,0.0,0.0,0.0,0.0,0.0,0.0,0.0,0.0,0.0,0.0,0.0,0.0,0.0,0.0,0.0,0.0,0.0,0.0,0.0,0.0,0.0,0.0,0.0,0.0,0.0,0.0,0.0,0.0,0.0,0.0,0.0,0.0,0.0,0.0,0.0,0.0,0.0,0.0,0.0,0.0,0.0,0.0,0.0,0.0,0.0,0.0,0.0,0.0,0.0,0.0,0.0,0.0,0.0,0.0,0.0,0.0,0.0,0.0,0.0,0.0,0.0,0.0,0.0,0.0,0.0,0.0,0.0,0.0,0.0,0.0,0.0,0.0,0.0,0.0,0.0,0.0,0.0,0.0,0.0,0.0,0.0,0.0,0.0,0.0,0.0,0.0,0.0,0.0,0.0,0.0,0.0,0.0,0.0,0.0,0.0,0.0,0.0,0.0,0.0,0.0,0.0,0.0,0.0,0.0,0.0,0.0,0.0,0.0,0.0,0.0,0.0,0.0,0.0,0.0,0.0,0.0,0.0,0.0,0.0,0.0,0.0,0.0,0.0,0.0,0.0,0.0,0.0,0.0,0.0,0.0,0.0,0.0,0.0,0.0,0.0,0.0,0.0,0.0,0.0,0.0,0.0,0.0,0.0,0.0,0.0,0.0,0.0,0.0,0.0,0.0,0.0,0.0,0.0,0.0,0.0,0.0,0.0,0.0,0.0,0.0,0.0,0.0,0.0,0.0,0.0,0.0,0.0,0.0,0.0,0.0,0.0,0.0,0.0,0.0,0.0,0.0,0.0,0.0,0.0,0.0,0.0,0.0,0.0,0.0,0.0,0.0,0.0,0.0,0.0,0.0,0.0,0.0,0.0,0.0,0.0,0.0,0.0,0.0,0.0,0.0,0.0,0.0,0.0,0.0,0.0,0.0,0.0,0.0,0.0,0.0,0.0,0.0,0.0,0.0,0.0,0.0,0.0,0.0,0.0,0.0,0.0,0.0,0.0,0.0,0.0,0.0,0.0,0.0,0.0,0.0,0.0,0.0,0.0,0.0,0.0,0.0,0.0,0.0,0.0,0.0,0.0,0.0,0.0,0.0,0.0,0.0,0.0,0.0,0.0,0.0,0.0,0.0,0.0,0.0,0.0,0.0,0.0,0.0,0.0,0.0,0.0,0.0,0.0,0.0,0.0,0.0,0.0,0.0,0.0,0.0,0.0,0.0,0.0,0.0,0.0,0.0,0.0,0.0,0.0,0.0,0.0,0.0,0.0,0.0,0.0,0.0,0.0,0.0,0.0,0.0,0.0,0.0,0.0,0.0,0.0,0.0,0.0,0.0,0.0,0.0,0.0,0.0,0.0,0.0,0.0,0.0,0.0,0.0,0.0,0.0,0.0,0.0,0.0,0.0,0.0,0.0,0.0,0.0,0.0,0.0,0.0,0.0,0.0,0.0,0.0,0.0,0.0,0.0,0.0,0.0,0.0,0.0,0.0,0.0,0.0,0.0,0.0,0.0,0.0,0.0,0.0,0.0,0.0,0.0,0.0,0.0,0.0,0.0,0.0,0.0,0.0,0.0,0.0,0.0,0.0,0.0,0.0,0.0,0.0,0.0,0.0,0.0,0.0,0.0,0.0,0.0,0.0,0.0,0.0,0.0,0.0,0.0,0.0,0.0,0.0,0.0,0.0,0.0,0.0,0.0,0.0,0.0,0.0,0.0,0.0,0.0,0.0,0.0,0.0,0.0,0.0,0.0,0.0,0.0,0.0,0.0,0.0,0.0,0.0,0.0,0.0,0.0,0.0,0.0,0.0,0.0,0.0,0.0,0.0,0.0,0.0,0.0,0.0,0.0,0.0,0.0,0.0,0.0,0.0,0.0,0.0,0.0,0.0,0.0,0.0,0.0,0.0,0.0,0.0,0.0,0.0,0.0,0.0,0.0,0.0,0.0,0.0,0.0,0.0,0.0,0.0,0.0,0.0,0.0,0.0,0.0,0.0,0.0,0.0,0.0,0.0,0.0,0.0,0.0,0.0,0.0,0.0,0.0,0.0,0.0,0.0,0.0,0.0,0.0,0.0,0.0,0.0,0.0,0.0,0.0,0.0,0.0,0.0,0.0,0.0,0.0,0.0,0.0,0.0,0.0,0.0,0.0,0.0,0.0,0.0,0.0,0.0,0.0,0.0,0.0,0.0,0.0,0.0,0.0,0.0,0.0,0.0,0.0,0.0,0.0,0.0,0.0,0.0,0.0,0.0,0.0,0.0,0.0,0.0,0.0,0.0,0.0,0.0,0.0,0.0,0.0,0.0,0.0,0.0,0.0,0.0,0.0,0.0,0.0,0.0,0.0,0.0,0.0,0.0,0.0,0.0,0.0,0.0,0.0,0.0,0.0,0.0,0.0,0.0,0.0,0.0,0.0,0.0,0.0,0.0,0.0,0.0,0.0,0.0,0.0,0.0,0.0,0.0,0.0,0.0,0.0,0.0,0.0,0.0,0.0,0.0,0.0,0.0,0.0,0.0,0.0,0.0,0.0,0.0,0.0,0.0,0.0,0.0,0.0,0.0,0.0,0.0,0.0,0.0,0.0,0.0,0.0,0.0,0.0,0.0,0.0,0.0,0.0,0.0,0.0,0.0,0.0,0.0,0.0,0.0,0.0,0.0,0.0,0.0,0.0,0.0,0.0,0.0,0.0,0.0,0.0,0.0,0.0,0.0,0.0,0.0,0.0,0.0,0.0,0.0,0.0,0.0,0.0,0.0,0.0,0.0,0.0,0.0,0.0,0.0,0.0,0.0,0.0,0.0,0.0,0.0,0.0,0.0,0.0,0.0,0.0,0.0,0.0,0.0,0.0,0.0,0.0,0.0,0.0,0.0,0.0,0.0,0.0,0.0,0.0,0.0,0.0,0.0,0.0,0.0,0.0,0.0,0.0,0.0,0.0,0.0,0.0,0.0,0.0,0.0,0.0,0.0,0.0,0.0,0.0,0.0,0.0,0.0,0.0,0.0,0.0,0.0,0.0,0.0,0.0,0.0,0.0,0.0,0.0,0.0,0.0,0.0,0.0,0.0,0.0,0.0,0.0,0.0,0.0,0.0,0.0,0.0,0.0,0.0,0.0,0.0,0.0,0.0,0.0,0.0,0.0,0.0,0.0,0.0,0.0,0.0,0.0,0.0,0.0,0.0,0.0,0.0,0.0,0.0,0.0,0.0,0.0,0.0,0.0,0.0,0.0,0.0,0.0,0.0,0.0,0.0,0.0,0.0,0.0,0.0,0.0,0.0,0.0,0.0,0.0,0.0,0.0,0.0,0.0,0.0,0.0,0.0,0.0,0.0,0.0,0.0,0.0,0.0,0.0,0.0,0.0,0.0,0.0,0.0,0.0,0.0,0.0,0.0,0.0,0.0,0.0,0.0,0.0,0.0,0.0,0.0,0.0,0.0,0.0,0.0,0.0,0.0,0.0,0.0,0.0,0.0,0.0,0.0,0.0,0.0,0.0,0.0,0.0,0.0,0.0,0.0,0.0,0.0,0.0,0.0,0.0,0.0,0.0,0.0,0.0,-3.3207,0.0,0.0,0.0,0.0,0.0,0.0,0.0,0.0,0.0,0.0,0.0,0.0,0.0,0.0,0.0,0.0,0.0,0.0,0.0,0.0,0.0,0.0,0.0,0.0,-1.8654,-1.9766,-1.9869,-1.9877,-1.9877,-1.9877,-1.9608,0.0,0.0,-1.9367,-1.9252,-1.9378,-1.8935,-1.8911,-1.9283,-1.974,-2.0109,-2.0365,-1.9966,-1.9336,-1.8539,0.0,0.0,0.0,0.0,0.0,0.0,0.0,0.0,0.0,0.0,0.0,0.0,0.0,0.0,0.0,0.0,0.0,0.0,0.0,0.0,0.0,0.0,0.0,0.0,0.0,0.0,0.0,0.0,0.0,0.0,0.0,0.0,0.0,0.0,0.0,0.0,0.0,0.0,0.0,0.0,0.0,0.0,0.0,0.0,0.0,0.0,0.0,0.0,0.0,0.0,0.0,0.0,0.0,0.0,0.0,0.0,0.0,0.0,0.0,0.0,0.0,0.0,0.0,0.0,0.0,0.0,0.0,0.0,0.0,0.0,0.0,-3.5402,0.0,0.0,0.0,0.0,0.0,0.0,0.0,0.0,0.0,0.0,0.0,0.0,0.0,0.0,0.0,0.0,0.0,0.0,0.0,0.0,0.0,-1.6371,-1.6663,-1.8911,-2.0448,-2.0628,-2.0688,-2.0658,-2.0511,-1.9877,-1.9546,-1.9601,-1.9608,-1.9731,-1.9992,-2.0017,-2.0401,-2.1218,-2.1468,-2.2006,-2.2804,-2.2803,-2.212,-2.0882,-2.031,0.0,0.0,0.0,0.0,0.0,0.0,0.0,0.0,0.0,0.0,0.0,0.0,0.0,0.0,0.0,0.0,0.0,0.0,0.0,0.0,0.0,0.0,0.0,0.0,0.0,0.0,0.0,0.0,0.0,0.0,0.0,0.0,0.0,0.0,0.0,0.0,0.0,0.0,0.0,0.0,0.0,0.0,0.0,0.0,0.0,0.0,0.0,0.0,0.0,0.0,0.0,0.0,0.0,0.0,0.0,0.0,0.0,0.0,0.0,0.0,0.0,0.0,0.0,-4.1813,-4.2489,-4.3064,-4.3064,-4.342,-4.3826,-4.0781,-3.9495,-3.9411,0.0,0.0,0.0,0.0,0.0,0.0,0.0,0.0,0.0,0.0,0.0,0.0,0.0,0.0,0.0,0.0,0.0,0.0,0.0,0.0,-1.6039,-1.6943,-1.8746,-2.0238,-2.1122,-2.1461,-2.1308,-2.0548,-2.0401,-2.012,-1.962,-1.9608,-1.9993,-2.0828,-2.0828,-2.123,-2.2033,-2.331,-2.4393,-2.524,-2.577,-2.5882,-2.5571,-2.2766,-2.1845,-2.226,0.0,0.0,0.0,0.0,0.0,0.0,0.0,0.0,0.0,0.0,0.0,0.0,0.0,0.0,0.0,0.0,0.0,0.0,0.0,0.0,0.0,0.0,0.0,0.0,0.0,0.0,0.0,0.0,0.0,0.0,0.0,0.0,0.0,0.0,0.0,0.0,0.0,0.0,0.0,0.0,0.0,-3.0699,-3.0901,0.0,0.0,0.0,0.0,0.0,0.0,0.0,0.0,0.0,0.0,0.0,0.0,0.0,-4.1339,-4.2513,-4.4062,-4.4874,-4.4976,-4.5703,-4.6109,-4.6194,-4.6194,-4.6244,-4.6312,-4.5838,0.0,-4.1728,-4.0163,0.0,0.0,0.0,0.0,0.0,0.0,0.0,0.0,0.0,0.0,0.0,0.0,0.0,0.0,0.0,0.0,0.0,0.0,0.0,0.0,0.0,-1.998,-2.1576,-2.2199,-2.2383,-2.2318,-2.1924,-2.1025,-2.0378,-2.0122,-1.9675,-1.9848,-2.07,-2.0719,-2.1558,-2.3324,-2.4875,-2.5834,-2.6213,-2.6471,-2.6602,-2.6528,-2.5126,-2.419,-2.3602,-2.2501,0.0,0.0,0.0,0.0,0.0,0.0,0.0,0.0,0.0,0.0,0.0,0.0,0.0,0.0,0.0,0.0,0.0,0.0,0.0,0.0,0.0,0.0,0.0,0.0,0.0,0.0,0.0,0.0,0.0,0.0,0.0,0.0,0.0,0.0,0.0,0.0,0.0,0.0,0.0,-3.0118,-3.2412,-3.3316,-3.4871,-3.5371,0.0,0.0,0.0,0.0,0.0,0.0,0.0,0.0,0.0,-4.254,-4.3741,-4.4857,-4.5911,-4.7428,-4.8173,-4.8173,-4.8917,-4.9272,-4.9272,-4.9272,-4.9052,-4.8646,-4.8646,-4.7428,-4.528,-4.2929,-4.1085,-3.9614,0.0,0.0,0.0,0.0,-3.5366,-3.4179,0.0,0.0,0.0,0.0,0.0,0.0,0.0,0.0,0.0,0.0,0.0,0.0,-1.8893,-2.1237,-2.2795,-2.3034,-2.3398,-2.3428,-2.3024,-2.163,-2.0731,-2.0511,-1.9932,-1.9987,-2.0804,-2.1428,-2.2666,-2.4511,-2.6117,-2.6906,-2.6906,-2.7115,-2.7207,-2.7207,-2.7207,-2.6429,-2.5071,-2.4465,-2.2795,-2.0435,0.0,0.0,0.0,0.0,0.0,0.0,0.0,0.0,0.0,0.0,0.0,0.0,0.0,0.0,0.0,0.0,0.0,0.0,0.0,0.0,0.0,0.0,0.0,0.0,0.0,0.0,0.0,0.0,0.0,0.0,0.0,0.0,0.0,0.0,0.0,0.0,0.0,-3.2051,-3.4376,-3.5775,-3.7588,-3.8081,0.0,0.0,0.0,0.0,0.0,0.0,-4.1399,-4.2219,-4.3656,-4.5952,-4.7056,-4.8003,-4.8734,-4.983,-5.0371,-5.0388,-5.0947,-5.1185,-5.1185,-5.1185,-5.0913,-5.0371,-5.0168,-4.9475,-4.8257,-4.5449,-4.3521,-4.2219,-4.0933,-3.9441,-3.8068,-3.8425,-3.7566,-3.6337,0.0,0.0,0.0,0.0,0.0,0.0,0.0,0.0,0.0,0.0,0.0,-1.8313,-1.9781,-2.1913,-2.3229,-2.3194,-2.4472,-2.464,-2.3098,-2.2208,-2.1363,-2.0548,-2.0456,-2.0841,-2.1721,-2.3979,-2.5209,-2.5338,-2.6953,-2.7732,-2.775,-2.851,-2.8877,-2.8877,-2.8877,-2.84,-2.7467,-2.5162,-2.4098,-2.3676,-2.0509,0.0,0.0,0.0,0.0,0.0,0.0,0.0,0.0,0.0,0.0,0.0,0.0,0.0,0.0,0.0,0.0,0.0,0.0,0.0,0.0,0.0,0.0,0.0,0.0,0.0,0.0,0.0,0.0,0.0,0.0,0.0,0.0,0.0,0.0,0.0,0.0,0.0,0.0,-3.8414,-4.0616,0.0,0.0,0.0,0.0,-4.0607,-4.2108,-4.3724,-4.5331,-4.6109,-4.7513,-4.9746,-4.9881,-5.0287,-5.1016,-5.1116,-5.115,-5.1134,-5.1168,-5.1185,-5.1185,-5.1185,-5.1168,-5.1116,-5.0388,-5.005,-4.9796,-4.7547,-4.616,-4.5399,-4.4604,-4.3327,-4.1822,-4.1105,-3.9819,-3.8357,0.0,0.0,0.0,-1.3447,-1.3396,-1.3396,-1.3396,-1.4022,-1.4757,-1.5494,-1.7304,-1.8976,-2.0197,-2.1868,-2.2996,-2.3177,-2.3676,-2.3822,-2.3466,-2.2214,-2.1671,-2.2098,-2.108,-2.1391,-2.33,-2.5199,-2.6429,-2.6935,-2.8044,-2.8565,-2.8583,-2.8877,-2.9005,-2.9005,-2.9005,-2.884,-2.8473,-2.7108,-2.5621,-2.4043,-2.2354,-2.0859,0.0,0.0,0.0,0.0,0.0,0.0,0.0,0.0,0.0,0.0,0.0,0.0,0.0,0.0,0.0,0.0,0.0,0.0,0.0,0.0,0.0,0.0,0.0,0.0,0.0,0.0,0.0,0.0,0.0,0.0,0.0,0.0,0.0,0.0,0.0,0.0,0.0,-4.1625,-4.392,0.0,-4.3761,-4.4314,-4.4906,-4.5269,-4.5469,-4.6447,-4.8426,-4.8765,-4.9712,-5.1454,-5.1522,-5.1894,-5.2672,-5.2689,-5.2689,-5.2689,-5.2689,-5.2689,-5.2689,-5.2689,-5.2401,-5.1894,-5.1623,-5.1251,-5.071,-4.9441,-4.8206,-4.7056,-4.6295,-4.4939,-4.338,-4.312,-4.1894,-4.0323,-1.4039,-1.3743,0.0,-1.3396,-1.3396,-1.3396,-1.3396,-1.4242,-1.524,-1.6221,-1.8048,-1.9741,-2.097,-2.2315,-2.3106,-2.3038,-2.3389,-2.3578,-2.3522,-2.2282,-2.187,-2.2638,-2.1962,-2.2538,-2.4557,-2.6172,-2.7273,-2.7798,-2.8601,-2.9005,-2.9005,-2.9005,-2.9005,-2.9005,-2.9005,-2.9005,-2.8968,-2.8429,-2.7126,-2.5291,-2.3951,-2.2896,-2.1932,0.0,0.0,0.0,0.0,0.0,0.0,0.0,0.0,0.0,0.0,0.0,0.0,0.0,0.0,0.0,0.0,0.0,0.0,0.0,0.0,0.0,0.0,0.0,0.0,0.0,0.0,0.0,0.0,0.0,0.0,0.0,0.0,0.0,0.0,0.0,-4.2213,-4.4085,-4.6214,-4.7379,-4.709,-4.7846,-4.8512,-4.8948,-4.8793,-4.932,-5.0775,-5.0828,-5.1403,-5.2672,-5.2706,-5.2959,-5.3501,-5.3501,-5.3501,-5.3501,-5.3501,-5.3501,-5.3501,-5.3501,-5.3213,-5.2689,-5.2418,-5.2029,-5.1522,-5.0777,-4.9746,-4.8578,-4.7834,-4.6295,-4.4479,-4.4479,-4.3187,-4.1324,-1.3396,-1.3396,-1.3396,-1.3396,-1.3396,-1.3413,-1.343,-1.4674,-1.6136,-1.7614,-1.9072,-2.0576,-2.2093,-2.3265,-2.3601,-2.2764,-2.3711,-2.4003,-2.323,-2.2435,-2.1988,-2.2057,-2.3145,-2.4286,-2.5448,-2.7008,-2.7805,-2.7842,-2.862,-2.8994,-2.8982,-2.8982,-2.8982,-2.8982,-2.8982,-2.8994,-2.9005,-2.9005,-2.8546,-2.7622,-2.5254,-2.4768,-2.5081,0.0,0.0,0.0,0.0,0.0,0.0,0.0,0.0,0.0,0.0,0.0,0.0,0.0,0.0,0.0,0.0,0.0,0.0,0.0,0.0,0.0,0.0,0.0,0.0,0.0,0.0,0.0,0.0,0.0,0.0,0.0,0.0,0.0,-3.8817,-4.0928,-4.3369,-4.5736,-4.7425,-4.8493,-4.8753,-5.0836,-5.1919,-5.1442,-5.2044,-5.2416,-5.2333,-5.2334,-5.2689,-5.3484,-5.3501,-5.3501,-5.3501,-5.3501,-5.3501,-5.3501,-5.3501,-5.3501,-5.3501,-5.3501,-5.3501,-5.3467,-5.2689,-5.2334,-5.2283,-5.1555,-5.0811,-5.0084,-4.9292,-4.7454,-4.5234,-4.52,-4.3593,-4.1452,-1.3396,-1.3396,-1.3396,-1.3396,-1.3396,-1.3574,-1.4124,-1.5003,-1.6136,-1.7614,-1.9072,-2.0386,-2.1393,-2.2269,-2.2664,-2.2415,-2.2696,-2.2871,-2.284,-2.2071,-2.2101,-2.3192,-2.4314,-2.5633,-2.7119,-2.7567,-2.8081,-2.8675,-2.8895,-2.8851,-2.8565,-2.8565,-2.8565,-2.8565,-2.8565,-2.8737,-2.9005,-2.9005,-2.8877,-2.8565,-2.731,-2.6594,-2.6117,0.0,0.0,0.0,0.0,0.0,0.0,0.0,0.0,0.0,0.0,0.0,0.0,0.0,0.0,0.0,0.0,0.0,0.0,0.0,0.0,0.0,0.0,0.0,0.0,0.0,0.0,0.0,0.0,0.0,0.0,0.0,-3.9056,-4.1313,-4.1313,-4.4397,-4.7113,-4.8361,-4.9976,-5.1456,-5.2681,-5.2898,-5.3157,-5.3591,-5.3369,-5.3194,-5.3162,-5.3179,-5.3281,-5.3501,-5.3501,-5.3501,-5.3501,-5.3501,-5.3501,-5.3501,-5.3501,-5.3501,-5.3501,-5.3501,-5.3501,-5.3501,-5.3264,-5.3179,-5.3112,-5.2334,-5.1877,-5.149,-4.9559,-4.7616,-4.585,-4.5148,-4.3727,-4.2126,-1.3396,-1.3396,-1.3396,-1.3396,-1.3659,-1.4005,-1.4436,-1.5392,-1.6587,-1.8065,-1.9287,-2.042,-2.1532,-2.204,-2.2296,-2.2296,-2.2296,-2.2377,-2.2527,-2.238,-2.2751,-2.3738,-2.504,-2.6237,-2.7326,-2.7682,-2.8062,-2.8551,-2.8688,-2.857,-2.8197,-2.8324,-2.8329,-2.8197,-2.8342,-2.854,-2.8761,-2.8929,-2.9005,-2.8968,-2.8491,-2.8014,-2.7482,-2.6337,-2.5823,-2.5625,-2.5012,-2.4698,-2.4516,-2.4226,0.0,0.0,0.0,0.0,0.0,0.0,0.0,0.0,0.0,0.0,0.0,0.0,0.0,0.0,0.0,0.0,0.0,0.0,0.0,0.0,0.0,0.0,0.0,0.0,-4.1992,-4.4433,-4.4782,-4.6838,-4.8857,-5.0362,-5.1701,-5.3133,-5.4748,-5.4825,-5.4826,-5.4983,-5.4624,-5.4139,-5.3534,-5.3501,-5.3501,-5.3501,-5.3501,-5.3501,-5.3501,-5.3501,-5.3501,-5.3501,-5.3501,-5.3501,-5.3501,-5.3501,-5.3501,0.0,-5.3501,-5.3501,-5.3467,-5.301,-5.2604,0.0,0.0,0.0,0.0,0.0,-4.3568,-4.2776,-1.3413,-1.3396,-1.3396,-1.3396,-1.4005,-1.4537,-1.4605,-1.5808,-1.7264,-1.8826,-1.9592,-2.0589,-2.2127,-2.2296,-2.2296,-2.2296,-2.2296,-2.233,-2.2429,-2.3081,-2.3679,-2.414,-2.551,-2.6449,-2.6833,-2.7529,-2.7897,-2.7897,-2.8197,-2.817,-2.784,-2.8139,-2.8129,-2.7855,-2.8139,-2.8298,-2.8368,-2.8761,-2.8929,-2.894,-2.8982,-2.9005,-2.884,-2.7409,-2.7255,-2.7706,-2.7011,-2.6544,-2.6217,-2.617,0.0,0.0,0.0,0.0,0.0,0.0,0.0,0.0,0.0,0.0,0.0,0.0,0.0,0.0,0.0,0.0,0.0,0.0,0.0,0.0,0.0,0.0,0.0,0.0,-4.4838,-4.7571,-4.8581,-4.8728,-4.9536,-5.1738,-5.2784,-5.394,-5.5445,-5.6241,-5.6412,-5.5737,-5.5621,-5.4969,-5.3584,0.0,0.0,0.0,0.0,-5.3501,-5.3501,-5.3501,-5.3501,-5.3501,-5.3501,-5.3501,-5.3501,-5.3501,-5.3501,-5.3501,-5.3501,-5.3501,-5.3501,-5.3501,-5.291,-5.1749,-4.9457,-4.7837,-4.6581,-4.4202,-4.329,0.0,-1.3515,-1.3396,-1.3396,-1.3396,-1.4005,-1.4706,-1.5308,-1.613,-1.745,-1.9524,-1.99,-2.0589,-2.2127,-2.2296,-2.2296,-2.2296,-2.2296,-2.255,-2.3139,-2.3565,-2.4395,-2.5692,-2.6296,-2.695,-2.7653,-2.7826,-2.7897,-2.7897,-2.795,-2.7794,-2.7409,-2.7485,-2.7485,-2.7409,-2.7485,-2.7692,-2.8024,-2.8368,-2.8527,-2.8552,-2.8863,-2.9005,-2.8968,-2.8656,-2.8227,-2.7802,-2.78,-2.7763,-2.7642,-2.732,-2.7514,-2.781,-2.7314,-2.6563,0.0,0.0,0.0,0.0,0.0,0.0,0.0,0.0,0.0,0.0,0.0,0.0,0.0,0.0,0.0,0.0,0.0,0.0,0.0,-4.5333,-4.7131,-4.882,-5.0967,-5.1279,-5.1444,-5.194,-5.328,-5.4546,-5.55,-5.5793,-5.5857,-5.5709,-5.5144,-5.4437,-5.3568,-5.3501,0.0,-5.3501,-5.3501,-5.3501,-5.3501,-5.3501,-5.3501,-5.3501,0.0,0.0,-5.3501,-5.3501,-5.3501,-5.3501,-5.3501,-5.3501,-5.3501,-5.3501,-5.2108,-4.9811,-4.8187,-4.6129,-4.4016,-4.3478,-4.329,-4.329,-1.4573,-1.4505,-1.4386,-1.4005,-1.4868,-1.574,-1.6096,-1.679,-1.7777,-1.9253,-1.9439,-1.9879,-2.1028,-2.1147,-2.1147,-2.1147,-2.1515,-2.2209,-2.3325,-2.3891,-2.4709,-2.5839,-2.6404,-2.6891,-2.7286,-2.7303,-2.7303,-2.7303,-2.75,-2.7394,-2.7003,-2.721,-2.7194,-2.702,-2.7591,-2.7759,-2.7654,-2.8387,-2.8578,-2.842,-2.8633,-2.8827,-2.9005,-2.9005,-2.8748,-2.8404,-2.8518,-2.8648,-2.8745,-2.8634,-2.8681,-2.8763,-2.8557,-2.7934,-2.7159,0.0,0.0,0.0,0.0,0.0,0.0,0.0,0.0,0.0,0.0,0.0,0.0,0.0,0.0,-3.8324,-4.0666,0.0,-4.4433,-4.7241,-4.8746,-5.0123,-5.1756,-5.2344,-5.2601,-5.2601,-5.4014,-5.5152,-5.5556,-5.6364,-5.6519,-5.5773,-5.535,-5.4651,-5.3568,-5.3501,-5.3501,-5.3501,-5.3501,-5.3501,-5.3501,-5.3501,-5.3501,-5.3501,-5.3501,-5.3501,-5.3501,-5.3501,-5.3501,-5.3501,-5.3501,-5.3501,-5.3467,-5.2904,-5.1385,-4.9251,-4.769,-4.5766,-4.3738,-4.3409,-4.329,-4.329,-1.5629,-1.5832,-1.5747,-1.4875,-1.5825,-1.6699,-1.6699,-1.732,-1.8065,-1.8792,-1.8894,-1.9181,-1.9917,-2.0002,-2.0052,-2.0217,-2.0835,-2.1884,-2.3509,-2.4169,-2.4897,-2.5778,-2.6387,-2.6691,-2.6691,-2.6691,-2.6691,-2.6691,-2.7019,-2.7019,-2.6708,-2.7019,-2.7088,-2.6945,-2.7877,-2.7939,-2.7469,-2.845,-2.8656,-2.8316,-2.8363,-2.8645,-2.9005,-2.9005,-2.9005,-2.8987,-2.8822,-2.8938,-2.9163,-2.9211,-2.8919,-2.8611,-2.8979,-2.8549,-2.7799,-2.7255,-2.7467,0.0,0.0,0.0,0.0,0.0,0.0,0.0,0.0,-3.4518,-3.5705,-3.7357,-3.9368,-4.1277,-4.2727,-4.4837,-4.6893,-4.8526,-5.005,-5.1316,-5.2123,-5.2803,-5.3185,-5.3185,-5.462,-5.5614,-5.5614,-5.6928,-5.7266,-5.6031,-5.5667,-5.4969,-5.3783,-5.3584,-5.3501,-5.3501,-5.3653,-5.3721,-5.3721,-5.3721,-5.3721,-5.3721,-5.3568,-5.3501,-5.3501,-5.3501,-5.3501,-5.3501,-5.3501,-5.3501,-5.3382,-5.2117,-5.0797,-4.9399,-4.738,-4.5727,-4.4407,-4.3589,-4.329,-4.329,-1.574,-1.6661,-1.7107,-1.5714,-1.6164,-1.6699,-1.6699,-1.732,-1.8065,-1.8792,-1.8894,-1.9181,-1.9917,-2.0002,-2.0285,-2.1004,-2.114,-2.2104,-2.4237,-2.4457,-2.5117,-2.6522,-2.6657,-2.6691,-2.6691,-2.6691,-2.6691,-2.6691,-2.6741,-2.6741,-2.6691,-2.6741,-2.7097,-2.7672,-2.7809,-2.7826,-2.7776,-2.8265,-2.8277,-2.7978,-2.829,-2.8645,-2.9005,-2.9005,-2.9005,-2.8913,-2.8191,-2.807,-2.8174,-2.7641,-2.7555,-2.7815,-2.8787,-2.8549,-2.803,-2.8646,-2.8376,-2.803,-2.8646,-2.985,-3.1345,-3.3157,-3.3733,-3.5143,0.0,-4.015,-3.9911,-4.2229,-4.3479,-4.4452,-4.5333,-4.6893,-4.8581,-5.0251,-5.1279,-5.2142,-5.2968,-5.313,-5.3185,-5.3185,-5.462,-5.5614,-5.5614,-5.6455,-5.6964,-5.6791,-5.5483,-5.4651,-5.4482,-5.3865,-5.3501,-5.3501,-5.4143,-5.4465,-5.4465,-5.4465,-5.4465,-5.4465,-5.3805,-5.3501,-5.3501,-5.3501,-5.3501,-5.3501,-5.3501,-5.3501,-5.3348,-5.1373,-5.0464,-4.9965,-4.6737,-4.5368,-4.5035,-4.3753,-4.329,-4.329,-1.6948,-1.7377,-1.7614,-1.6999,-1.7134,-1.7337,-1.7337,-1.7608,-1.7901,-1.8217,-1.8268,-1.8374,-1.8696,-1.9101,-1.9672,-2.0433,-2.0936,-2.1952,-2.3746,-2.4254,-2.4965,-2.6015,-2.6471,-2.6691,-2.6691,-2.6691,-2.6691,-2.6691,-2.6691,-2.6691,-2.6691,-2.6691,-2.686,-2.7182,-2.7604,-2.7553,-2.7199,-2.7794,-2.7996,-2.7911,-2.8047,-2.8469,-2.895,-2.8484,-2.8301,-2.8264,-2.7915,-2.755,0.0,-2.7213,-2.7259,-2.7455,-2.8163,-2.8165,-2.7972,-2.8299,-2.8852,-2.9799,-3.1748,-3.2959,-3.4031,-3.5676,-3.6786,-3.8199,-4.0963,-4.1442,-4.1717,-4.3203,-4.4507,-4.5498,-4.5847,-4.7627,-4.9444,-5.0618,-5.1481,-5.227,-5.3096,-5.3185,-5.3185,-5.3185,-5.4216,-5.5078,-5.5559,-5.6355,-5.6861,-5.6902,-5.5882,-5.5042,-5.462,-5.3913,-5.3501,-5.3501,-5.4211,-5.4583,-5.4583,-5.4583,-5.4583,-5.4583,-5.3856,-5.3501,-5.3501,-5.3501,-5.3501,-5.3501,-5.3501,-5.3501,-5.3382,-5.1902,-5.093,-5.0099,-4.7338,-4.586,-4.514,-4.3783,-4.329,-4.329,-1.78,-1.78,-1.78,-1.78,-1.78,-1.78,-1.78,-1.78,-1.78,-1.78,-1.78,-1.7884,-1.8082,-1.8589,-1.9283,-2.0251,-2.0856,-2.1833,-2.3291,-2.3898,-2.4626,-2.5558,-2.6116,-2.6488,-2.6691,-2.6691,-2.6691,-2.6691,-2.6691,-2.6691,-2.6691,-2.6691,-2.681,-2.7029,-2.7553,-2.7503,-2.7046,-2.757,-2.7853,-2.7897,-2.7897,-2.8352,-2.8913,-2.8117,-2.7669,-2.7438,-2.7229,-2.6801,-2.6361,-2.6424,-2.6517,-2.6683,-2.7217,-2.7422,-2.7574,-2.8211,-2.9736,-3.1695,-3.3889,-3.5264,-3.643,-3.7805,-3.9383,-4.0763,-4.1589,-4.2213,-4.28,-4.3386,-4.4599,-4.5645,-4.5865,-4.7719,-4.9572,-5.0637,-5.1481,-5.227,-5.3096,-5.3185,-5.3185,-5.3185,-5.372,-5.4473,-5.5482,-5.6326,-5.6914,-5.718,-5.6474,-5.5695,-5.4952,-5.4218,-5.3717,-5.3501,-5.4414,-5.4905,-5.4905,-5.5108,-5.5091,-5.4888,-5.416,-5.3704,-5.3501,-5.3501,-5.3501,-5.3501,-5.3501,-5.3501,-5.3433,-5.2348,-5.132,-5.0192,-4.7809,-4.6247,-4.514,-4.3783,-4.329,-4.329,-1.78,-1.78,-1.78,-1.78,-1.78,-1.78,-1.78,-1.78,-1.78,-1.78,-1.78,-1.807,-1.8792,-1.8888,-1.9502,-2.1021,-2.119,-2.1833,-2.3291,-2.341,-2.4086,-2.5541,-2.5625,-2.5981,-2.6674,-2.6691,-2.6691,-2.6691,-2.6691,-2.6691,-2.6691,-2.6691,-2.708,-2.7773,-2.779,-2.779,-2.7773,-2.779,-2.7853,-2.7897,-2.7897,-2.8352,-2.8913,-2.8117,-2.731,-2.6539,-2.576,-2.5577,-2.5614,-2.4839,-2.4805,-2.5184,-2.5859,-2.6195,-2.6784,-2.8988,-3.1374,-3.3445,-3.4048,-3.5975,-3.8145,-3.9479,-4.1038,-4.2433,-4.3239,-4.346,-4.3478,-4.3496,-4.4158,-4.4984,-4.5755,-4.7241,-4.8893,-5.0527,-5.1481,-5.227,-5.3096,-5.3185,-5.3185,-5.3185,-5.3203,-5.3867,-5.5445,-5.6326,-5.7111,-5.7918,-5.7284,-5.6518,-5.5706,-5.4952,-5.4232,-5.3534,-5.4921,-5.5683,-5.5683,-5.6393,-5.6376,-5.5683,-5.4921,-5.4194,-5.3501,-5.3501,-5.3501,-5.3501,-5.3501,-5.3501,-5.3433,-5.2348,-5.132,-5.0192,-4.7809,-4.6247,-4.514,-4.3783,-4.329,-4.329,-1.78,-1.82,-1.8386,-1.7884,-1.82,-1.8369,-1.7867,-1.78,-1.7969,-1.8471,-1.8966,0.0,0.0,0.0,0.0,0.0,-2.1647,-2.2141,-2.2649,-2.3122,-2.3613,-2.412,-2.4609,-2.5218,-2.5947,-2.5981,-2.6201,-2.6691,-2.6691,-2.6691,-2.6691,-2.6691,-2.6826,-2.708,-2.708,-2.708,-2.708,-2.708,-2.7518,-2.8165,-2.7419,-2.8018,-2.9225,-2.7624,-2.6851,-2.6502,0.0,-2.5093,-2.4691,-2.4537,-2.4564,-2.4734,-2.5084,-2.5626,-2.6688,-2.9638,-3.2132,-3.4325,-3.6149,-3.7914,-3.9596,-4.1107,-4.1901,-4.2506,-4.3331,-4.3515,-4.3515,-4.3515,-4.414,-4.4764,-4.5057,-4.6856,-4.8673,-4.9811,-5.1114,-5.227,-5.3096,-5.3665,-5.3812,-5.3259,-5.4142,-5.5005,-5.5559,-5.5831,0.0,-5.7886,-5.7327,-5.6545,-5.5734,-5.5012,-5.4264,-5.3534,-5.4938,-5.5681,-5.5681,-5.6444,-5.6444,-5.57,-5.4465,-5.3737,-5.3501,-5.3501,-5.3501,-5.3501,-5.3501,-5.3501,-5.3467,-5.311,-5.1954,-5.0231,-4.8567,-4.6819,-4.514,-4.3783,-4.329,-4.329,-1.8126,-1.8572,-1.8826,-1.8628,-1.8758,0.0,0.0,0.0,0.0,0.0,0.0,0.0,0.0,0.0,0.0,0.0,0.0,-2.2296,-2.2296,-2.275,-2.3122,-2.3376,-2.3864,-2.4457,-2.5186,-2.5203,-2.5439,-2.5912,-2.5912,-2.6065,-2.6302,-2.6302,-2.6437,-2.6691,-2.6691,-2.6691,-2.6674,-2.642,-2.6803,-2.7544,-2.6623,-2.7112,-2.818,-2.6732,-2.6172,0.0,-2.5264,-2.464,-2.4218,-2.4339,-2.4631,-2.495,-2.4999,-2.6158,-2.8035,-3.0715,-3.3136,-3.548,-3.7956,-3.946,-4.0726,-4.2323,-4.2727,-4.2855,-4.3386,-4.3515,-4.3423,-4.313,-4.3479,-4.3938,-4.4213,-4.5535,-4.7241,-4.928,-5.071,-5.205,-5.3445,-5.4326,-5.4638,-5.4124,-5.4968,-5.5702,-5.5996,-5.6033,0.0,-5.7886,-5.7565,-5.6825,-5.5762,-5.5262,-5.4544,-5.3534,-5.4938,-5.5681,-5.5681,-5.6444,-5.6308,-5.5294,-5.4093,-5.3501,-5.3501,-5.3501,-5.3501,-5.3501,-5.3501,-5.3501,-5.3501,-5.3501,-5.2274,-5.0269,-4.8941,-4.7114,-4.514,-4.3783,-4.329,-4.329,-1.8694,-1.8961,-1.9232,0.0,0.0,0.0,0.0,0.0,0.0,0.0,0.0,0.0,0.0,0.0,0.0,0.0,0.0,0.0,-2.2296,-2.2296,-2.2615,-2.3308,-2.3342,-2.3695,-2.4423,-2.444,-2.4457,-2.4491,-2.4491,-2.4863,-2.5541,-2.5541,-2.593,-2.6589,-2.6589,-2.6589,-2.6539,-2.5845,-2.5796,-2.6123,-2.5631,-2.5711,-2.6085,-2.5602,-2.5393,-2.5301,-2.4548,-2.4263,-2.4263,-2.4263,-2.4986,-2.5848,-2.5738,-2.7835,-3.065,-3.2289,-3.4504,-3.6927,-3.9313,-4.0579,-4.1589,-4.3112,-4.3515,-4.3515,-4.3515,-4.3478,-4.3222,-4.2451,-4.2268,-4.247,-4.3239,-4.3479,-4.4873,-4.8839,-5.0251,-5.1683,-5.4069,-5.5133,-5.5669,-5.5614,-5.5666,-5.5996,-5.673,-5.684,0.0,-5.7941,0.0,-5.734,-5.5791,-5.5706,-5.5029,-5.3568,-5.4938,-5.5664,-5.5649,-5.6342,-5.5987,-5.4583,-5.3856,-5.3501,-5.3501,-5.3501,-5.3501,-5.3501,-5.3501,-5.3501,-5.3501,-5.3501,-5.2274,-5.0269,-4.8941,-4.7114,-4.514,-4.3783,-4.329,-4.329,0.0,0.0,0.0,0.0,0.0,0.0,0.0,0.0,0.0,0.0,0.0,0.0,0.0,0.0,0.0,0.0,0.0,0.0,-2.2296,-2.2296,-2.2381,-2.2567,-2.2581,-2.2936,-2.3661,-2.3678,-2.3949,-2.4491,-2.4491,-2.4592,-2.4778,-2.4778,-2.488,-2.5066,-2.5066,-2.5066,-2.5049,-2.4863,-2.5163,-2.5695,-2.4921,-2.5397,-2.6458,-2.5677,-2.5393,-2.5374,-2.5172,-2.5081,-2.5081,-2.5081,-2.6452,-2.836,-2.9499,-3.0834,-3.2417,-3.4688,-3.6652,-3.8487,-4.0304,-4.1827,-4.2983,-4.3387,-4.3515,-4.3515,-4.3515,-4.3039,-4.2543,-4.2341,-4.1827,-4.1462,-4.168,-4.3185,-4.5131,-4.7388,-4.9958,-5.2325,-5.4142,-5.5611,-5.6271,-5.5666,-5.6657,-5.7226,-5.684,-5.7336,-5.7776,0.0,-5.7997,-5.734,-5.5791,-5.5706,-5.5029,-5.3568,-5.4938,-5.5446,-5.4888,-5.5057,-5.4955,-5.4583,-5.3856,-5.3501,-5.3501,-5.3501,-5.3501,-5.3501,-5.3501,-5.3501,-5.3501,-5.3501,-5.2274,-5.0269,-4.8941,-4.7114,-4.514,-4.3783,-4.329,-4.329,0.0,0.0,0.0,0.0,0.0,0.0,0.0,0.0,0.0,0.0,0.0,0.0,0.0,0.0,0.0,0.0,0.0,0.0,0.0,-2.2296,-2.2296,-2.2296,-2.2296,-2.2482,-2.2919,-2.3224,-2.3427,-2.3528,-2.3864,-2.4017,-2.4017,-2.4017,-2.4186,-2.4491,-2.4491,-2.4491,-2.4474,-2.4152,-2.4345,0.0,0.0,-2.4442,-2.5355,-2.5006,-2.4879,-2.4879,-2.4879,-2.5558,-2.6623,-2.7688,-2.8925,-3.0467,-3.2797,-3.3862,-3.4706,-3.7147,-3.8762,-4.0029,-4.1295,-4.2543,-4.3515,-4.3515,-4.3515,-4.3331,-4.2598,-4.2378,-4.1901,-4.0469,-4.0396,-4.0359,-3.9643,-4.1497,-4.3755,-4.5718,-4.8802,-5.1756,-5.4069,-5.5794,-5.6767,-5.6657,-5.7446,-5.7813,-5.7373,-5.774,-5.7997,0.0,-5.7997,-5.734,-5.5791,-5.5706,-5.5029,-5.3568,-5.4634,-5.5023,-5.4583,-5.4583,-5.4431,-5.411,-5.3704,-5.3501,-5.3501,-5.3501,-5.3501,-5.3501,0.0,-5.3501,-5.3501,-5.3501,-5.2539,-5.0859,-4.9089,-4.7422,-4.5773,-4.3968,-4.329,-4.329,0.0,0.0,0.0,0.0,0.0,0.0,0.0,0.0,0.0,-2.0289,-2.1383,-2.2178,-2.2279,-2.2296,0.0,0.0,0.0,0.0,0.0,0.0,-2.2296,-2.2296,-2.2296,-2.2296,-2.2296,-2.2936,-2.2936,-2.2296,-2.2936,-2.3241,-2.3241,-2.3241,-2.3596,-2.4203,-2.4203,-2.4203,-2.4169,-2.3528,-2.3411,-2.3663,-2.3332,-2.338,-2.3682,0.0,-2.4263,-2.4392,-2.4593,-2.608,-2.8338,-3.0883,-3.1801,-3.243,-3.5624,-3.6688,-3.7221,-3.9533,-4.0708,-4.1425,-4.2249,-4.2965,-4.3515,-4.3515,-4.3515,-4.3112,-4.159,-4.1644,-4.1148,-3.8264,-3.8612,-3.9035,-3.7731,-3.9478,-4.1884,-4.4306,-4.7462,-5.073,-5.394,-5.5702,-5.6987,-5.7886,-5.7997,-5.7997,-5.7997,-5.7997,-5.7997,-5.7997,-5.7997,-5.734,-5.5791,-5.5706,-5.5064,-5.3703,-5.416,-5.4499,-5.4583,-5.4499,-5.4126,-5.3501,-5.3501,-5.3501,-5.3501,-5.3501,-5.3501,-5.3501,0.0,0.0,-5.3501,-5.3501,-5.287,-5.1701,-4.9455,-4.7913,-4.6601,-4.4334,-4.3409,-4.329,0.0,0.0,0.0,0.0,0.0,0.0,-2.1021,-2.0987,-2.1211,-2.1823,-2.16,-2.1617,-2.2229,-2.2296,0.0,0.0,0.0,0.0,0.0,0.0,0.0,-2.2296,-2.2296,-2.2296,-2.2296,-2.2431,-2.2431,-2.2296,-2.2431,-2.2496,-2.2496,-2.2496,-2.2564,-2.2682,-2.2682,-2.2682,-2.2682,-2.2547,-2.2525,-2.2616,-2.3035,-2.3224,-2.3357,-2.3976,0.0,0.0,-2.6696,-2.7879,-2.9262,-3.2357,-3.3844,-3.4821,-3.7459,-3.8744,-3.9606,-4.1368,-4.1992,-4.2268,-4.3057,-4.3404,-4.3515,-4.3515,-4.3515,-4.324,-4.2304,-4.1167,-3.9955,-3.8744,-3.7661,-3.7037,-3.7437,-3.9478,-4.1884,-4.4306,-4.7462,-5.073,-5.394,-5.5207,-5.6345,-5.7831,-5.7997,-5.7997,-5.7997,-5.7997,-5.7997,0.0,-5.7997,-5.734,-5.5791,-5.5706,-5.5309,-5.4449,-5.394,-5.3974,-5.4583,-5.3991,-5.3636,-5.3501,-5.3501,-5.3501,-5.3501,-5.3501,-5.3501,-5.3501,0.0,0.0,-5.3501,-5.3501,-5.287,-5.1737,-5.0167,-4.8469,-4.6718,-4.5118,-4.3989,-4.329,0.0,0.0,0.0,0.0,0.0,0.0,-2.229,-2.2341,-2.2612,-2.3342,-2.3137,-2.2917,-2.2885,-2.2533,-2.2296,0.0,0.0,0.0,0.0,0.0,0.0,-2.2296,-2.2296,-2.2296,-2.2296,-2.2682,-2.2682,-2.2296,0.0,-2.2682,-2.2296,-2.2296,-2.2296,-2.2296,-2.2296,-2.2296,-2.2296,-2.2296,-2.2374,-2.2588,-2.3465,-2.3928,-2.4185,0.0,0.0,0.0,-2.7365,-2.8319,-2.9354,-3.1751,-3.3366,-3.4949,-3.8285,-3.9882,-4.0763,-4.1956,-4.2598,-4.3002,-4.3387,-4.3515,-4.3515,-4.3515,-4.3185,-4.2451,-4.0799,-3.9827,-3.8689,-3.6578,-3.6229,-3.6138,-3.5661,-3.7918,-4.0377,-4.1956,-4.4929,-4.8324,-5.2013,-5.3573,-5.5097,-5.7134,-5.7758,-5.7997,-5.7997,-5.7997,-5.7997,-5.7997,-5.7997,-5.734,-5.5791,-5.4969,-5.4389,-5.4042,-5.3687,-5.367,-5.4025,-5.3687,-5.3501,-5.3501,-5.3501,-5.3501,-5.3501,-5.3501,-5.3501,-5.3501,-5.3501,0.0,-5.3501,-5.3501,-5.3195,-5.2529,-5.0583,-4.8923,-4.7454,-4.5519,-4.4143,-4.329,0.0,0.0,0.0,0.0,0.0,0.0,-2.3071,-2.3291,-2.3661,-2.4406,-2.4491,-2.4271,-2.3712,-2.2987,-2.2465,0.0,0.0,0.0,0.0,0.0,0.0,0.0,0.0,-2.2296,-2.2296,0.0,0.0,-2.2533,-2.3122,0.0,0.0,0.0,0.0,0.0,-2.2296,-2.2296,-2.2296,-2.2296,-2.2566,0.0,0.0,-2.47,0.0,0.0,0.0,0.0,0.0,-2.8455,-2.9244,-3.0852,-3.2228,-3.3935,-3.7661,-3.9662,-4.0765,-4.1772,-4.2598,-4.3277,-4.346,-4.3515,-4.3515,-4.3515,-4.2892,-4.1717,-3.9478,-3.8689,-3.7606,-3.4669,-3.4963,-3.5459,-3.4504,-3.6597,-3.8872,-4.0194,-4.269,-4.5938,-5.0196,-5.205,-5.3904,-5.6492,-5.7519,-5.7997,-5.7997,-5.7997,-5.7997,-5.7997,-5.7684,0.0,-5.5762,-5.4437,-5.3668,-5.3501,-5.3501,-5.3501,-5.3501,-5.3501,-5.3501,-5.3501,-5.3501,-5.3501,-5.3501,-5.3501,-5.3501,-5.3501,-5.3501,0.0,0.0,-5.3501,-5.3399,-5.3028,-5.0926,-4.9423,-4.8192,-4.5924,-4.4457,-4.3591,0.0,0.0,0.0,0.0,0.0,0.0,-2.2381,-2.297,-2.3661,-2.4406,-2.4491,-2.4474,-2.4406,-2.3731,-2.3038,0.0,0.0,0.0,0.0,0.0,0.0,0.0,0.0,0.0,0.0,0.0,0.0,-2.3291,-2.3359,0.0,0.0,0.0,0.0,0.0,0.0,-2.2296,-2.2296,-2.2296,0.0,0.0,0.0,0.0,0.0,0.0,0.0,0.0,0.0,-2.8932,-2.9244,-3.0852,-3.1507,-3.2063,-3.4637,-3.7041,-3.9205,-4.0747,-4.1791,-4.2561,-4.3313,-4.3515,-4.3515,-4.3515,-4.2892,-4.1864,-4.0175,-3.8667,-3.7092,-3.5261,-3.4417,-3.4449,-3.5826,-3.6923,-3.8594,-4.1589,-4.2928,-4.5278,-5.0123,-5.1555,-5.328,-5.6436,-5.7519,-5.7997,-5.7997,-5.7997,-5.7997,-5.7997,0.0,0.0,-5.5706,-5.4939,-5.4186,-5.3534,-5.3501,-5.3501,-5.3501,-5.3501,-5.3501,-5.3501,-5.3501,-5.3501,-5.3501,-5.3501,-5.3501,-5.3501,-5.3501,0.0,0.0,-5.3501,-5.3078,-5.2334,-5.1424,-5.0076,-4.8472,-4.6708,-4.5452,-4.451,0.0,0.0,0.0,0.0,0.0,0.0,-2.2885,-2.3207,-2.3816,-2.5,-2.5152,-2.5152,-2.5152,-2.4492,-2.3594,-2.2398,0.0,0.0,0.0,0.0,0.0,0.0,0.0,0.0,0.0,0.0,-2.3105,-2.3393,-2.3848,0.0,0.0,0.0,0.0,0.0,0.0,-2.2733,-2.233,-2.2784,0.0,0.0,0.0,0.0,0.0,0.0,0.0,0.0,0.0,0.0,-2.9097,-2.9739,-3.0283,-3.0852,-3.1812,-3.3788,-3.6358,-3.9478,-4.0946,-4.1864,-4.3149,-4.3515,-4.3515,-4.3515,-4.2525,-4.1167,-3.9551,-3.7918,-3.6303,-3.4633,-3.4027,-3.4156,-3.5298,-3.6211,-3.7661,-4.0396,-4.1534,-4.3406,-4.7297,-4.8967,-5.0986,-5.4252,-5.5776,-5.6932,-5.7905,-5.7997,-5.7997,-5.7997,0.0,0.0,-5.5734,-5.4575,-5.3799,-5.3501,-5.3501,-5.3501,-5.3501,-5.3501,-5.3501,-5.3501,-5.3501,-5.3501,-5.3501,-5.3501,-5.3501,-5.3501,-5.3501,0.0,0.0,-5.3501,-5.3027,-5.2232,-5.1505,-5.0191,-4.8492,-4.6832,-4.5597,-4.4662,0.0,0.0,0.0,0.0,0.0,-2.2482,-2.3004,-2.3257,-2.3765,-2.4814,-2.5135,-2.527,-2.527,-2.4626,-2.3848,-2.3021,-2.255,0.0,0.0,0.0,0.0,0.0,0.0,0.0,0.0,0.0,-2.3613,-2.4052,-2.4795,-2.5032,0.0,0.0,-2.4643,-2.3729,0.0,0.0,0.0,0.0,0.0,0.0,0.0,0.0,0.0,0.0,0.0,0.0,0.0,0.0,0.0,0.0,0.0,-3.0558,-3.0558,-3.188,-3.4156,-3.7771,-3.9735,-4.1111,-4.2708,-4.3331,-4.3515,-4.3515,-4.2286,-4.0673,-3.9074,-3.7459,-3.5826,-3.4156,-3.399,-3.4412,-3.5224,-3.6083,-3.7367,-3.9549,-4.0579,-4.2214,-4.5443,-4.7297,-4.9444,-5.2491,-5.4051,-5.5519,-5.7134,-5.7523,-5.7774,-5.7973,0.0,0.0,0.0,-5.4499,-5.3734,-5.3501,-5.3501,-5.3501,-5.3501,-5.3501,-5.3501,-5.3501,-5.3501,-5.3501,-5.3501,-5.3501,-5.3501,-5.3501,0.0,0.0,0.0,-5.3247,-5.2689,-5.1911,-5.1166,-5.0036,-4.8614,-4.7147,-4.6189,-4.5431,0.0,0.0,0.0,0.0,0.0,-2.2296,-2.2313,-2.2936,-2.341,-2.341,-2.4068,-2.4508,-2.4508,-2.3864,-2.3712,-2.4406,-2.3139,0.0,0.0,0.0,0.0,0.0,0.0,0.0,0.0,0.0,-2.412,-2.5576,-2.6319,-2.6302,-2.5592,-2.6336,-2.5895,-2.4457,0.0,0.0,0.0,0.0,0.0,0.0,0.0,0.0,-3.1213,0.0,0.0,0.0,0.0,0.0,0.0,0.0,0.0,0.0,0.0,-3.1953,-3.3096,-3.5605,-3.8028,-4.0249,-4.1882,-4.2892,-4.3515,-4.3515,-4.2286,-4.0673,-3.9074,-3.7459,-3.5826,-3.4156,-3.4417,-3.5261,-3.6138,-3.6942,-3.8025,-3.9641,-4.0579,-4.2214,-4.5443,-4.7297,-4.9224,-5.172,-5.2729,-5.3867,-5.5464,-5.6425,-5.7209,0.0,0.0,0.0,0.0,-5.4982,-5.4232,-5.3534,-5.3501,-5.3501,-5.3501,-5.3501,-5.3501,-5.3501,-5.3501,-5.3501,-5.3501,-5.3501,-5.3501,0.0,0.0,0.0,0.0,-5.2638,-5.1894,-5.115,-5.0388,-4.9644,-4.8877,-4.7933,-4.7589,-4.7306,0.0,0.0,0.0,0.0,0.0,0.0,-2.2296,-2.2499,-2.2835,-2.3325,-2.3596,-2.3949,-2.444,-2.4288,-2.4254,-2.4474,-2.3139,0.0,0.0,0.0,0.0,0.0,0.0,0.0,0.0,-2.3898,-2.488,-2.6353,-2.7097,-2.7621,-2.7909,-2.7604,-2.6928,-2.598,-2.5236,-2.4746,0.0,0.0,0.0,0.0,0.0,-3.0509,-3.0522,0.0,0.0,0.0,0.0,0.0,0.0,0.0,0.0,0.0,0.0,0.0,0.0,-3.3789,-3.6127,-3.8502,-3.9551,-4.0432,-4.091,-4.0359,-3.9845,-3.9038,-3.7422,-3.667,-3.5901,-3.4443,-3.4604,-3.5322,-3.6368,-3.7095,-3.8251,-4.0545,-4.148,-4.2716,-4.4956,-4.7031,-4.9224,-5.1701,-5.4638,-5.6675,0.0,0.0,-5.6989,0.0,0.0,0.0,0.0,-5.4726,-5.4264,-5.3534,-5.3501,-5.3501,-5.3501,-5.3501,-5.3501,-5.3501,-5.3501,-5.3501,-5.3501,-5.3501,0.0,0.0,0.0,0.0,0.0,-5.2418,-5.1572,-5.0422,-5.0185,-4.9644,-4.8892,-4.795,-4.7589,-4.734,0.0,0.0,0.0,0.0,0.0,0.0,-2.2296,-2.2296,-2.2448,-2.2919,-2.2987,-2.3274,-2.4,-2.4085,-2.4321,-2.488,-2.3816,0.0,0.0,0.0,0.0,0.0,0.0,0.0,-2.3797,-2.4254,-2.5354,-2.7114,-2.7892,-2.8501,-2.8993,-2.8772,-2.8111,-2.708,-2.6353,-2.5761,0.0,0.0,0.0,0.0,-3.0263,-3.0609,-3.0427,0.0,0.0,0.0,0.0,0.0,0.0,0.0,0.0,0.0,0.0,0.0,0.0,0.0,-3.4179,-3.6396,-3.7842,-3.8706,-3.9051,-3.8558,-3.8081,-3.7386,-3.6064,-3.5538,-3.4992,-3.3849,-3.4312,-3.5126,-3.5855,-3.6758,-3.8016,-3.9906,-4.0981,-4.2159,-4.3965,-4.6318,-4.8899,-5.1672,-5.4757,0.0,0.0,-5.6685,0.0,0.0,0.0,0.0,0.0,-5.4589,-5.4264,-5.3534,-5.3501,-5.3501,-5.3501,-5.3501,-5.3501,-5.3501,-5.3501,-5.3501,-5.3501,-5.3501,0.0,0.0,0.0,0.0,0.0,-5.1572,-5.093,-5.005,-4.9779,-4.9407,-4.894,-4.8338,-4.8129,-4.7901,0.0,0.0,0.0,0.0,0.0,0.0,0.0,-2.2296,-2.2296,-2.2296,-2.2296,-2.2564,-2.3241,-2.341,-2.4036,-2.5406,-2.4983,0.0,0.0,0.0,0.0,0.0,0.0,0.0,-2.4541,-2.4626,-2.5726,-2.7891,-2.8738,-2.9179,-2.9247,-2.9939,-2.943,-2.7925,-2.7199,-2.6793,0.0,0.0,0.0,0.0,-2.9544,-3.0159,0.0,0.0,0.0,0.0,0.0,0.0,0.0,0.0,0.0,0.0,0.0,0.0,0.0,0.0,0.0,0.0,0.0,-3.741,-3.7675,-3.7621,-3.6754,-3.5705,-3.4924,-3.4197,0.0,-3.2697,-3.3757,-3.4818,-3.4907,-3.6198,-3.7543,-3.8349,-3.9561,-4.1022,-4.2762,-4.5588,-4.8627,-5.173,-5.3578,0.0,-5.5542,-5.5622,0.0,0.0,0.0,0.0,0.0,-5.4513,-5.4218,-5.3534,-5.3501,-5.3501,-5.3501,-5.3501,-5.3501,-5.3501,-5.3501,-5.3467,-5.3416,-5.3416,0.0,0.0,0.0,0.0,0.0,-5.0371,-5.005,-4.9949,-4.9272,-4.9001,-4.9001,-4.9001,-4.9001,-4.8861,0.0,0.0,0.0,0.0,0.0,0.0,0.0,0.0,0.0,0.0,-2.2296,-2.2364,-2.2533,-2.3577,-2.4372,0.0,0.0,0.0,0.0,0.0,0.0,0.0,0.0,0.0,-2.5321,-2.5879,-2.7029,-2.8722,-3.0042,-3.0973,-3.1532,-3.1701,-3.0987,-2.9533,-2.8807,-2.7808,0.0,0.0,0.0,0.0,-3.0891,-3.1174,0.0,0.0,0.0,0.0,-2.8443,-2.9233,0.0,0.0,0.0,0.0,0.0,0.0,0.0,0.0,-3.1951,-3.2459,-3.3409,0.0,-3.4564,-3.3943,-3.4018,-3.4056,0.0,-3.3401,-3.3528,-3.2999,-3.3916,-3.5064,-3.5876,-3.713,-3.8513,-4.0048,-4.0944,-4.2076,-4.3783,-4.7604,-5.0901,-5.2838,-5.4455,-5.5497,-5.5642,0.0,0.0,0.0,0.0,0.0,0.0,-5.375,-5.3668,-5.3501,-5.3501,-5.3501,-5.3501,-5.3501,-5.3501,-5.3501,-5.3501,-5.3179,-5.2587,-5.2587,0.0,0.0,0.0,0.0,-5.0338,-5.0168,-4.9763,-4.9238,-4.9069,-4.9001,-4.9001,-4.9001,-4.9001,-4.8861,0.0,0.0,0.0,0.0,0.0,0.0,0.0,0.0,0.0,0.0,-2.2296,-2.2296,-2.2296,-2.3613,-2.4491,0.0,0.0,0.0,0.0,0.0,0.0,0.0,0.0,-2.4846,-2.5576,-2.6319,-2.7604,-2.9499,-3.0294,-3.1427,-3.278,-3.2124,-3.136,-3.0548,-2.9093,-2.8082,0.0,0.0,0.0,-2.997,-3.0951,0.0,0.0,0.0,0.0,0.0,-2.7823,-2.8611,0.0,-2.9241,-3.0207,-3.1602,0.0,0.0,0.0,0.0,-3.1509,-3.1565,-3.1824,-3.2876,-3.3791,-3.3334,-3.3398,-3.3441,-3.3023,-3.2729,-3.2484,-3.2237,-3.3216,-3.4335,-3.4912,-3.6443,-3.8031,-3.9311,-4.0596,-4.2474,-4.5442,-4.8328,-5.0954,-5.3164,-5.4484,-5.532,0.0,0.0,0.0,0.0,0.0,0.0,0.0,-5.3501,-5.3501,-5.3501,-5.3501,-5.3501,-5.3501,-5.3501,-5.3501,-5.3501,-5.3129,-5.2723,-5.2283,-5.1961,-5.1403,0.0,0.0,0.0,-4.9593,-4.9593,-4.9357,-4.9001,-4.9001,-4.9001,-4.9001,-4.9001,-4.9001,-4.894,0.0,0.0,0.0,0.0,0.0,0.0,0.0,0.0,0.0,0.0,0.0,0.0,0.0,0.0,0.0,0.0,0.0,0.0,0.0,0.0,0.0,0.0,-2.4897,-2.5169,-2.5914,-2.6674,-2.8044,-3.0108,-3.0446,-3.1562,-3.3389,-3.2239,-3.1461,-3.0937,-2.8889,-2.81,0.0,0.0,-2.9558,-3.0192,-3.0369,0.0,0.0,0.0,0.0,0.0,0.0,0.0,0.0,-2.8785,-2.9536,-3.0627,-3.0819,0.0,0.0,0.0,0.0,0.0,-3.1461,-3.2901,-3.4246,-3.3901,-3.3704,-3.3541,-3.344,-3.2425,-3.1529,-3.1529,-3.2611,-3.3643,-3.388,-3.5588,-3.7263,-3.8261,-4.0165,-4.2913,-4.6773,-4.8294,-5.0025,-5.2822,-5.3798,0.0,0.0,0.0,0.0,0.0,0.0,0.0,0.0,-5.3162,-5.3162,-5.3162,-5.3162,-5.3162,-5.3162,-5.3382,-5.345,-5.3315,-5.2638,-5.2181,-5.1944,-5.1336,-5.0642,0.0,0.0,0.0,-4.9001,-4.9001,-4.9001,-4.9001,-4.9001,-4.9001,-4.9001,-4.9001,-4.8934,-4.8801,0.0,0.0,0.0,0.0,0.0,0.0,0.0,0.0,0.0,0.0,0.0,0.0,0.0,0.0,0.0,0.0,0.0,0.0,0.0,0.0,0.0,-2.7283,-2.6691,-2.6708,-2.7452,-2.823,-2.911,-3.0108,-3.1985,-3.3085,-3.3406,-3.3812,-3.2662,-3.0243,-2.9245,-2.8469,-2.7979,-2.9348,-2.9997,-3.0096,-2.9799,0.0,0.0,0.0,0.0,0.0,0.0,0.0,0.0,-2.7267,-2.8453,-3.0083,-2.9519,0.0,0.0,0.0,0.0,0.0,-3.273,-3.4193,-3.4919,-3.3039,-3.3452,-3.4167,-3.3541,-3.3237,-3.3068,-3.3068,-3.3744,-3.4726,-3.6051,-3.706,-3.8379,-4.0375,-4.2596,-4.45,0.0,0.0,-4.9656,-5.1327,0.0,0.0,0.0,0.0,0.0,0.0,0.0,0.0,0.0,-5.154,-5.154,-5.154,-5.154,-5.154,-5.154,-5.2858,-5.3162,-5.2486,-5.2367,-5.164,-5.0422,-5.0321,-4.9864,0.0,0.0,-4.9103,-4.9001,-4.9001,-4.9001,-4.9001,-4.9001,-4.9001,-4.9001,-4.9001,-4.8612,-4.7865,0.0,0.0,0.0,0.0,0.0,0.0,0.0,0.0,0.0,0.0,0.0,0.0,0.0,0.0,0.0,0.0,0.0,0.0,0.0,0.0,-2.7029,-2.7773,-2.7469,-2.7452,-2.779,-2.9364,-3.055,-3.1275,-3.2713,-3.3812,-3.4568,-3.4117,-3.2544,-3.0091,-2.9753,-2.9397,-2.9092,-2.9785,-3.0462,-3.0962,0.0,0.0,0.0,0.0,0.0,0.0,0.0,0.0,0.0,0.0,-2.8281,-2.9516,-2.9583,0.0,0.0,0.0,0.0,0.0,-3.1444,-3.2979,-3.4269,-3.3626,-3.4912,-3.6248,-3.591,-3.5199,-3.4585,-3.4585,-3.5199,-3.5966,-3.6677,-3.7719,-3.9343,-4.1965,-4.3623,-4.5128,-4.6684,-4.8122,-4.9407,0.0,0.0,0.0,0.0,0.0,0.0,0.0,0.0,0.0,0.0,0.0,-5.1185,-5.1185,-5.1185,-5.1185,-5.1185,-5.1911,-5.208,-5.1708,-5.1302,-5.076,-5.0084,-4.9678,-4.9323,-4.9001,0.0,-4.9001,-4.9001,-4.9001,-4.9001,-4.9001,-4.9001,-4.9001,-4.8951,-4.8562,-4.7953,-4.72,0.0,0.0,0.0,0.0,0.0,0.0,0.0,0.0,0.0,0.0,0.0,0.0,0.0,0.0,0.0,0.0,0.0,0.0,0.0,-2.6962,-2.73,-2.8043,-2.8246,-2.8415,-2.8584,-3.0311,-3.1667,-3.2564,-3.3305,-3.415,-3.5059,-3.3761,-3.2053,-3.0125,-3.0294,-3.026,-3.0106,-3.0294,-3.0861,-3.1591,0.0,0.0,0.0,0.0,0.0,0.0,0.0,0.0,0.0,0.0,0.0,0.0,0.0,0.0,0.0,-3.048,-3.0243,-3.0207,-3.0734,-3.1985,-3.3406,-3.4489,-3.6079,-3.7516,-3.8041,-3.6992,-3.5971,-3.6332,-3.6891,-3.732,-3.732,-3.8674,-4.051,-4.2794,-4.4248,-4.5703,-4.7411,-4.8443,-4.9272,0.0,0.0,0.0,0.0,0.0,0.0,0.0,0.0,0.0,0.0,0.0,-5.0661,-5.0661,-5.0661,-5.0661,-5.0661,-5.0661,-5.0777,-5.0947,-5.0371,-4.9999,-4.9813,-4.9255,-4.9001,-4.9001,-4.9001,-4.89,-4.8748,-4.8748,-4.8646,-4.8477,-4.8477,-4.8477,-4.8409,-4.7665,-4.7039,-4.6486,0.0,0.0,0.0,0.0,0.0,0.0,0.0,0.0,0.0,0.0,0.0,0.0,0.0,0.0,0.0,0.0,0.0,0.0,0.0,-2.7722,-2.8095,-2.8891,-2.9567,-3.026,-3.0937,-3.1106,-3.1901,-3.3322,-3.4066,-3.4117,-3.3541,-3.275,-3.1546,-3.0123,-3.0818,-3.0734,-3.0142,-3.0835,-3.1159,-3.1181,-3.0434,0.0,0.0,0.0,0.0,0.0,0.0,0.0,0.0,0.0,0.0,0.0,0.0,0.0,-3.0311,-3.0937,-3.0632,-3.0565,-3.2611,-3.278,-3.2865,-3.4974,-3.5633,-3.6309,-3.8447,-3.7794,-3.7117,-3.8464,-3.8802,-3.8836,-3.8836,-4.0595,-4.2117,-4.2337,-4.4773,-4.6684,-4.6853,0.0,0.0,0.0,0.0,0.0,0.0,0.0,0.0,0.0,0.0,0.0,0.0,0.0,0.0,-4.9171,-4.9171,-4.9171,-4.9171,-4.9171,-4.9509,-5.0168,-5.0118,-4.9729,-4.9086,-4.9018,-4.9001,-4.9001,-4.9001,-4.8612,-4.7973,-4.7973,-4.7581,-4.6955,-4.6955,-4.6955,-4.6853,-4.6126,-4.5821,-4.5554,0.0,0.0,0.0,0.0,0.0,0.0,0.0,0.0,0.0,0.0,0.0,0.0,0.0,0.0,0.0,0.0,0.0,0.0,0.0,-2.686,-2.7469,-2.823,-2.8517,-2.9244,-3.0497,-3.1867,-3.3068,-3.4083,-3.4353,-3.4117,-3.3389,-3.2666,-3.2005,-3.1464,-3.1275,-3.1055,-3.0801,-3.1072,-3.119,-3.1173,-3.0903,-3.0057,0.0,0.0,0.0,0.0,0.0,0.0,0.0,0.0,-2.7418,-2.7908,-2.8483,-2.9328,-3.0074,-2.9871,-2.9636,-2.9583,-3.0448,-3.1464,-3.2615,-3.3914,-3.5301,-3.6806,-3.8582,-3.892,-3.9276,-4.0747,-4.1035,-4.0899,-4.0443,-4.1424,-4.2439,-4.2912,-4.4756,-4.6447,-4.7361,0.0,0.0,0.0,0.0,0.0,0.0,0.0,0.0,0.0,0.0,0.0,0.0,0.0,0.0,-4.9001,-4.9001,-4.9001,-4.9001,-4.9001,-4.9137,-4.9424,-4.9424,-4.9272,-4.9001,-4.9001,-4.8748,-4.8342,-4.8342,-4.7902,-4.7225,-4.7225,-4.7056,-4.6786,-4.6786,-4.6515,-4.6075,-4.5805,-4.5415,-4.493,0.0,0.0,0.0,0.0,0.0,0.0,0.0,0.0,0.0,0.0,0.0,0.0,0.0,0.0,0.0,0.0,0.0,0.0,-2.5236,-2.615,-2.6928,-2.7418,-2.7908,-2.877,-3.0074,-3.1816,-3.3068,-3.3816,-3.3816,-3.3541,-3.3034,-3.231,-3.209,-3.2276,-3.1532,-3.1326,-3.1532,-3.1292,-3.119,-3.119,-3.119,-3.0446,0.0,0.0,0.0,0.0,0.0,0.0,0.0,0.0,-2.7232,-2.7536,-2.8044,-2.872,-2.9311,-2.9077,-2.9162,-2.9416,-2.9636,-3.0973,-3.253,-3.3508,-3.5098,-3.6924,-3.8911,-3.9749,-4.0502,-4.1999,-4.21,-4.1863,-4.1593,-4.1948,-4.254,0.0,-4.4705,-4.6058,0.0,0.0,0.0,0.0,0.0,0.0,0.0,0.0,0.0,0.0,0.0,0.0,0.0,0.0,0.0,0.0,-4.8308,-4.8308,-4.8308,-4.8308,-4.8308,-4.8308,-4.8308,-4.8545,-4.9001,-4.8765,-4.8392,-4.7872,-4.7665,-4.7141,-4.6447,-4.6447,-4.6312,-4.6092,-4.6092,-4.5788,-4.5348,-4.5348,-4.5026,-4.4542,0.0,0.0,0.0,0.0,0.0,0.0,0.0,0.0,0.0,0.0,0.0,0.0,0.0,0.0,0.0,0.0,0.0,0.0,-2.444,-2.5862,-2.6674,-2.6691,-2.8147,-2.9314,-3.0057,-3.0801,-3.1565,-3.2293,-3.2293,-3.2293,-3.2276,-3.1565,-3.1616,-3.2259,-3.1532,-3.1616,-3.2226,-3.1515,-3.119,-3.119,-3.119,-3.0751,-3.0023,0.0,0.0,0.0,0.0,0.0,0.0,0.0,-2.73,-2.6979,-2.8502,-2.845,-2.7976,-2.8773,-2.9516,-3.0277,-3.097,-3.1735,-3.2666,-3.4117,-3.5081,-3.6434,-3.9436,-4.0104,-4.0519,-4.2016,-4.1728,-4.1441,-4.2168,-4.2303,-4.254,-4.3274,-4.4705,-4.5703,0.0,0.0,0.0,0.0,0.0,0.0,0.0,0.0,0.0,0.0,0.0,0.0,0.0,0.0,0.0,0.0,-4.6786,-4.6786,-4.6786,-4.6786,-4.6786,-4.6786,-4.6786,-4.7564,-4.8951,-4.824,-4.7872,-4.7821,-4.7107,-4.6363,-4.5703,-4.5703,-4.5263,-4.4615,-4.4615,-4.4615,-4.4615,-4.4615,-4.4615,-4.4485,0.0,0.0,0.0,0.0,0.0,0.0,0.0,0.0,0.0,0.0,0.0,0.0,0.0,0.0,0.0,0.0,0.0,0.0,-2.3712,-2.4626,-2.5388,-2.5896,-2.637,-2.6945,-2.7689,-2.8993,-3.0516,-3.2293,-3.2293,-3.2293,-3.2293,-3.209,-3.1819,-3.1529,-3.1853,-3.1227,-3.0008,-3.0294,-3.0429,-3.0429,-3.0429,-3.0311,-3.0023,0.0,0.0,0.0,0.0,0.0,0.0,0.0,0.0,0.0,-2.725,-2.8315,-2.9244,-2.8398,-2.9448,-3.07,-2.9873,-3.1326,-3.3169,-3.3626,-3.5876,-3.8362,-3.9791,-4.0493,-4.1457,-4.3515,-4.3284,-4.2801,-4.3047,-4.3081,0.0,-4.3358,-4.4265,0.0,0.0,0.0,0.0,0.0,0.0,0.0,0.0,0.0,0.0,0.0,0.0,0.0,0.0,0.0,0.0,0.0,-4.6786,-4.6786,-4.6786,-4.6786,-4.6786,-4.6786,-4.6786,-4.7022,-4.7445,-4.7225,-4.6836,-4.6346,-4.6126,-4.5602,-4.4925,-4.4925,-4.4818,-4.4615,-4.4615,-4.4615,-4.4615,-4.4615,-4.4615,-4.457,0.0,0.0,0.0,0.0,0.0,0.0,0.0,0.0,0.0,0.0,-2.2936,-2.3393,0.0,0.0,0.0,0.0,0.0,0.0,0.0,-2.3932,-2.4694,-2.5135,-2.5727,-2.6387,-2.7131,-2.8367,-2.9653,-3.099,-3.1295,-3.143,-3.143,-3.143,-3.1515,-3.165,-3.1802,-3.1125,-2.989,-3.004,-3.0108,-3.0108,-3.0108,-3.0108,-3.0023,0.0,0.0,0.0,0.0,0.0,0.0,0.0,0.0,0.0,-2.6691,-2.7638,-2.8687,-2.8383,-2.9668,-3.119,-3.1193,-3.2916,-3.4895,-3.547,-3.733,-3.9259,-4.029,-4.1322,-4.2472,-4.3842,-4.3741,-4.3392,-4.3392,-4.3392,0.0,-4.3826,0.0,0.0,0.0,0.0,0.0,0.0,0.0,0.0,0.0,0.0,0.0,0.0,0.0,0.0,0.0,0.0,0.0,0.0,-4.5935,-4.5935,-4.5935,-4.5935,-4.5935,-4.5935,-4.5935,-4.5935,-4.5952,-4.6227,-4.6126,-4.5686,-4.5382,-4.4993,-4.4615,-4.4615,-4.4615,-4.4615,-4.4615,-4.4615,-4.4615,-4.4615,-4.4615,-4.4615,0.0,0.0,-2.2615,-2.3274,0.0,0.0,0.0,0.0,0.0,-2.2398,-2.2987,-2.3393,0.0,0.0,0.0,-2.3291,-2.2699,-2.2296,0.0,-2.3613,-2.4423,-2.4491,-2.598,-2.7148,-2.7891,-2.8619,-2.8959,-2.8891,-2.9634,-3.0021,-3.0108,-3.0176,-3.0886,-3.2073,-3.1461,-3.1072,-3.0852,-3.0176,-2.9886,-2.9886,-2.9886,-2.9939,-2.9922,-2.9111,0.0,0.0,0.0,0.0,0.0,0.0,0.0,0.0,-2.6691,-2.6809,-2.7165,-2.8417,-2.9991,-3.1715,-3.366,-3.5424,-3.7049,-3.8531,-3.9039,-3.9546,-4.0899,-4.2303,-4.3291,-4.3291,-4.3291,-4.3308,-4.3375,-4.3392,-4.3673,-4.4479,0.0,0.0,0.0,0.0,0.0,0.0,0.0,0.0,0.0,0.0,0.0,0.0,0.0,0.0,0.0,0.0,0.0,0.0,-4.4615,-4.4615,-4.4615,-4.4615,-4.4615,0.0,-4.4615,-4.4615,-4.4632,-4.528,-4.5602,-4.5568,-4.4874,-4.4615,-4.4615,-4.4615,-4.4615,-4.4598,-4.453,-4.4496,-4.4496,-4.4496,-4.4496,-4.4513,0.0,0.0,-2.3207,-2.3359,0.0,0.0,0.0,0.0,-2.3156,-2.3156,-2.3291,-2.3393,-2.3393,-2.2885,0.0,-2.2533,-2.2381,-2.2296,-2.2296,-2.3139,-2.3898,-2.4474,-2.6471,-2.7943,-2.8722,-2.8908,-2.8687,-2.806,-2.8839,-2.9533,-3.0106,-3.0683,-3.0818,-3.0598,-3.1004,-3.0209,-2.8517,-2.8365,-2.8297,-2.8297,-2.8297,-2.867,-2.9094,-2.7723,-2.7452,0.0,0.0,0.0,0.0,0.0,0.0,0.0,-2.6691,-2.7537,-2.8333,-2.7435,-2.9517,-3.2039,-3.1935,-3.3846,-3.6208,-3.7753,-3.9445,-4.0815,-4.1136,-4.1897,-4.254,-4.254,-4.254,-4.2709,-4.3274,-4.3392,-4.3673,0.0,0.0,0.0,0.0,0.0,0.0,0.0,0.0,0.0,0.0,0.0,0.0,0.0,0.0,0.0,0.0,0.0,0.0,-4.4615,-4.4615,-4.4615,-4.4615,-4.4615,-4.4615,0.0,-4.4615,-4.4615,-4.4615,-4.4767,-4.4852,-4.4835,-4.4682,-4.4615,-4.4615,-4.4615,-4.4615,-4.4547,-4.391,-4.3673,-4.3673,-4.3673,-4.3673,-4.3758,0.0,0.0,0.0,0.0,0.0,0.0,0.0,0.0,-2.4205,-2.3477,-2.3393,-2.3393,-2.3393,-2.275,0.0,0.0,-2.2296,-2.2296,-2.2296,-2.3325,-2.4423,-2.5506,-2.6995,-2.7824,-2.791,-2.823,-2.8044,-2.7283,-2.7689,-2.8467,-2.96,-3.0683,-3.1173,-3.114,-3.119,-3.0142,-2.8332,-2.7588,-2.7283,-2.7283,-2.7283,-2.752,-2.7808,-2.7013,-2.6725,-2.664,-2.5896,0.0,0.0,0.0,0.0,0.0,0.0,0.0,-2.7893,-2.7825,-2.945,-3.1461,-3.2493,-3.4438,-3.662,-3.8481,-3.9817,-4.0663,-4.0663,-4.0967,-4.1264,-4.1264,-4.1796,-4.2303,-4.2354,-4.2902,-4.3527,0.0,0.0,0.0,0.0,0.0,0.0,0.0,0.0,0.0,0.0,0.0,0.0,0.0,0.0,0.0,0.0,-4.4028,-4.4198,-4.4598,-4.4215,-4.4028,-4.4028,-4.4028,-4.3842,-4.3515,-4.3859,-4.3842,-4.3532,-4.4276,-4.4395,-4.4028,-4.4028,-4.3826,-4.3515,-4.3515,-4.3515,-4.3481,-4.3047,-4.2878,-4.2878,-4.2878,-4.2878,-4.2929,0.0,0.0,0.0,0.0,0.0,0.0,0.0,0.0,0.0,-2.3748,-2.3594,-2.3594,-2.3594,-2.2818,-2.2296,0.0,0.0,0.0,-2.2296,-2.3678,-2.5168,-2.664,-2.7401,-2.7503,-2.6894,-2.735,-2.73,-2.6691,-2.6691,-2.7622,-2.9399,-3.0497,-3.1461,-3.2259,-3.1393,-3.0176,-2.8705,-2.7148,-2.6437,-2.6319,-2.6319,-2.6319,-2.6319,-2.6167,-2.5828,-2.5389,-2.527,-2.5778,-2.6505,-2.6505,0.0,0.0,0.0,0.0,-2.6928,-2.8079,-2.911,-3.0412,-3.2713,-3.4928,-3.7134,-3.9351,-4.0011,-4.0096,-4.0096,-4.0096,-4.0096,-4.0096,-4.1077,-4.1762,-4.1288,-4.2219,0.0,0.0,0.0,0.0,0.0,0.0,0.0,0.0,0.0,0.0,0.0,0.0,0.0,0.0,0.0,0.0,-4.32,-4.3189,-4.3521,-4.4192,-4.3555,-4.3189,-4.3189,-4.3189,-4.2912,-4.2303,-4.2929,-4.2895,-4.2337,-4.3633,-4.3826,-4.3189,-4.3189,-4.2861,-4.2286,-4.2286,-4.2286,-4.2286,-4.2151,-4.21,-4.21,-4.21,-4.21,-4.2117,0.0,0.0,0.0,0.0,0.0,0.0,0.0,0.0,0.0,0.0,-2.4355,-2.4355,-2.4355,-2.3122,-2.2296,-2.2296,-2.2296,-2.2296,-2.2296,0.0,0.0,-2.664,-2.7401,-2.7756,-2.7655,-2.7131,-2.6793,-2.6691,-2.6691,-2.8129,-3.0886,-3.0446,-3.097,-3.2242,-3.0869,-2.9396,-2.7858,-2.637,-2.5372,-2.4795,-2.4795,-2.4795,-2.4728,-2.4069,-2.4186,-2.4558,-2.3917,-2.4577,-2.5761,-2.5761,-2.6167,0.0,0.0,0.0,-2.6607,-2.6184,-2.752,-2.9076,-2.877,-3.2151,-3.6293,-3.8582,-3.9639,-4.0096,-4.0096,-4.0096,-4.0096,-4.0096,-4.0265,-4.057,-4.1102,0.0,0.0,0.0,0.0,0.0,0.0,0.0,0.0,0.0,0.0,0.0,0.0,0.0,0.0,0.0,0.0,0.0,-4.2439,-4.2439,-4.2489,-4.2591,-4.2489,-4.2439,-4.2439,-4.2439,-4.2388,-4.2286,-4.2388,-4.2388,-4.2303,-4.2506,-4.254,-4.2439,-4.2439,-4.2388,-4.2286,-4.2286,-4.2286,-4.2236,-4.1593,-4.1356,-4.1356,-4.1356,-4.1356,-4.1441,0.0,0.0,0.0,0.0,0.0,0.0,0.0,0.0,0.0,0.0,0.0,-2.4491,-2.4491,-2.3545,-2.275,-2.233,-2.2296,-2.2482,-2.2885,-2.3511,0.0,-2.5422,-2.6167,-2.637,-2.5964,-2.6031,-2.6082,-2.6082,-2.5675,-2.7656,-3.1802,-3.1055,-3.2171,-3.4747,-3.2814,-3.1123,-2.9533,-2.6776,-2.5169,-2.4457,-2.4051,-2.4864,-2.6133,-2.4154,-2.4628,-2.6099,-2.4103,-2.4069,-2.505,-2.5456,-2.5828,-2.6082,-2.6082,0.0,0.0,0.0,-2.5981,-2.7571,-2.9736,-3.2611,-3.5639,-3.8328,-3.9225,-3.9605,-4.0011,-4.0096,-4.0096,-4.0096,-4.0096,-4.0197,0.0,0.0,0.0,0.0,0.0,0.0,0.0,0.0,0.0,0.0,0.0,0.0,0.0,0.0,0.0,0.0,0.0,-4.1238,-4.166,-4.1677,-4.1863,-4.2286,-4.1897,-4.1677,-4.1677,-4.1677,-4.1677,-4.1677,-4.1255,-4.1077,-4.1077,-4.1077,-4.1288,-4.1677,-4.1677,-4.1441,-4.1077,-4.1077,-4.1077,-4.1044,-4.0696,-4.0578,-4.0578,-4.0578,-4.0578,-4.0612,0.0,0.0,0.0,0.0,0.0,0.0,0.0,0.0,0.0,0.0,0.0,-2.422,-2.422,0.0,0.0,0.0,-2.2296,-2.2533,-2.3088,0.0,0.0,0.0,-2.4932,-2.4983,-2.4237,-2.4763,-2.505,-2.505,-2.4677,-2.7182,-3.2293,-3.1938,-3.3846,-3.754,-3.5064,-3.2831,-3.0717,-2.7723,-2.6031,-2.5303,-2.4746,-2.5829,-2.7621,-2.5998,-2.6759,-2.8297,-2.5524,-2.5,-2.5642,-2.5609,-2.5592,-2.5592,-2.5592,-2.5473,0.0,0.0,0.0,-2.571,-2.9989,-3.2124,-3.3884,-3.706,-3.8294,-3.8903,-3.9656,-3.9977,-4.0096,0.0,-4.0096,-4.0096,0.0,0.0,0.0,0.0,0.0,0.0,0.0,0.0,0.0,0.0,0.0,0.0,0.0,0.0,0.0,0.0,0.0,-4.035,-4.0882,-4.0916,-4.117,-4.1711,-4.1204,-4.0916,-4.0916,-4.0916,-4.0916,-4.0916,-4.0367,-4.0096,-4.0096,-4.0096,-4.0417,-4.0916,-4.0916,-4.0595,-4.0096,-4.0096,-4.0096,-4.0096,-4.0096,-4.0096,-4.0096,-4.0096,-4.0096,-4.0096,0.0,0.0,0.0,0.0,0.0,0.0,0.0,0.0,0.0,0.0,0.0,-2.346,-2.346,-2.2801,-2.233,-2.2296,-2.2296,-2.2313,-2.2347,0.0,0.0,0.0,0.0,0.0,-2.346,-2.3494,-2.3511,-2.3511,-2.4186,-2.7182,-3.231,-3.2983,-3.5656,-3.9808,-3.6823,-3.3503,-3.0108,-2.9194,-2.8366,-2.7621,-2.7587,-2.7672,-2.8027,-3.0023,-3.0886,-3.0717,-2.8398,-2.8095,-2.8434,-2.6319,-2.5592,-2.5592,-2.5592,-2.5118,-2.4406,0.0,0.0,0.0,-2.7012,-2.8653,-3.0161,-3.3833,-3.6366,-3.8159,-3.8886,-3.9605,-4.0096,-4.0096,-4.0096,0.0,0.0,0.0,0.0,0.0,0.0,0.0,0.0,0.0,0.0,0.0,0.0,0.0,0.0,0.0,0.0,0.0,0.0,-4.013,-4.0163,-4.0163,-4.018,-4.0214,-4.018,-4.0163,-4.0163,-4.0163,-4.0163,-4.0163,-4.013,-4.0096,-4.0096,-4.0096,-4.013,-4.0163,-4.0163,-4.0146,-4.0096,-4.0096,-4.0096,-4.0096,-4.0096,-4.0096,-4.0096,-4.0096,-4.0096,-4.0096,0.0,0.0,0.0,0.0,0.0,0.0,0.0,0.0,0.0,0.0,0.0,0.0,0.0,-2.3156,-2.2818,-2.233,-2.2296,0.0,0.0,0.0,0.0,0.0,0.0,0.0,-2.2716,-2.3156,-2.3393,-2.3393,-2.319,-2.5507,-3.0194,-3.0448,-3.1935,-3.4404,-3.525,-3.4873,-3.3419,-3.033,-2.884,-2.8569,-2.8569,-2.9702,-3.1343,-3.0734,-3.1968,-3.3605,-3.041,-2.9161,-2.8874,-2.8062,-2.7114,-2.6133,-2.5186,-2.4711,-2.4254,-2.3054,-2.3173,-2.4086,-2.5897,-2.7672,-2.9551,-3.1816,-3.4066,-3.591,-3.6654,-3.8142,-3.9402,-3.9402,-3.9774,0.0,0.0,0.0,0.0,0.0,0.0,0.0,0.0,0.0,0.0,0.0,0.0,0.0,0.0,0.0,0.0,0.0,0.0,0.0,-4.0096,-4.0096,-4.0096,-4.0096,-4.0096,-4.0096,-4.0096,-4.0096,-4.0096,-4.0096,-4.0096,-4.0096,-4.0096,-4.0096,-4.0096,-4.0096,-4.0096,-4.0096,-4.0096,-4.0096,-4.0096,-4.0096,-4.0096,-4.0096,-4.0096,-4.0096,-4.0096,-4.0096,0.0,0.0,0.0,-2.6691,0.0,-2.4491,-2.4491,-2.3241,-2.2564,-2.3291,0.0,0.0,0.0,0.0,-2.3105,-2.2364,-2.2296,-2.2296,-2.2296,-2.2296,0.0,0.0,0.0,0.0,-2.2313,-2.2784,-2.3038,-2.3038,-2.2801,-2.4577,-2.8231,-2.8485,-2.9651,-3.1633,-3.2848,-3.3812,-3.432,-3.1613,-3.033,-3.0144,-3.0651,-3.1867,-3.3406,-3.344,-3.4827,-3.6366,-3.3406,-3.2019,-3.1464,-3.0448,-2.8942,-2.7216,-2.5709,-2.4558,-2.3577,-2.2584,-2.3173,-2.4237,-2.4729,-2.6319,-2.835,-3.0328,-3.1935,-3.3474,-3.5194,-3.6772,-3.7939,-3.8193,-3.9063,0.0,0.0,0.0,0.0,0.0,0.0,0.0,0.0,0.0,0.0,0.0,0.0,0.0,0.0,0.0,0.0,0.0,0.0,0.0,-4.0096,-4.0096,-4.0096,-4.0096,-4.0096,-4.0096,-4.0096,-4.0096,-4.0096,-4.0096,-4.0096,-4.0096,-4.0096,-4.0096,-4.0096,-4.0096,-4.0096,-4.0096,-4.0096,-4.0096,-4.0096,-4.0096,-4.0096,-4.0096,-4.0096,-4.0096,-4.0096,-4.0096,-2.7533,-2.7199,-2.6691,-2.6691,-2.5506,-2.4525,-2.4525,-2.3291,-2.2617,-2.3342,0.0,0.0,0.0,0.0,0.0,-2.2381,-2.233,-2.2313,-2.2296,-2.2296,-2.2296,-2.2296,-2.2296,-2.2296,-2.2296,-2.2296,-2.2296,-2.2296,-2.3021,-2.4475,-2.6607,-2.735,-2.9279,-3.2005,-2.9907,-3.0144,-3.2192,-3.2899,-3.2848,-3.2412,-3.385,-3.4032,-3.3981,-3.8352,-3.9605,-3.8836,-3.7405,-3.6846,-3.6389,-3.3427,-3.0956,-2.8807,-2.7182,-2.4678,-2.233,-2.2296,-2.2835,-2.341,0.0,0.0,0.0,-2.9176,-2.9956,-3.0934,-3.4551,-3.5414,-3.5723,-3.6558,-3.7872,0.0,0.0,0.0,0.0,0.0,0.0,0.0,0.0,0.0,0.0,0.0,0.0,0.0,0.0,0.0,0.0,0.0,0.0,-4.0096,-4.0096,-4.0096,-4.0096,-4.0096,-4.0096,-4.0096,-4.0096,-4.0096,-4.0096,-4.0096,-4.0096,-4.0096,-4.0096,-4.0096,-4.0096,-4.0096,-4.0096,-4.0096,-4.0096,-4.0096,-4.0096,-4.0096,-4.0096,-4.0096,-4.0096,-4.0096,-4.0096,-4.0096,-2.6945,-2.6843,-2.6691,-2.6691,-2.5913,-2.5304,-2.5304,-2.4492,-2.3966,0.0,0.0,0.0,-2.346,-2.3393,-2.3325,-2.3105,-2.3105,-2.2868,-2.233,-2.2296,-2.2296,-2.2296,-2.2296,-2.2296,-2.2296,-2.2296,-2.2296,-2.2296,-2.2499,-2.319,-2.4323,-2.5067,-2.6133,-2.7469,-2.7943,-2.818,-2.8265,-2.8467,-2.9989,-3.2293,-3.2154,-3.3609,-3.6,-3.7252,-3.8589,-3.9673,-3.8742,-3.8041,-3.7381,-3.6034,-3.3698,-3.0753,-2.7063,-2.4611,-2.2987,-2.2448,-2.319,-2.3966,-2.2885,0.0,0.0,0.0,0.0,0.0,0.0,0.0,-3.2933,-3.4759,0.0,0.0,0.0,0.0,0.0,0.0,0.0,0.0,0.0,0.0,0.0,0.0,0.0,0.0,0.0,0.0,0.0,0.0,-4.0096,-4.0096,-4.0096,-4.0096,-4.0096,-4.0096,-4.0096,-4.0096,-4.0096,-4.0096,-4.0096,-4.0096,-4.0096,-4.0096,-4.0096,-4.0096,-4.0096,-4.0096,-4.0096,-4.0096,-4.0096,-4.0096,-4.0096,-4.0096,-4.0096,-4.0096,-4.0096,-4.0096,-4.0096,-4.0096,-2.6657,-2.6691,-2.6691,-2.6691,-2.6336,-2.6065,-2.6065,-2.5423,-2.5083,0.0,0.0,0.0,-2.4357,-2.4036,-2.3746,-2.3441,-2.3122,-2.2767,-2.233,-2.2296,-2.2296,-2.2296,-2.2296,-2.2296,-2.2296,-2.2296,-2.2296,-2.2296,-2.2296,-2.2516,-2.2953,-2.3376,-2.3968,-2.4712,-2.5254,-2.5609,-2.5743,-2.5118,-2.7199,-3.1058,-3.2459,-3.4167,-3.6017,-3.7591,-3.8792,-3.9639,-3.9503,-3.9174,-3.87,-3.798,-3.5306,-3.1616,-2.774,-2.5727,-2.456,-2.3528,-2.4255,-2.51,-2.3613,-2.4391,-2.5542,-2.5304,0.0,0.0,-2.8297,-2.9277,0.0,0.0,0.0,0.0,0.0,0.0,0.0,0.0,0.0,0.0,0.0,0.0,0.0,0.0,0.0,0.0,0.0,0.0,0.0,-4.0096,-4.0096,-3.9977,-3.9673,-3.9656,-3.9656,-3.9656,-3.9943,-4.0096,-4.0096,-4.0096,-4.0096,-4.0096,-4.0096,-4.0096,-4.0096,-4.0096,-4.0096,-4.0096,-4.0096,-4.0096,-4.0096,-4.0096,-4.0096,-4.0096,-4.0096,-4.0096,-4.0096,-4.0096,-4.0096,-4.0096,0.0,-2.6691,-2.6725,-2.681,-2.6826,-2.6843,-2.6928,-2.6319,-2.6116,0.0,-2.6302,-2.5896,-2.5981,-2.5252,-2.4474,-2.3816,-2.3021,-2.2513,-2.2431,-2.2361,-2.2296,-2.2296,-2.2296,-2.2296,-2.2296,-2.2296,-2.2296,-2.2296,-2.2296,-2.2296,-2.2296,-2.2296,-2.2649,-2.3241,-2.2584,-2.3038,-2.4186,-2.3122,-2.5067,-2.923,-3.3254,-3.4827,-3.5115,-3.8556,-3.9554,-3.9191,-3.9859,-4.0096,-3.9977,-3.914,-3.6186,-3.2259,-2.9142,-2.774,-2.6877,-2.5235,-2.5794,-2.664,-2.5151,-2.527,-2.6116,-2.7266,-2.6201,0.0,-2.8772,-2.8534,-2.8246,0.0,0.0,0.0,0.0,0.0,0.0,0.0,0.0,0.0,0.0,0.0,0.0,0.0,0.0,0.0,0.0,-3.991,-3.9893,-3.9977,-3.991,-3.9571,-3.8903,-3.887,-3.887,-3.887,-3.952,-3.9859,-3.9859,-3.9859,-3.9859,-3.9859,-3.9859,-3.9859,-3.9859,-3.9859,-3.991,-3.9977,-3.9977,-4.0028,-4.0096,-4.0096,-4.0096,-4.0096,-4.0096,-4.0096,-4.0096,-4.0096,-4.0096,-4.0096,-2.6506,-2.6691,-2.6894,-2.7486,-2.7587,-2.7807,-2.8451,-2.7875,-2.7638,-2.8451,-2.7858,-2.7621,-2.8282,-2.7114,-2.6217,-2.6065,-2.4846,-2.3831,-2.3224,-2.2632,-2.2296,-2.2296,-2.2296,-2.2296,-2.2296,-2.2296,-2.2296,-2.2296,-2.2296,-2.2296,-2.2296,-2.2296,-2.2381,-2.2513,-2.2364,-2.2448,-2.2835,-2.4308,-2.615,-2.8162,-2.9685,-3.2733,-3.6508,-3.7821,-3.8971,-3.991,-4.0045,-4.0096,-3.991,-3.8565,-3.7127,-3.5289,-3.1681,-3.0446,-2.9786,-2.7063,-2.7351,-2.8231,-2.6691,-2.681,-2.7148,-2.6252,-2.659,0.0,-2.5828,-2.6268,-2.7046,0.0,0.0,0.0,0.0,0.0,0.0,0.0,0.0,0.0,0.0,0.0,0.0,0.0,0.0,0.0,0.0,-3.8667,-3.8582,-3.9157,-3.8667,-3.8278,-3.8125,-3.8125,-3.8125,-3.8125,-3.8261,-3.8328,-3.8328,-3.8328,-3.8328,-3.8328,-3.8328,-3.8328,-3.8328,-3.8328,-3.865,-3.9208,-3.9208,-3.9554,-4.0096,-4.0096,-4.0096,-4.0096,-4.0096,-4.0096,-4.0096,-4.0096,-4.0096,-4.0096,-2.595,-2.6437,-2.6928,-2.7672,-2.8128,-2.8653,-2.9431,-2.9211,-2.9228,-2.9989,-2.9753,-2.9228,-2.8484,-2.7723,-2.6962,-2.6218,-2.5151,-2.4186,-2.3444,-2.3054,-2.2682,-2.2313,-2.2296,-2.2296,-2.2296,-2.2296,-2.2296,-2.2296,-2.2296,-2.2296,-2.2296,-2.2296,-2.2699,-2.3359,-2.2632,-2.2905,-2.397,-2.434,-2.5575,-2.7486,-3.0125,-3.3461,-3.6931,-3.8024,-3.9123,-4.0096,-4.0096,-4.0096,-3.9825,-3.7956,-3.684,-3.574,-3.3119,-3.2036,-3.1396,-2.9517,-2.9482,-2.9771,-2.8265,-2.8112,-2.8315,-2.7943,-2.7554,0.0,0.0,-2.6454,-2.6471,-2.7622,-2.752,-2.7723,0.0,0.0,0.0,0.0,0.0,0.0,0.0,0.0,0.0,0.0,0.0,0.0,0.0,-3.8125,-3.8058,-3.843,-3.777,-3.7347,-3.7347,-3.7347,-3.7347,-3.7347,-3.7719,-3.7905,-3.7905,-3.7905,-3.7905,-3.7905,-3.7905,-3.7905,-3.7905,-3.7905,-3.8108,-3.8464,-3.8836,-3.9191,-3.9588,-3.996,-4.0096,-4.0096,-4.0096,-4.0096,-4.0096,-4.0096,-4.0096,-4.0096,-2.5193,-2.5981,-2.6725,-2.7452,-2.8247,-2.9008,-2.977,-2.977,-2.9939,-3.0666,-3.1159,-3.07,-2.8855,-2.8534,-2.8094,-2.7182,-2.5896,-2.4948,-2.4525,-2.3917,-2.3342,-2.275,-2.2448,-2.2364,-2.2513,-2.2364,-2.2296,-2.2296,-2.2296,-2.2296,-2.2296,-2.2296,-2.3004,-2.4237,-2.3038,-2.3648,-2.5524,-2.4323,-2.527,-2.7875,-3.1529,-3.4083,-3.5915,-3.7669,-3.87,-3.9283,-3.9571,-3.969,-3.9385,-3.7455,-3.6366,-3.5554,-3.3914,-3.3186,-3.2716,-3.1529,-3.1393,-3.1292,-2.9822,-2.9534,-2.9687,-2.9854,-2.8822,-2.7893,0.0,0.0,0.0,-2.7842,0.0,0.0,0.0,0.0,0.0,0.0,0.0,0.0,0.0,0.0,0.0,0.0,0.0,0.0,0.0,-3.7127,-3.7161,-3.7449,-3.6637,-3.6288,-3.6535,-3.6575,-3.6575,-3.6575,-3.7144,-3.7466,-3.7466,-3.7466,-3.7466,-3.7466,-3.7466,-3.7466,-3.7466,-3.7466,-3.755,-3.7719,-3.8311,-3.865,-3.8819,-3.9436,-3.969,-3.9706,-3.9994,-4.0096,-4.0096,-4.0096,-4.0096,-4.0096,-2.4397,-2.522,-2.5964,-2.6691,-2.7452,-2.8196,-2.901,-2.8518,-2.8348,-2.9145,-3.0956,-3.209,-3.1819,-3.1207,-3.1275,-3.2425,-2.9379,-2.7689,-2.8333,-2.5862,-2.4338,-2.4254,-2.3004,-2.2615,-2.3257,-2.2632,-2.2296,-2.2296,-2.2296,-2.2296,-2.2296,-2.2296,-2.275,-2.3526,-2.3342,-2.4137,-2.5592,-2.5423,-2.7418,-3.0717,-3.1241,-3.1596,-3.2138,-3.4945,-3.6039,-3.6276,-3.7669,-3.8159,-3.8007,0.0,-3.6745,-3.6265,0.0,-3.4252,-3.4687,-3.1985,-3.2138,-3.2831,-3.1343,-3.143,0.0,0.0,-3.0398,0.0,0.0,0.0,-2.7063,-2.5354,0.0,0.0,0.0,0.0,0.0,0.0,0.0,0.0,0.0,0.0,0.0,0.0,0.0,0.0,0.0,0.0,-3.4433,-3.5752,-3.4573,-3.437,-3.5667,-3.5735,-3.5735,-3.5735,-3.5819,-3.5853,-3.5853,-3.5853,-3.5853,-3.5853,-3.5853,-3.5853,-3.5853,-3.5853,-3.6248,-3.6931,-3.7015,-3.7415,-3.8041,-3.8125,-3.8159,-3.8278,-3.9605,-4.0096,-4.0096,-4.0096,-4.0096,-4.0096,-2.3682,-2.4474,-2.5186,-2.593,-2.6319,-2.6928,-2.8129,-2.9499,-3.0531,-3.0871,-3.2087,-3.2933,-3.2933,-3.1901,-3.1613,-3.2662,-3.0937,-2.9364,-2.8383,-2.7131,-2.5828,-2.4558,-2.3509,-2.3088,-2.3393,-2.2682,-2.2296,-2.2296,-2.2296,-2.2296,-2.2296,-2.2296,-2.3156,-2.4661,-2.4237,-2.5592,-2.8111,-2.681,-2.7402,-2.9279,-2.9736,-2.9634,0.0,-3.4489,-3.6569,-3.7026,-3.7686,-3.7905,-3.7719,0.0,-3.5808,0.0,0.0,0.0,0.0,-3.322,-3.2933,-3.2527,0.0,0.0,0.0,0.0,0.0,0.0,-2.8095,0.0,-2.7029,0.0,0.0,0.0,0.0,0.0,0.0,0.0,0.0,0.0,0.0,0.0,0.0,0.0,0.0,0.0,0.0,0.0,0.0,0.0,0.0,-3.3406,-3.4878,-3.4962,-3.5165,-3.5583,-3.56,-3.56,-3.56,-3.56,-3.56,-3.56,-3.56,-3.56,-3.56,-3.56,-3.5769,-3.6129,-3.6609,-3.6981,-3.728,-3.7719,-3.7905,-3.7973,-3.8582,-3.8819,-3.8819,-3.8819,-3.8819,-3.887,-2.2987,-2.3695,-2.4372,-2.4898,-2.5338,-2.61,-2.757,-2.9854,-3.1532,-3.1955,-3.2814,-3.3558,-3.3964,-3.3051,-3.2865,-3.4037,-3.2882,-3.1495,-3.0038,-2.8804,-2.7503,-2.6099,-2.4541,-2.3814,-2.4002,-2.3088,-2.2499,-2.2296,-2.2296,-2.2296,-2.2296,-2.2296,-2.326,-2.5,-2.4847,-2.6657,-2.9702,-2.8247,-2.8416,-2.9666,-3.004,-3.0108,-3.0376,-3.4353,-3.6451,-3.728,-3.728,-3.728,-3.7053,-3.5757,-3.4945,0.0,-3.4873,0.0,-3.3072,0.0,0.0,0.0,-3.1769,0.0,0.0,0.0,0.0,0.0,0.0,0.0,0.0,0.0,0.0,0.0,0.0,0.0,-2.4745,-2.4525,0.0,-2.5101,0.0,0.0,0.0,0.0,0.0,0.0,0.0,0.0,0.0,0.0,0.0,0.0,-3.41,-3.4387,-3.4742,-3.5278,-3.5481,-3.56,-3.56,-3.56,-3.56,-3.56,-3.56,-3.56,-3.56,-3.56,-3.56,-3.5633,-3.6214,-3.6468,-3.6502,-3.706,-3.728,-3.728,-3.728,-3.728,-3.733,-3.7753,-3.7905,-3.799,-2.233,-2.2936,-2.3427,-2.346,-2.4661,-2.61,-2.757,-2.8535,-2.9619,-3.1038,-3.251,-3.3926,-3.5363,-3.5481,-3.6343,-3.8582,-3.6079,-3.4675,-3.5312,-3.1343,-2.9264,-2.9886,-2.642,-2.4795,-2.5508,-2.4103,-2.3021,-2.2296,-2.2296,-2.2296,-2.2296,-2.2296,-2.2733,-2.3528,-2.4949,-2.686,-2.9077,-2.9719,-3.1647,-3.4218,-3.3541,-3.4117,-3.5211,0.0,-3.4421,-3.5667,-3.5667,0.0,0.0,-3.4793,-3.4506,0.0,0.0,0.0,0.0,0.0,0.0,0.0,0.0,0.0,0.0,-2.9788,0.0,0.0,0.0,0.0,-2.8519,0.0,0.0,0.0,0.0,-2.6082,-2.5338,-2.4609,-2.4508,0.0,0.0,0.0,0.0,0.0,0.0,0.0,0.0,0.0,0.0,0.0,0.0,0.0,-3.3322,-3.4117,-3.4506,-3.4523,-3.5233,-3.56,-3.56,-3.56,-3.56,-3.56,-3.56,-3.56,-3.56,-3.56,-3.56,-3.56,-3.5616,-3.5633,-3.5633,-3.5667,-3.5667,-3.5667,-3.5667,-3.5667,-3.5853,-3.7364,-3.7905,-3.7905,-2.3038,-2.3224,-2.3241,-2.2767,-2.3494,-2.4983,-2.7435,-2.9313,-3.1157,-3.3119,-3.3812,-3.5081,-3.7584,-3.6975,-3.6891,-3.8159,-3.6874,-3.5487,-3.4235,-3.2273,-3.1092,-3.0835,-2.818,-2.6793,-2.7046,-2.5609,-2.4255,-2.3038,-2.3038,-2.2784,-2.2296,-2.2296,-2.2699,-2.346,-2.4949,-2.686,-2.9044,-2.9786,-3.097,-3.2324,0.0,-3.3846,-3.5549,0.0,0.0,-3.56,-3.56,-3.56,0.0,-3.5295,-3.4912,-3.4539,-3.4771,-3.437,-3.3728,-3.3474,-3.322,0.0,0.0,0.0,-3.2814,-3.0345,0.0,0.0,0.0,0.0,0.0,0.0,0.0,0.0,0.0,-2.6099,-2.5524,-2.527,-2.4408,-2.378,0.0,0.0,0.0,0.0,0.0,0.0,0.0,0.0,0.0,0.0,0.0,0.0,0.0,-3.2649,-3.3495,-3.4455,-3.4742,-3.5115,-3.56,-3.56,-3.56,-3.56,-3.56,-3.56,-3.56,-3.56,-3.56,-3.56,-3.56,-3.56,-3.56,-3.56,-3.56,-3.56,-3.56,-3.56,-3.5667,-3.6174,-3.6377,-3.6445,-2.3731,-2.3579,-2.3241,-2.2784,-2.3528,-2.5101,-2.7824,-3.0142,-3.2273,-3.4235,-3.4984,-3.6248,-3.8717,-3.8142,-3.7895,-3.8616,-3.8007,-3.6745,-3.4742,-3.3664,-3.275,-3.2002,-3.0074,-2.8889,-2.8618,-2.7435,-2.5812,-2.3797,-2.3797,-2.3274,-2.2296,-2.2296,-2.255,-2.3088,-2.4815,-2.6708,-2.8653,-2.9956,-3.1072,-3.2053,0.0,-3.4083,0.0,0.0,-3.56,-3.56,0.0,-3.56,-3.56,-3.56,-3.5278,-3.4979,-3.5447,-3.4754,-3.3795,-3.3795,-3.3271,-3.2527,-3.1802,-3.2273,0.0,-3.0598,-3.0463,0.0,-2.8263,0.0,0.0,0.0,0.0,0.0,0.0,-2.6674,-2.5913,-2.5642,-2.4577,-2.3611,0.0,-2.3224,0.0,0.0,0.0,0.0,0.0,0.0,-2.6945,-2.7739,-2.8044,0.0,0.0,0.0,-3.2462,-3.3698,-3.3964,-3.4336,-3.4805,-3.5076,-3.5216,-3.5216,-3.5216,-3.5346,-3.5583,-3.5059,-3.5092,-3.5583,-3.5312,-3.5346,-3.56,-3.56,-3.56,-3.56,-3.56,-3.56,-3.56,-3.56,-3.56,-3.5667,-2.4355,-2.4,-2.3562,-2.3562,-2.4729,-2.642,-2.8705,-3.0871,-3.2801,-3.4336,-3.5847,-3.7337,-3.8886,-3.9005,-3.9259,-3.9943,-3.9368,-3.8311,-3.6846,-3.534,-3.4201,-3.3541,-3.2104,-3.0987,-3.0294,-2.9465,-2.7605,-2.466,-2.4541,-2.3763,-2.2347,-2.2313,-2.2296,-2.2381,-2.4527,-2.6319,-2.7891,-3.0142,-3.1985,-3.3457,-3.4167,-3.4895,-3.5549,-3.5549,-3.5566,-3.56,-3.56,-3.56,-3.56,-3.56,-3.56,-3.5583,-3.5549,-3.5064,-3.4472,-3.4404,-3.388,-3.3186,-3.2462,-3.2276,-3.1955,-3.0514,0.0,0.0,0.0,0.0,-2.9736,0.0,0.0,0.0,0.0,0.0,-2.6505,-2.5761,-2.5033,-2.4051,-2.2615,-2.3004,0.0,0.0,0.0,0.0,-2.5439,-2.4915,-2.5422,-2.7486,-2.7097,-2.7706,0.0,0.0,0.0,-3.2226,-3.2949,-3.3372,-3.3406,-3.41,-3.4438,-3.4438,-3.4438,-3.481,-3.543,-3.4027,-3.4146,-3.5447,-3.4742,-3.4861,-3.5549,-3.5549,-3.5566,-3.56,-3.56,-3.56,-3.56,-3.56,-3.56,-3.56,-2.4457,-2.5235,-2.5845,-2.5845,-2.6167,-2.7182,0.0,0.0,-3.2408,-3.4996,-3.565,-3.6907,-3.9537,-3.9326,-3.8853,-3.8497,-3.8294,-3.755,-3.6011,-3.5013,-3.4658,-3.5008,-3.3626,-3.2763,-3.256,-3.0768,-2.889,-2.6945,-2.532,-2.4034,-2.3105,-2.2564,-2.2296,-2.2347,-2.3477,-2.5084,-2.7097,-2.884,-3.1038,-3.3423,-3.3609,-3.4117,0.0,0.0,-3.5131,-3.56,-3.56,-3.56,-3.56,-3.56,-3.56,-3.5498,-3.4962,-3.4641,-3.4269,-3.319,-3.2733,-3.2429,-3.1664,-3.1887,-3.209,-3.114,-3.092,-3.0666,0.0,0.0,0.0,0.0,0.0,0.0,0.0,0.0,0.0,-2.6539,-2.5795,-2.4983,-2.4068,-2.4101,0.0,-2.422,0.0,0.0,-2.4002,-2.4797,-2.5321,-2.5354,-2.6708,-2.7773,0.0,0.0,0.0,-3.1464,-3.2209,-3.2848,-3.3406,-3.3592,-3.3677,-3.3677,-3.3677,-3.3795,-3.3943,-3.3575,-3.3609,-3.3943,-3.3761,-3.41,-3.4776,-3.4776,-3.5115,-3.56,-3.56,-3.56,-3.56,-3.56,-3.56,-3.56,-2.5812,-2.7148,-2.818,-2.818,0.0,0.0,-3.0378,-3.1478,0.0,-3.4861,-3.5723,0.0,-3.8471,-3.8565,-3.8345,-3.7939,-3.7905,-3.7263,-3.5701,-3.5537,-3.5385,-3.5131,-3.4619,-3.4218,-3.3897,-3.2341,-3.0309,-2.7807,-2.6234,-2.4577,-2.2919,-2.2482,-2.2296,-2.233,-2.3071,-2.4441,-2.6353,-2.8552,-3.0632,-3.2476,-3.278,-3.3355,0.0,-3.4015,-3.4286,-3.4636,-3.4636,-3.5042,-3.5549,-3.5233,-3.5131,-3.4996,-3.4252,-3.3795,-3.3393,-3.2547,-3.2073,-3.1735,-3.1309,-3.1495,-3.1718,-3.1292,-3.119,-3.1004,-3.0277,-3.0429,-3.048,0.0,0.0,0.0,0.0,0.0,0.0,-2.6387,-2.5592,-2.4966,-2.4558,-2.4491,-2.4372,0.0,-2.4305,0.0,0.0,-2.3968,-2.4594,-2.4508,-2.5642,0.0,0.0,0.0,0.0,-3.0683,-3.1123,-3.1681,-3.2425,-3.2763,-3.2916,-3.2916,-3.2916,-3.3085,-3.3389,-3.273,-3.2797,-3.3389,-3.3051,-3.3339,-3.4015,-3.4015,-3.4455,-3.5131,-3.5131,-3.5131,-3.5131,-3.5131,-3.5312,-3.56,-2.7553,-2.9108,-3.0226,-3.0125,-3.0784,0.0,0.0,-3.2577,0.0,-3.4523,0.0,-3.6728,-3.6931,-3.7432,-3.777,-3.777,-3.777,-3.7144,-3.5684,-3.6248,-3.6051,-3.4692,-3.5267,-3.5295,-3.4658,-3.3728,-3.1562,-2.8094,-2.7063,-2.5152,-2.2431,-2.2361,-2.2296,-2.233,-2.297,-2.4188,-2.5914,-2.8772,-3.0446,-3.1258,-3.1904,-3.2594,-3.3271,-3.3271,-3.3322,-3.3406,-3.3406,-3.4303,-3.5329,-3.4607,-3.4421,-3.4336,-3.3525,-3.2814,-3.2276,-3.2192,-3.1701,-3.119,-3.119,-3.119,-3.119,-3.119,-3.119,-3.1021,-3.0395,-3.0243,-3.0243,-3.0243,-2.9719,-2.9653,0.0,0.0,0.0,-2.61,-2.5355,-2.4931,-2.4931,-2.4846,-2.4508,-2.3782,0.0,0.0,0.0,0.0,-2.378,-2.4305,-2.444,0.0,0.0,0.0,0.0,0.0,-2.9987,0.0,-3.1055,0.0,-3.2158,-3.2158,-3.2158,-3.2476,-3.3068,-3.1782,-3.1901,-3.3085,-3.2425,-3.2581,-3.3271,-3.3271,-3.3694,-3.4353,-3.4353,-3.4404,-3.4472,-3.4387,-3.4878,-3.56,-2.7756,-2.9533,-3.0818,-3.0226,0.0,-3.2327,-3.2916,-3.3237,-3.3897,-3.5228,-3.5633,-3.6276,-3.7567,-3.728,-3.6998,-3.6998,-3.6998,0.0,0.0,0.0,0.0,-3.5414,-3.5532,-3.5532,-3.5397,-3.3491,-3.1562,-2.9683,-2.708,-2.4915,-2.319,-2.2584,-2.2296,-2.2296,-2.2446,-2.4002,-2.6623,-2.8434,0.0,-3.1207,-3.1326,-3.1836,-3.2496,-3.2496,-3.2865,-3.3406,-3.3406,-3.3964,-3.4573,-3.3846,-3.3998,-3.4273,-3.2919,-3.2412,-3.2175,-3.1582,-3.1292,-3.119,-3.119,-3.119,-3.119,-3.119,-3.119,-3.1157,-3.1038,-3.1004,-3.1004,-3.1004,-3.0903,-3.07,-3.0362,0.0,0.0,0.0,0.0,0.0,0.0,-2.6708,-2.6031,-2.5304,0.0,-2.4831,0.0,0.0,-2.4118,-2.3628,-2.4152,0.0,0.0,0.0,0.0,0.0,0.0,0.0,0.0,0.0,0.0,-3.1376,-3.1376,-3.1461,-3.1579,-3.1309,-3.1326,-3.1579,-3.1444,-3.1819,-3.2496,-3.2496,-3.2916,-3.3592,-3.3592,-3.3964,-3.4421,-3.3829,-3.4433,-3.56,-2.899,-3.0497,-3.1667,-3.1292,0.0,0.0,0.0,-3.4303,-3.4653,-3.4996,-3.503,-3.5318,-3.6062,-3.6163,-3.618,-3.618,-3.618,-3.6011,-3.5616,-3.56,-3.56,-3.56,-3.56,-3.56,-3.56,-3.3812,-3.1952,-3.0108,-2.7469,-2.522,-2.3376,-2.2649,-2.2296,-2.233,-2.3105,-2.4441,0.0,0.0,0.0,-3.0666,-3.1055,-3.141,-3.1735,-3.1735,-3.1935,-3.2256,-3.2256,-3.273,-3.3309,-3.2933,-3.3068,-3.3173,-3.2073,-3.1735,-3.1667,-3.1292,-3.119,-3.119,-3.119,-3.119,-3.119,-3.119,-3.119,-3.119,-3.119,-3.119,-3.119,-3.119,-3.119,-3.097,-3.0243,-2.9499,0.0,0.0,0.0,0.0,0.0,0.0,-2.6268,-2.5152,-2.5372,-2.4866,0.0,0.0,0.0,0.0,0.0,0.0,0.0,0.0,0.0,0.0,0.0,0.0,0.0,0.0,0.0,-3.119,-3.119,-3.119,-3.119,-3.119,-3.119,-3.119,-3.119,-3.1393,-3.1769,-3.2141,-3.2293,-3.2307,-3.2679,-3.3034,-3.3326,-3.2949,-3.3525,-3.4501,-3.0581,-3.163,-3.253,0.0,-3.3609,0.0,-3.4286,-3.4895,-3.5216,-3.4793,-3.4726,-3.4726,-3.4726,-3.5245,-3.56,-3.56,-3.56,-3.56,-3.56,-3.56,-3.56,-3.56,-3.56,-3.56,-3.56,-3.4146,-3.2324,-3.0108,-2.7824,-2.5558,-2.3376,-2.2649,-2.2381,-2.2598,-2.4085,0.0,0.0,0.0,-2.9534,-3.0395,-3.097,-3.119,-3.119,-3.119,-3.119,-3.119,-3.119,-3.1582,-3.2073,-3.2073,-3.2175,-3.2175,-3.1427,-3.119,-3.119,-3.119,-3.119,-3.119,-3.119,-3.119,-3.119,-3.119,-3.119,-3.119,-3.119,-3.1072,-3.097,-3.097,-3.0835,-3.0497,-2.9734,-2.9279,0.0,0.0,0.0,0.0,0.0,0.0,-2.6217,-2.4897,-2.5101,-2.4628,-2.2733,0.0,0.0,0.0,0.0,0.0,0.0,0.0,0.0,0.0,0.0,-2.9025,-2.9599,0.0,-3.119,0.0,-3.119,-3.119,-3.119,-3.119,-3.119,-3.119,-3.119,-3.119,-3.1241,-3.1836,-3.1735,-3.1258,-3.1853,-3.2158,-3.2276,-3.2124,-3.2628,-3.3457,0.0,0.0,0.0,0.0,0.0,0.0,-3.3609,-3.4134,-3.481,-3.5414,-3.5498,-3.5498,-3.5498,-3.5549,-3.56,-3.56,-3.56,-3.56,-3.56,-3.56,-3.56,-3.56,-3.56,-3.56,-3.56,-3.4146,-3.2324,0.0,0.0,-2.5558,-2.3376,-2.2649,-2.2665,-2.3359,0.0,0.0,0.0,-2.8604,-2.9822,-3.1106,-3.1157,-3.119,-3.119,-3.119,-3.119,-3.119,-3.119,-3.1241,-3.1292,-3.1292,-3.1752,-3.2175,-3.1427,-3.119,-3.119,-3.119,-3.119,-3.119,-3.119,-3.119,-3.119,-3.119,-3.119,-3.119,-3.119,-3.0683,-3.019,-3.019,-2.9668,-2.8958,-2.8162,-2.8552,-2.8773,0.0,0.0,0.0,0.0,0.0,-2.6387,-2.5592,-2.4966,-2.4271,0.0,0.0,0.0,0.0,0.0,0.0,0.0,0.0,0.0,-2.5761,0.0,-2.7959,-2.801,-3.0125,0.0,-3.119,-3.119,-3.119,-3.119,-3.119,-3.119,-3.119,-3.119,-3.119,-3.1207,-3.1258,-3.1258,-3.1207,-3.1275,-3.1718,-3.2226,-3.1565,-3.2188,-3.3322,0.0,0.0,0.0,0.0,0.0,0.0,0.0,-3.4303,-3.4438,-3.4298,-3.4675,-3.5115,-3.5549,-3.56,-3.56,-3.56,-3.56,-3.56,-3.56,-3.5199,-3.5148,-3.5583,-3.5182,-3.4945,-3.4945,-3.3931,-3.2527,0.0,0.0,0.0,-2.5355,-2.4628,-2.4678,0.0,0.0,-2.7519,-2.8569,-2.933,-3.026,-3.119,-3.119,-3.119,-3.119,-3.119,-3.119,-3.119,-3.119,-3.119,-3.119,-3.119,-3.1393,-3.1599,-3.1275,-3.119,-3.119,-3.119,-3.119,-3.119,-3.119,-3.119,-3.1089,-3.0649,-3.0548,-3.0429,-2.9991,-2.9634,-2.9431,-2.9431,-2.9213,-2.8908,-2.8569,-2.8383,-2.8332,0.0,0.0,0.0,0.0,0.0,0.0,-2.5083,-2.4677,-2.4051,0.0,0.0,0.0,0.0,0.0,-2.275,-2.378,0.0,0.0,-2.4915,0.0,-2.7587,-2.7148,-2.9397,-3.0548,-3.0548,-3.0987,-3.119,-3.119,-3.119,-3.119,-3.119,-3.119,-3.119,-3.119,-3.119,-3.119,-3.119,-3.119,-3.1376,-3.1616,-3.1309,-3.1562,-3.2036,-3.3677,0.0,-3.3964,0.0,-3.4641,-3.4421,-3.4201,-3.3981,-3.366,-3.3136,-3.3711,-3.4455,-3.5194,-3.5464,-3.56,-3.56,-3.56,-3.56,-3.56,-3.4912,-3.4827,-3.5566,-3.4692,0.0,-3.4489,-3.3558,-3.2459,-3.119,-2.9161,0.0,0.0,-2.6488,0.0,0.0,-2.8043,-2.8805,-2.9364,-3.0108,-3.0717,-3.119,-3.119,-3.119,-3.119,-3.119,-3.119,-3.119,-3.119,-3.119,-3.119,-3.119,-3.119,-3.119,-3.119,-3.119,-3.119,-3.119,-3.119,-3.119,-3.119,-3.119,-3.1021,-3.0294,-3.0108,-2.9922,-2.9179,-2.8824,-2.8604,-2.8383,-2.8333,-2.8333,-2.8333,-2.7858,-2.7655,-2.8231,0.0,0.0,0.0,-2.6843,0.0,-2.4948,-2.444,-2.378,-2.2733,0.0,0.0,0.0,0.0,0.0,0.0,0.0,0.0,0.0,0.0,0.0,0.0,-2.8958,-3.0108,-3.0125,-3.0852,-3.119,-3.119,-3.119,-3.119,-3.119,-3.119,-3.119,-3.119,-3.119,-3.119,-3.119,-3.119,-3.119,-3.119,-3.119,-3.119,-3.119,-3.4336,-3.4472,-3.4726,-3.5447,-3.4979,-3.4252,-3.3525,-3.278,-3.2327,-3.231,-3.2949,-3.3694,-3.4421,-3.5165,-3.56,-3.56,-3.56,-3.56,-3.56,-3.4912,-3.4827,0.0,0.0,-3.3744,-3.4472,-3.3072,-3.1955,-3.119,0.0,0.0,-2.779,-2.779,-2.779,-2.7858,-2.9379,-3.0072,-3.0123,-3.0869,-3.119,-3.119,-3.119,-3.119,-3.119,-3.119,-3.119,-3.119,-3.119,-3.119,-3.119,-3.119,-3.119,-3.119,-3.119,-3.119,-3.119,-3.119,-3.119,-3.119,-3.119,-3.119,-3.1021,-3.0294,-3.0108,-2.9922,-2.9179,-2.8383,-2.7604,-2.6877,-2.6725,-2.6725,-2.6725,-2.6708,-2.6708,-2.6742,0.0,0.0,0.0,0.0,0.0,-2.5592,-2.4306,-2.341,-2.3376,0.0,0.0,0.0,0.0,0.0,0.0,0.0,0.0,-2.4474,-2.5946,0.0,-2.6691,-2.8958,-3.0108,-3.0125,-3.0852,-3.119,-3.119,-3.119,-3.119,-3.119,-3.119,-3.119,-3.119,-3.119,-3.119,-3.119,-3.119,-3.119,-3.119,-3.119,-3.119,-3.119,-3.5194,-3.5245,-3.5312,-3.5549,-3.4996,-3.4252,-3.3508,-3.2763,-3.2124,-3.1633,-3.2192,-3.2916,-3.3677,-3.4878,-3.56,0.0,-3.5148,-3.5064,0.0,-3.3964,-3.3541,-3.4793,-3.344,-3.2767,-3.3004,-3.2547,-3.1938,-3.119,0.0,0.0,0.0,-2.9362,-2.9651,-3.0142,-3.0632,-3.0852,-3.0869,-3.1106,-3.119,-3.119,-3.119,-3.119,-3.119,-3.119,-3.119,-3.119,-3.119,-3.119,-3.119,-3.119,-3.119,-3.119,-3.119,-3.119,-3.119,-3.119,-3.119,-3.119,-3.119,-3.119,-3.0903,-2.967,-2.9365,-2.9008,-2.774,-2.7232,-2.6979,-2.6742,-2.6691,-2.6691,-2.6691,-2.6691,-2.6691,-2.6691,-2.6691,0.0,0.0,0.0,-2.6167,-2.5659,-2.5203,-2.4695,0.0,-2.4152,0.0,0.0,0.0,0.0,0.0,0.0,0.0,0.0,-2.5675,0.0,-2.5964,-2.7672,-2.8534,-2.8534,-2.933,-2.9956,-3.048,-3.097,-3.119,-3.119,-3.119,-3.119,-3.119,-3.119,-3.119,-3.119,-3.119,-3.119,-3.119,-3.119,-3.119,-3.119,-3.5199,-3.4957,-3.4771,-3.4771,-3.4167,-3.3508,-3.3051,-3.2357,-3.1718,-3.1258,-3.1853,-3.2581,-3.3322,-3.4472,0.0,-3.5566,-3.4928,-3.4692,-3.5165,-3.3355,-3.2835,-3.4032,-3.2662,-3.2022,-3.2293,0.0,0.0,-3.143,-3.1137,-3.1005,-3.1005,-3.1005,-3.1136,-3.143,-3.143,-3.1332,-3.119,-3.119,-3.119,-3.119,-3.119,-3.119,-3.119,-3.119,-3.119,-3.119,-3.119,-3.119,-3.119,-3.119,-3.119,-3.119,-3.119,-3.119,-3.119,-3.119,-3.119,-3.119,-3.119,-3.119,-3.0835,-2.9365,-2.8993,-2.8604,-2.7046,-2.6691,-2.6691,-2.6691,-2.6691,-2.6691,-2.6691,-2.6691,-2.6691,-2.6691,-2.6691,-2.6691,-2.6691,0.0,-2.5811,0.0,0.0,0.0,0.0,-2.4745,0.0,0.0,0.0,0.0,0.0,0.0,0.0,-2.4255,-2.5828,0.0,-2.6031,-2.7198,-2.7959,-2.8264,-2.9042,-2.9803,-3.0531,-3.07,-3.0784,-3.0801,-3.1072,-3.1038,-3.0818,-3.1089,-3.119,-3.119,-3.119,-3.119,-3.119,-3.119,-3.119,-3.119,-3.4421,-3.388,0.0,0.0,-3.2842,0.0,-3.2394,-3.1766,-3.1291,-3.1291,-3.1885,-3.2615,-3.3409,-3.4126,-3.4834,-3.5649,0.0,0.0,0.0,-3.3089,-3.2615,-3.3288,-3.2043,-3.1622,-3.2252,-3.1627,-3.1468,-3.1861,-3.2299,-3.2501,-3.2501,-3.2501,-3.2282,-3.1861,-3.1861,-3.164,-3.1291,-3.1291,-3.1291,-3.1291,-3.1291,-3.1291,-3.1291,-3.1291,-3.1291,-3.1291,-3.1291,-3.1291,-3.1308,-3.1359,-3.1342,-3.1308,-3.1359,-3.1342,-3.1271,-3.121,-3.119,-3.119,-3.119,-3.119,-3.0835,-2.9365,-2.8925,-2.8468,-2.7029,-2.6691,-2.6691,-2.6691,-2.6691,-2.6691,-2.6691,-2.6691,-2.6691,-2.6691,-2.6691,-2.6674,-2.6623,0.0,0.0,0.0,0.0,0.0,0.0,-2.527,-2.5659,0.0,0.0,0.0,0.0,0.0,-2.4897,-2.5576,-2.6319,-2.6691,-2.6691,-2.7367,-2.8112,-2.8857,-2.9634,-3.0362,-3.0937,-3.0362,-3.0074,-3.0074,-3.0751,-3.0666,-3.0091,-3.0818,-3.1123,-3.1123,-3.1173,-3.119,-3.119,-3.119,-3.119,-3.119,0.0,0.0,-3.3515,-3.3885,-3.3311,-3.2947,-3.3245,-3.2669,-3.2179,-3.2179,-3.2336,-3.2967,-3.4317,-3.4615,-3.5281,-3.6702,-3.4878,-3.366,-3.366,-3.2818,-3.2378,-3.2564,-3.2569,-3.2366,-3.1935,-3.2108,-3.223,-3.2315,-3.2451,-3.2501,-3.2501,-3.2501,-3.2451,-3.2315,-3.2315,-3.2282,-3.2179,-3.2179,-3.2179,-3.2179,-3.2179,-3.2179,-3.2179,-3.2179,-3.2179,-3.2179,-3.2179,-3.2179,-3.2301,-3.2897,-3.2704,-3.2301,-3.2915,-3.2687,-3.2056,-3.1406,-3.119,-3.119,-3.119,-3.119,-3.0835,-2.9365,-2.813,-2.7148,-2.6776,-2.6691,-2.6691,-2.6691,-2.6691,-2.6691,-2.6691,-2.6691,-2.6691,-2.6691,-2.6691,-2.6488,-2.5947,-2.6031,0.0,0.0,-2.5795,-2.5981,-2.6166,-2.6336,-2.6201,0.0,0.0,0.0,0.0,0.0,-2.5423,-2.5592,-2.6319,-2.6691,-2.6691,-2.686,-2.7046,-2.7249,-2.862,-2.9025,-2.8635,-2.9632,-2.9786,-2.9281,-2.945,-2.9416,-2.9331,-3.0057,-3.0362,-3.0429,-3.097,-3.119,-3.119,-3.119,-3.119,-3.119,-3.3254,-3.308,-3.2995,-3.3033,-3.2891,-3.2845,-3.3069,-3.2766,-3.2501,-3.2501,-3.2501,-3.2943,-3.4128,-3.4252,-3.4606,-3.5473,-3.4622,-3.4053,-3.4053,-3.3014,-3.2392,-3.2392,-3.2648,-3.2564,-3.2127,-3.2384,-3.2599,-3.2809,-3.2996,-3.3087,-3.3087,-3.3087,-3.2996,-3.2809,-3.2809,-3.2697,-3.2501,-3.2501,-3.2501,-3.2501,-3.2501,-3.2501,-3.2501,-3.2501,-3.2501,-3.2554,-3.2924,-3.2818,-3.2607,-3.3436,-3.3171,-3.2571,-3.3012,-3.2854,-3.2401,-3.1932,-3.1787,-3.1787,-3.1787,-3.1787,-3.1424,-2.992,-2.8657,-2.7703,-2.7326,-2.7257,-2.7257,-2.7257,-2.7257,-2.7257,-2.7257,-2.7099,-2.6971,-2.6971,-2.6808,-2.6556,-2.6167,-2.6167,0.0,-2.6116,-2.6167,-2.6336,-2.6657,-2.6691,-2.6522,-2.6133,0.0,0.0,-2.6099,-2.6099,-2.6099,-2.6099,-2.6488,-2.6691,-2.6691,-2.7029,-2.7199,-2.7198,-2.8044,-2.8416,-2.8366,-2.8821,-2.8821,-2.8467,-2.884,-2.8807,-2.8518,-2.9279,-2.9803,-3.0142,-3.0548,-3.0903,-3.119,-3.119,-3.119,-3.119,-3.2997,-3.2687,-3.2401,-3.2074,-3.2332,-3.2632,-3.2697,-3.2697,-3.2697,-3.2697,-3.2697,-3.2982,-3.373,-3.3803,-3.3873,-3.3997,-3.4512,-3.4727,-3.4464,-3.3332,-3.2625,-3.2501,-3.2673,-3.2724,-3.2599,-3.2665,-3.2887,-3.3288,-3.362,-3.3807,-3.3807,-3.3807,-3.3625,-3.3288,-3.3288,-3.3075,-3.2697,-3.2697,-3.2697,-3.2697,-3.2697,-3.2697,-3.2697,-3.2697,-3.2697,-3.2802,-3.3459,-3.3281,-3.282,-3.362,-3.337,-3.2715,-3.2839,-3.2786,-3.2697,-3.2697,-3.2697,-3.2665,-3.2534,-3.2324,-3.1828,-3.0519,-2.9556,-2.8737,-2.8053,-2.7897,-2.7897,-2.7897,-2.7897,-2.7897,-2.7897,-2.7619,-2.7328,-2.7163,-2.6934,-2.669,-2.6403,0.0,-2.5964,-2.6471,-2.6082,-2.6015,-2.664,-2.6691,-2.6691,-2.6691,-2.6691,0.0,0.0,-2.6691,-2.6691,-2.6691,-2.6691,-2.6691,-2.6691,-2.7317,-2.7621,-2.7638,-2.7756,-2.8112,-2.8637,-2.8061,-2.7739,-2.7672,-2.8349,-2.8264,-2.7705,-2.8484,-2.9178,-2.9751,-2.9888,-3.0378,-3.1021,-3.1021,-3.1106,-3.119,-3.2577,-3.2539,-3.2599,-3.2937,-3.3045,-3.3214,-3.355,-3.3606,-3.3606,-3.3606,-3.3606,-3.3903,-3.4692,-3.4783,-3.5075,-3.5816,-3.5327,-3.4371,-3.294,-3.3227,-3.3156,-3.2536,-3.3486,-3.373,-3.3108,-3.3419,-3.3634,-3.3707,-3.3762,-3.3807,-3.3807,-3.3807,-3.378,-3.3707,-3.3707,-3.368,-3.3606,-3.3606,-3.3606,-3.3606,-3.3606,-3.3606,-3.3606,-3.3606,-3.3606,-3.3611,-3.3752,-3.3702,-3.372,-3.4524,-3.4268,-3.372,-3.4396,-3.4158,-3.3606,-3.3606,-3.3606,-3.3433,-3.2713,-3.1545,-3.0499,-3.0269,-2.9136,-2.8053,-2.7933,-2.7897,-2.7897,-2.7897,-2.7897,-2.7897,-2.7897,-2.7855,-2.7499,-2.6529,-2.6842,-2.6652,-2.5062,0.0,-2.6336,-2.5845,-2.6218,-2.6573,-2.6691,-2.6691,-2.6691,-2.6691,-2.6691,-2.6691,-2.6691,-2.6691,-2.6691,-2.6691,-2.6691,-2.6691,-2.6691,-2.681,-2.686,-2.6877,-2.7503,-2.7536,-2.7063,-2.757,-2.7452,-2.6877,-2.6996,-2.6979,-2.6928,-2.7689,-2.8043,-2.8229,-2.8907,-2.9617,-3.0277,-3.0277,-3.0666,-3.119,-3.2919,-3.3042,-3.3196,-3.3199,-3.3375,-3.3578,-3.3762,-3.3807,-3.3807,-3.3807,-3.3807,-3.3935,-3.4307,-3.4344,-3.4523,-3.4908,-3.4596,-3.4022,-3.3243,-3.3521,-3.3557,-3.3229,-3.372,-3.4076,-3.4178,-3.3927,-3.4009,-3.4454,-3.4009,-3.3807,-3.3807,-3.3807,-3.3807,-3.3807,-3.3807,-3.3807,-3.3807,-3.3807,-3.3807,-3.3807,-3.3807,-3.3807,-3.3807,-3.3807,-3.3807,-3.3862,-3.4302,-3.4174,-3.3917,-3.4729,-3.4472,-3.3862,-3.4247,-3.41,-3.3807,-3.3807,-3.3807,-3.3707,-3.3314,-3.2361,-3.1386,-3.0952,-2.999,-2.9032,-2.8585,-2.8495,-2.8495,-2.8495,-2.8495,-2.8495,-2.8495,-2.8321,-2.8004,-2.7467,-2.7521,0.0,0.0,-2.659,-2.6819,-2.6267,-2.6488,-2.6691,-2.6691,-2.6691,-2.6691,-2.6691,-2.6691,-2.6691,-2.6691,-2.6691,-2.6691,-2.6691,-2.6691,-2.6691,-2.6691,-2.6691,-2.6691,-2.6691,-2.7046,-2.7029,-2.6708,-2.7046,-2.7012,-2.6691,-2.6691,-2.6691,-2.6725,-2.7063,-2.7435,-2.7841,-2.8213,-2.8822,-2.955,-2.9956,-3.0057,-3.0057,-3.339,-3.3578,-3.3707,-3.339,-3.3592,-3.3807,-3.3807,-3.3807,-3.3807,-3.3807,-3.3807,-3.3807,-3.3807,-3.3807,-3.3807,-3.3807,-3.3807,-3.3807,-3.3807,-3.3807,-3.3807,-3.3807,-3.3807,-3.41,-3.4711,-3.4119,-3.41,-3.4729,-3.41,-3.3807,-3.3807,-3.3807,-3.3807,-3.3807,-3.3807,-3.3807,-3.3807,-3.3807,-3.3807,-3.3807,-3.3807,-3.3807,-3.3807,-3.3807,-3.3807,-3.3917,-3.4711,-3.4472,-3.3917,-3.4729,-3.4472,-3.3807,-3.3807,-3.3807,-3.3807,-3.3807,-3.3807,-3.3752,-3.3568,-3.306,-3.2362,-3.1366,-3.065,-2.9989,-2.9189,-2.9005,-2.9005,-2.9005,-2.9005,-2.9005,-2.9005,-2.8749,-2.8442,-2.8193,0.0,0.0,0.0,-2.7335,-2.7303,-2.689,-2.6841,-2.6791,-2.6708,-2.6691,-2.6691,-2.6691,-2.6691,-2.6691,-2.6691,-2.6691,-2.6691,-2.6691,-2.6691,-2.6691,-2.6691,-2.6691,-2.6691,-2.6691,-2.6691,-2.6691,-2.6691,-2.6691,-2.6691,-2.6691,-2.6691,-2.6691,-2.6691,-2.6691,-2.7029,-2.7536,-2.7536,-2.8027,-2.8807,-2.9364,-2.933,-2.9077,-3.3762,-3.3793,-3.3775,-3.3762,-3.3793,-3.3807,-3.3807,-3.3807,-3.3807,-3.3807,-3.3807,-3.3807,-3.3807,-3.3807,-3.3807,-3.3807,-3.3807,-3.3807,-3.3807,-3.3807,-3.3807,-3.3807,-3.3807,-3.3825,-3.3899,-3.3825,-3.3825,-3.3899,-3.3825,-3.3807,-3.3807,-3.3807,-3.3807,-3.3807,-3.3807,-3.3807,-3.3807,-3.3807,-3.3807,-3.3807,-3.3807,-3.3807,-3.3807,-3.3807,-3.3807,-3.3917,-3.4711,-3.4472,-3.3917,-3.4729,-3.4472,-3.3807,-3.3807,-3.3807,-3.3807,-3.3807,-3.3807,-3.3642,-3.2894,-3.2656,-3.2234,-3.0687,-3.0246,-2.9989,-2.9189,-2.9005,-2.9005,-2.9005,-2.9005,-2.9005,-2.9005,-2.8982,-2.8614,-2.7556,0.0,0.0,-2.6982,-2.7427,-2.771,-2.7301,-2.7257,-2.7115,-2.6741,-2.6691,-2.6691,-2.6691,-2.6691,-2.6691,-2.6691,-2.6691,-2.6691,-2.6691,-2.6691,-2.6691,-2.6691,-2.6691,-2.6691,-2.6691,-2.6691,-2.6691,-2.6691,-2.6691,-2.6691,-2.6691,-2.6691,-2.6691,-2.6691,-2.6691,-2.6725,-2.6776,-2.6776,-2.7232,-2.7908,-2.7959,-2.8416,-2.901,-3.3807,-3.3807,-3.3807,-3.3807,-3.3807,-3.3807,-3.3807,-3.3807,-3.3807,-3.3807,-3.3807,-3.3807,-3.3807,-3.3807,-3.3807,-3.3807,-3.3807,-3.3807,-3.3807,-3.3807,-3.3807,-3.3807,-3.3807,-3.4027,-3.4527,-3.4064,-3.4045,-3.4546,-3.4045,-3.3807,-3.3807,-3.3807,-3.3807,-3.3807,-3.3807,-3.3807,-3.3807,-3.3807,-3.3807,-3.3807,-3.3807,-3.3807,-3.3807,-3.3807,-3.3807,-3.3844,-3.4156,-3.4064,-3.3844,-3.4156,-3.4064,-3.3807,-3.3807,-3.3807,-3.3807,-3.3807,-3.3807,-3.3513,-3.221,-3.1861,-3.1715,-3.1091,-3.0191,-2.9372,-2.9078,-2.9005,-2.9005,-2.9005,-2.9005,-2.9005,-2.9005,-2.9005,-2.886,-2.8419,0.0,-2.8536,-2.7882,-2.8027,-2.8088,-2.7707,-2.7663,-2.7604,-2.7454,-2.7439,-2.7332,-2.7083,-2.7067,-2.6954,-2.6708,-2.6691,-2.6691,-2.6691,-2.6691,-2.6691,-2.6691,-2.6691,-2.6691,-2.6691,-2.6691,-2.6691,-2.6691,-2.6691,-2.6691,-2.6691,-2.6691,-2.6691,-2.6691,-2.6691,-2.6691,-2.6691,-2.6691,-2.686,-2.7182,-2.7621,-2.7706,-2.7638,-3.3807,-3.3807,-3.3807,-3.3807,-3.3807,-3.3807,-3.3807,-3.3807,-3.3807,-3.3807,-3.3807,-3.3807,-3.3807,-3.3807,-3.3807,-3.3807,-3.3807,-3.3807,-3.3807,-3.3807,-3.3807,-3.3807,-3.3807,-3.4064,-3.4619,-3.4082,-3.4082,-3.4619,-3.4082,-3.3807,-3.3807,-3.3807,-3.3807,-3.3807,-3.3807,-3.3807,-3.3807,-3.3807,-3.3807,-3.3807,-3.3807,-3.3807,-3.3807,-3.3807,-3.3807,-3.3825,-3.41,-3.4009,-3.3844,-3.41,-3.4009,-3.3807,-3.3807,-3.3807,-3.3807,-3.3807,-3.3807,-3.3495,-3.2155,-3.177,-3.1586,-3.0834,-3.0008,-2.9317,-2.906,-2.9005,-2.9005,-2.9005,-2.9005,-2.9005,-2.9005,-2.9005,-2.9005,-2.9005,-2.9005,-2.8887,-2.8633,-2.859,-2.8464,-2.8088,-2.8061,-2.7917,-2.7561,-2.7756,-2.7677,-2.7153,-2.7106,-2.6985,-2.6708,-2.6692,-2.6764,-2.6873,-2.689,-2.6824,-2.6691,-2.6691,-2.6691,-2.6691,-2.6691,-2.6691,-2.6691,-2.6691,-2.6691,-2.6691,-2.6691,-2.6691,-2.6691,-2.6691,-2.6691,-2.6691,-2.6691,-2.6691,-2.6759,-2.7283,-2.7131,-2.6776,-3.3807,-3.3807,-3.3807,-3.3807,-3.3807,-3.3807,-3.3807,-3.3807,-3.3807,-3.3807,-3.3807,-3.3807,-3.3807,-3.3807,-3.3807,-3.3807,-3.3807,-3.3807,-3.3807,-3.3807,-3.3807,-3.3807,-3.3807,-3.3807,-3.3807,-3.3807,-3.3807,-3.3807,-3.3807,-3.3807,-3.3807,-3.3807,-3.3807,-3.3807,-3.3807,-3.3807,-3.3807,-3.3807,-3.3807,-3.3807,-3.3807,-3.3807,-3.3807,-3.3807,-3.3807,-3.3899,-3.4711,-3.4472,-3.3917,-3.4729,-3.4454,-3.3807,-3.3807,-3.3807,-3.3807,-3.3807,-3.3807,-3.3623,-3.2821,-3.2601,-3.2014,-2.961,-2.961,-2.9989,-2.9189,-2.9005,-2.9005,-2.9005,-2.9005,-2.9005,-2.9005,-2.9005,-2.9005,-2.9005,-2.9005,-2.9005,-2.9005,-2.9005,-2.8851,-2.8446,-2.8389,-2.7941,-2.6821,-2.7423,-2.7547,-2.6763,-2.6692,-2.671,-2.671,-2.671,-2.689,-2.7284,-2.7303,-2.7099,-2.6708,-2.6691,-2.6691,-2.6691,-2.6691,-2.6691,-2.6691,-2.6691,-2.6691,-2.6691,-2.6691,-2.6691,-2.6691,-2.6691,-2.6691,-2.6691,-2.6691,-2.6691,-2.6691,-2.6691,-2.6691,-2.6691,-3.3807,-3.3807,-3.3807,-3.3807,-3.3807,-3.3807,-3.3807,-3.3807,-3.3807,-3.3807,-3.3807,-3.3807,-3.3807,-3.3807,-3.3807,-3.3807,-3.3807,-3.3807,-3.3807,-3.3807,-3.3807,-3.3807,-3.3807,-3.3807,-3.3807,-3.3807,-3.3807,-3.3807,-3.3807,-3.3807,-3.3807,-3.3807,-3.3807,-3.3807,-3.3807,-3.3807,-3.3807,-3.3807,-3.3807,-3.3807,-3.3807,-3.3807,-3.3807,-3.3807,-3.3807,-3.3825,-3.4082,-3.4009,-3.3844,-3.4082,-3.4009,-3.3807,-3.3807,-3.3807,-3.3807,-3.3807,-3.3807,-3.3623,-3.2821,-3.2601,-3.2161,-3.0289,-3.0026,-2.9989,-2.9189,-2.9005,-2.9005,-2.9005,-2.9005,-2.9005,-2.9005,-2.9005,-2.9005,-2.9005,-2.9005,-2.9005,-2.9005,-2.9005,-2.897,-2.8839,-2.8316,-2.8062,-2.8294,-2.7507,-2.7007,-2.7049,-2.6308,-2.6356,-2.7476,-2.7006,-2.689,-2.7284,-2.7303,-2.7099,-2.6708,-2.6691,-2.6691,-2.6691,-2.6691,-2.6691,-2.6691,-2.6691,-2.6691,-2.6691,-2.6691,-2.6691,-2.6691,-2.6691,-2.6691,-2.6691,-2.6691,-2.6691,-2.6691,-2.6691,-2.6691,-2.6691,-3.4136,-3.4049,-3.3999,-3.4136,-3.4049,-3.3999,-3.4136,-3.416,-3.416,-3.416,-3.416,-3.416,-3.416,-3.416,-3.416,-3.416,-3.416,-3.416,-3.416,-3.416,-3.416,-3.416,-3.416,-3.4037,-3.382,-3.3807,-3.3807,-3.3807,-3.3807,-3.3807,-3.3807,-3.3807,-3.3807,-3.3807,-3.3807,-3.3807,-3.3807,-3.3807,-3.3807,-3.3807,-3.3807,-3.3807,-3.3807,-3.3807,-3.3807,-3.3807,-3.3807,-3.3807,-3.3807,-3.3807,-3.3807,-3.3807,-3.3807,-3.3807,-3.3807,-3.3807,-3.3807,-3.3623,-3.2821,-3.2821,-3.2601,-3.0687,-3.021,-2.9989,-2.9189,-2.9005,-2.9005,-2.9005,-2.9005,-2.9005,-2.9005,-2.9005,-2.9005,-2.9005,-2.9005,-2.9005,-2.9005,-2.9005,-2.9005,-2.9005,-2.8565,-2.8227,-2.8069,-2.7457,-2.6904,-2.6513,-2.6141,-2.6361,-2.7338,-2.693,-2.6996,-2.7712,-2.7733,-2.7402,-2.6716,-2.6716,-2.6697,-2.6691,-2.6404,-2.642,-2.6691,-2.6404,-2.6251,-2.6285,-2.6573,-2.6522,-2.6285,-2.6573,-2.6691,-2.6691,-2.6691,-2.6691,-2.6691,-2.6691,-2.6691,-2.6691,-3.4643,-3.4445,-3.4345,-3.4653,-3.4464,-3.4345,-3.4653,-3.4694,-3.4694,-3.4694,-3.4694,-3.4694,-3.4694,-3.4694,-3.4694,-3.4694,-3.4694,-3.4694,-3.4694,-3.4694,-3.4694,-3.4694,-3.4694,-3.4431,-3.3895,-3.3881,-3.3881,-3.3881,-3.3881,-3.3868,-3.3842,-3.3842,-3.3842,-3.3829,-3.3802,-3.3802,-3.3829,-3.3802,-3.3807,-3.3807,-3.3807,-3.3807,-3.3807,-3.3807,-3.3807,-3.3807,-3.3807,-3.3807,-3.3807,-3.3807,-3.3807,-3.3807,-3.3807,-3.3807,-3.3807,-3.3807,-3.3807,-3.3642,-3.2913,-3.3201,-3.3146,-3.087,-3.0246,-2.9989,-2.9189,-2.9005,-2.9005,-2.9005,-2.9005,-2.9005,-2.9005,-2.9005,-2.9005,-2.9005,-2.9005,-2.9005,-2.9005,-2.9005,-2.9005,-2.9005,-2.8932,-2.8326,-2.6851,-2.7236,-2.699,-2.5503,-2.608,-2.6557,-2.6704,-2.6722,-2.7228,-2.8366,-2.8335,-2.7776,-2.671,-2.6639,-2.6597,-2.6571,-2.5876,-2.5894,-2.6521,-2.5895,-2.5592,-2.5642,-2.6387,-2.6319,-2.5761,-2.642,-2.6691,-2.6691,-2.6691,-2.6691,-2.6691,-2.6691,-2.6691,-2.6691,-3.4684,-3.4643,-3.4603,-3.4684,-3.4643,-3.4622,-3.4684,-3.4694,-3.4694,-3.4694,-3.4694,-3.4694,-3.4694,-3.4694,-3.4694,-3.4694,-3.4694,-3.4694,-3.4694,-3.4694,-3.4694,-3.4694,-3.4694,-3.4643,-3.4516,-3.4497,-3.4497,-3.4497,-3.4497,-3.4375,-3.4111,-3.4111,-3.4111,-3.4099,-3.3889,-3.3928,-3.4099,-3.3889,-3.3807,-3.3807,-3.3807,-3.3807,-3.3807,-3.3807,-3.3807,-3.3807,-3.3807,-3.3807,-3.3807,-3.3807,-3.3807,-3.3807,-3.3807,-3.3807,-3.3807,-3.3807,-3.3807,-3.3752,-3.3587,-3.322,-3.2583,-3.1421,-3.0668,-2.9989,-2.9189,-2.9005,-2.9005,-2.9005,-2.9005,-2.9005,-2.9005,-2.9005,-2.9005,-2.9005,-2.9005,-2.9005,-2.9005,-2.9005,-2.9005,-2.9005,-2.8436,-2.7915,-2.7567,-2.6568,-2.5778,-2.5429,-2.5558,-2.6219,-2.7475,-2.753,-2.7805,-2.8384,-2.7794,-2.722,-2.6692,-2.6078,-2.5754,-2.5761,-2.5334,-2.5203,-2.5377,-2.5516,-2.5592,-2.5642,-2.6387,-2.6607,-2.6471,-2.6623,-2.6691,-2.6691,-2.6691,-2.6691,-2.6691,-2.6691,-2.6691,-2.6691,-3.5062,-3.4981,-3.4935,-3.507,-3.4972,-3.4935,-3.507,-3.5088,-3.5088,-3.5088,-3.5088,-3.5088,-3.5088,-3.5088,-3.5088,-3.5088,-3.5088,-3.5088,-3.5088,-3.5088,-3.5088,-3.5088,-3.5088,-3.5088,-3.5088,-3.5088,-3.4954,-3.4694,-3.4694,-3.4622,-3.4434,-3.4434,-3.4434,-3.4423,-3.4284,-3.4307,-3.4423,-3.4284,-3.4232,-3.4232,-3.4232,-3.4232,-3.4232,-3.4232,-3.4232,-3.4232,-3.4232,-3.4232,-3.4232,-3.4232,-3.4232,-3.4208,-3.4031,-3.3999,-3.3999,-3.3999,-3.3902,-3.3829,-3.3961,-3.3589,-3.2889,-3.1696,-3.1085,-3.0467,-2.9262,-2.9005,-2.9005,-2.9005,-2.9005,-2.9005,-2.9005,-2.9005,-2.9005,-2.9005,-2.9005,-2.9005,-2.9005,-2.9005,-2.9005,-2.9005,-2.862,-2.8081,-2.7291,-2.6465,-2.5815,-2.5429,-2.576,-2.6337,-2.7181,-2.6862,-2.6922,-2.7518,-2.7136,-2.6655,-2.6087,-2.5655,-2.5265,-2.4876,-2.4603,-2.4659,-2.4991,-2.4677,-2.456,-2.4594,-2.5321,-2.5455,-2.5152,-2.5506,-2.5659,-2.5692,-2.6031,-2.6184,-2.6218,-2.6573,-2.6691,-2.6691,-3.5453,-3.5312,-3.5231,-3.5453,-3.5312,-3.5239,-3.5479,-3.55,-3.55,-3.55,-3.55,-3.55,-3.55,-3.55,-3.55,-3.55,-3.55,-3.55,-3.55,-3.55,-3.55,-3.55,-3.55,-3.55,-3.55,-3.55,-3.5289,-3.4851,-3.4851,-3.4803,-3.4764,-3.4764,-3.4764,-3.4783,-3.4714,-3.4733,-3.4773,-3.4714,-3.4694,-3.4694,-3.4694,-3.4694,-3.4694,-3.4694,-3.4694,-3.4694,-3.4694,-3.4694,-3.4694,-3.4694,-3.4694,-3.4653,-3.4379,-3.43,-3.43,-3.43,-3.4129,-3.3986,-3.423,-3.4018,-3.3382,-3.1887,-3.1426,-3.0946,-2.9459,-2.9055,-2.9005,-2.9005,-2.9005,-2.9005,-2.9005,-2.9005,-2.9005,-2.9005,-2.9005,-2.9005,-2.9005,-2.9005,-2.9005,-2.9005,-2.8877,-2.8271,-2.6943,-2.6557,-2.6172,-2.5631,-2.6098,-2.6447,-2.6583,-2.598,-2.5907,-2.6583,-2.6465,-2.6062,-2.5411,-2.5264,-2.486,-2.4198,-2.3969,-2.4177,-2.4756,-2.3941,-2.3536,-2.3529,-2.426,-2.4213,-2.3644,-2.4254,-2.4491,-2.4558,-2.5169,-2.5423,-2.5507,-2.6234,-2.642,-2.6336,-3.5493,-3.546,-3.5453,-3.5493,-3.546,-3.5453,-3.5493,-3.55,-3.55,-3.55,-3.55,-3.55,-3.55,-3.55,-3.55,-3.55,-3.55,-3.55,-3.55,-3.55,-3.55,-3.55,-3.55,-3.55,-3.55,-3.55,-3.5453,-3.5383,-3.5383,-3.5281,-3.5053,-3.5053,-3.5053,-3.5044,-3.4793,-3.4841,-3.5025,-3.4812,-3.4694,-3.4694,-3.4694,-3.4694,-3.4694,-3.4694,-3.4694,-3.4694,-3.4694,-3.4694,-3.4694,-3.4694,-3.4694,-3.4684,-3.4653,-3.4632,-3.4632,-3.4632,-3.4612,-3.4591,-3.4622,-3.4057,-3.3238,-3.2315,-3.1572,-3.08,-2.9841,-2.9293,-2.9005,-2.9005,-2.9005,-2.9005,-2.9005,-2.9005,-2.9005,-2.9005,-2.9005,-2.9005,-2.9005,-2.9005,-2.9005,-2.9005,-2.8393,-2.7879,-2.7669,-2.6384,-2.5815,-2.6392,-2.5888,-2.587,-2.6547,-2.6502,-2.6502,-2.6602,-2.5925,-2.5503,-2.5393,-2.4713,-2.43,-2.4208,-2.3872,-2.3788,-2.3874,-2.4085,-2.4047,-2.3864,-2.4606,-2.4707,-2.4355,-2.4457,-2.4491,-2.4508,-2.4609,-2.4643,-2.4745,-2.5473,-2.5338,-2.488,-3.5404,-3.55,-3.5346,-3.4853,-3.5173,-3.5346,-3.4853,-3.5192,-3.55,-3.55,-3.55,-3.55,-3.55,-3.55,-3.55,-3.55,-3.55,-3.55,-3.55,-3.55,-3.55,-3.55,-3.55,-3.55,-3.55,-3.55,-3.55,-3.55,-3.55,-3.5439,-3.532,-3.532,-3.532,-3.5312,-3.5198,-3.5215,-3.5312,-3.5198,-3.5157,-3.5157,-3.5157,-3.5157,-3.5157,-3.5157,-3.5157,-3.5157,-3.5157,-3.5157,-3.5157,-3.5157,-3.5157,-3.5122,-3.4972,-3.4926,-3.4926,-3.4926,-3.4832,-3.463,-3.4301,-3.4169,-3.3704,-3.1911,-3.1562,-3.1326,-3.0007,-2.9533,-2.9365,-2.9246,-2.9214,-2.9189,-2.904,-2.9005,-2.9005,-2.9005,-2.9005,-2.9005,-2.9005,-2.9005,-2.9005,-2.9005,-2.8282,-2.7622,-2.7163,-2.6484,-2.6025,-2.5944,-2.5595,-2.5558,-2.5907,-2.5493,-2.5254,-2.5254,-2.4905,-2.4732,-2.4732,-2.4373,-2.419,-2.419,-2.4054,-2.3886,-2.371,-2.3691,-2.3622,-2.352,-2.3853,-2.3903,-2.3757,-2.3757,-2.3757,-2.3809,-2.423,-2.4663,-2.5097,-2.5415,-2.5212,-2.4827]},{"header":{"parameterUnit":"m.s-1","parameterCategory":1,"la1":30.6,"la2":28.766,"lo1":-90.7593,"lo2":-88.6598,"dy":0.0162,"dx":0.0183,"nx":116,"ny":114,"refTime":"2024-06-22T00:00:00:Z","depth":0,"parameterNumber":3,"parameterNumberName":"V-component_of_WINDS"},"data":[0.0,0.0,0.0,0.0,0.0,0.0,0.0,0.0,0.0,0.0,0.0,0.0,0.0,0.0,0.0,0.0,0.0,0.0,0.0,0.0,0.0,0.0,0.0,0.0,0.0,0.0,0.0,0.0,0.0,0.0,0.0,0.0,0.0,0.0,0.0,0.0,0.0,0.0,0.0,0.0,0.0,0.0,0.0,0.0,0.0,0.0,0.0,0.0,0.0,0.0,0.0,0.0,0.0,0.0,0.0,0.0,0.0,0.0,0.0,0.0,0.0,0.0,0.0,0.0,0.0,0.0,0.0,0.0,0.0,0.0,0.0,0.0,0.0,0.0,0.0,0.0,0.0,0.0,0.0,0.0,0.0,0.0,0.0,0.0,0.0,0.0,0.0,0.0,0.0,0.0,0.0,0.0,0.0,0.0,0.0,0.0,0.0,0.0,0.0,0.0,0.0,0.0,0.0,0.0,0.0,0.0,0.0,0.0,0.0,0.0,0.0,0.0,0.0,0.0,0.0,0.0,0.0,0.0,0.0,0.0,0.0,0.0,0.0,0.0,0.0,0.0,0.0,0.0,0.0,0.0,0.0,0.0,0.0,0.0,0.0,0.0,0.0,0.0,0.0,0.0,0.0,0.0,0.0,0.0,0.0,0.0,0.0,0.0,0.0,0.0,0.0,0.0,0.0,0.0,0.0,0.0,0.0,0.0,0.0,0.0,0.0,0.0,0.0,0.0,0.0,0.0,0.0,0.0,0.0,0.0,0.0,0.0,0.0,0.0,0.0,0.0,0.0,0.0,0.0,0.0,0.0,0.0,0.0,0.0,0.0,0.0,0.0,0.0,0.0,0.0,0.0,0.0,0.0,0.0,0.0,0.0,0.0,0.0,0.0,0.0,0.0,0.0,0.0,0.0,0.0,0.0,0.0,0.0,0.0,0.0,0.0,0.0,0.0,0.0,0.0,0.0,0.0,0.0,0.0,0.0,0.0,0.0,0.0,0.0,0.0,0.0,0.0,0.0,0.0,0.0,0.0,0.0,0.0,0.0,0.0,0.0,0.0,0.0,0.0,0.0,0.0,0.0,0.0,0.0,0.0,0.0,0.0,0.0,0.0,0.0,0.0,0.0,0.0,0.0,0.0,0.0,0.0,0.0,0.0,0.0,0.0,0.0,0.0,0.0,0.0,0.0,0.0,0.0,0.0,0.0,0.0,0.0,0.0,0.0,0.0,0.0,0.0,0.0,0.0,0.0,0.0,0.0,0.0,0.0,0.0,0.0,0.0,0.0,0.0,0.0,0.0,0.0,0.0,0.0,0.0,0.0,0.0,0.0,0.0,0.0,0.0,0.0,0.0,0.0,0.0,0.0,0.0,0.0,0.0,0.0,0.0,0.0,0.0,0.0,0.0,0.0,0.0,0.0,0.0,0.0,0.0,0.0,0.0,0.0,0.0,0.0,0.0,0.0,0.0,0.0,0.0,0.0,0.0,0.0,0.0,0.0,0.0,0.0,0.0,0.0,0.0,0.0,0.0,0.0,0.0,0.0,0.0,0.0,0.0,0.0,0.0,0.0,0.0,0.0,0.0,0.0,0.0,0.0,0.0,0.0,0.0,0.0,0.0,0.0,0.0,0.0,0.0,0.0,0.0,0.0,0.0,0.0,0.0,0.0,0.0,0.0,0.0,0.0,0.0,0.0,0.0,0.0,0.0,0.0,0.0,0.0,0.0,0.0,0.0,0.0,0.0,0.0,0.0,0.0,0.0,0.0,0.0,0.0,0.0,0.0,0.0,0.0,0.0,0.0,0.0,0.0,0.0,0.0,0.0,0.0,0.0,0.0,0.0,0.0,0.0,0.0,0.0,0.0,0.0,0.0,0.0,0.0,0.0,0.0,0.0,0.0,0.0,0.0,0.0,0.0,0.0,0.0,0.0,0.0,0.0,0.0,0.0,0.0,0.0,0.0,0.0,0.0,0.0,0.0,0.0,0.0,0.0,0.0,0.0,0.0,0.0,0.0,0.0,0.0,0.0,0.0,0.0,0.0,0.0,0.0,0.0,0.0,0.0,0.0,0.0,0.0,0.0,0.0,0.0,0.0,0.0,0.0,0.0,0.0,0.0,0.0,0.0,0.0,0.0,0.0,0.0,0.0,0.0,0.0,0.0,0.0,0.0,0.0,0.0,0.0,0.0,0.0,0.0,0.0,0.0,0.0,0.0,0.0,0.0,0.0,0.0,0.0,0.0,0.0,0.0,0.0,0.0,0.0,0.0,0.0,0.0,0.0,0.0,0.0,0.0,0.0,0.0,0.0,0.0,0.0,0.0,0.0,0.0,0.0,0.0,0.0,0.0,0.0,0.0,0.0,0.0,0.0,0.0,0.0,0.0,0.0,0.0,0.0,0.0,0.0,0.0,0.0,0.0,0.0,0.0,0.0,0.0,0.0,0.0,0.0,0.0,0.0,0.0,0.0,0.0,0.0,0.0,0.0,0.0,0.0,0.0,0.0,0.0,0.0,0.0,0.0,0.0,0.0,0.0,0.0,0.0,0.0,0.0,0.0,0.0,0.0,0.0,0.0,0.0,0.0,0.0,0.0,0.0,0.0,0.0,0.0,0.0,0.0,0.0,0.0,0.0,0.0,0.0,0.0,0.0,0.0,0.0,0.0,0.0,0.0,0.0,0.0,0.0,0.0,0.0,0.0,0.0,0.0,0.0,0.0,0.0,0.0,0.0,0.0,0.0,0.0,0.0,0.0,0.0,0.0,0.0,0.0,0.0,0.0,0.0,0.0,0.0,0.0,0.0,0.0,0.0,0.0,0.0,0.0,0.0,0.0,0.0,0.0,0.0,0.0,0.0,0.0,0.0,0.0,0.0,0.0,0.0,0.0,0.0,0.0,0.0,0.0,0.0,0.0,0.0,0.0,0.0,0.0,0.0,0.0,0.0,0.0,0.0,0.0,0.0,0.0,0.0,0.0,0.0,0.0,0.0,0.0,0.0,0.0,0.0,0.0,0.0,0.0,0.0,0.0,0.0,0.0,0.0,0.0,0.0,0.0,0.0,0.0,0.0,0.0,0.0,0.0,0.0,0.0,0.0,0.0,0.0,0.0,0.0,0.0,0.0,0.0,0.0,0.0,0.0,0.0,0.0,0.0,0.0,0.0,0.0,0.0,0.0,0.0,0.0,0.0,0.0,0.0,0.0,0.0,0.0,0.0,0.0,0.0,0.0,0.0,0.0,0.0,0.0,0.0,0.0,0.0,0.0,0.0,0.0,0.0,0.0,0.0,0.0,0.0,0.0,0.0,0.0,0.0,0.0,0.0,0.0,0.0,0.0,0.0,0.0,0.0,0.0,0.0,0.0,0.0,0.0,0.0,0.0,0.0,0.0,0.0,0.0,0.0,0.0,0.0,0.0,0.0,0.0,0.0,0.0,0.0,0.0,0.0,0.0,0.0,0.0,0.0,0.0,0.0,0.0,0.0,0.0,0.0,0.0,0.0,0.0,0.0,0.0,0.0,0.0,0.0,0.0,0.0,0.0,0.0,0.0,0.0,0.0,0.0,0.0,0.0,0.0,0.0,0.0,0.0,0.0,0.0,0.0,0.0,0.0,0.0,0.0,0.0,0.0,0.0,0.0,0.0,0.0,0.0,0.0,0.0,0.0,0.0,0.0,0.0,0.0,0.0,0.0,0.0,0.0,0.0,0.0,0.0,0.0,0.0,0.0,0.0,0.0,0.0,0.0,0.0,0.0,0.0,0.0,0.0,0.0,0.0,0.0,0.0,0.0,0.0,0.0,0.0,0.0,0.0,0.0,0.0,0.0,0.0,0.0,0.0,0.0,0.0,0.0,0.0,0.0,0.0,0.0,0.0,0.0,0.0,0.0,0.0,0.0,0.0,0.0,0.0,0.0,0.0,0.0,0.0,0.0,0.0,0.0,0.0,0.0,0.0,0.0,0.0,0.0,0.0,0.0,0.0,0.0,0.0,0.0,0.0,0.0,0.0,0.0,0.0,0.0,0.0,0.0,0.0,0.0,0.0,0.0,0.0,0.0,0.0,0.0,0.0,0.0,0.0,0.0,0.0,0.0,0.0,0.0,0.0,0.0,0.0,0.0,0.0,0.0,0.0,0.0,0.0,0.0,0.0,0.0,0.0,0.0,0.0,0.0,0.0,0.0,0.0,0.0,0.0,0.0,0.0,0.0,0.0,0.0,0.0,0.0,0.0,0.0,0.0,0.0,0.0,0.0,0.0,0.0,0.0,0.0,0.0,0.0,0.0,0.0,0.0,0.0,0.0,0.0,0.0,0.0,0.0,0.0,0.0,0.0,0.0,0.0,0.0,0.0,0.0,0.0,0.0,0.0,0.0,0.0,0.0,0.0,0.0,0.0,0.0,0.0,0.0,0.0,0.0,0.0,0.0,0.0,0.0,0.0,0.0,0.0,0.0,0.0,0.0,0.0,0.0,0.0,0.0,0.0,0.0,0.0,0.0,0.0,0.0,0.0,0.0,0.0,0.0,0.0,0.0,0.0,0.0,0.0,0.0,0.0,0.0,0.0,0.0,0.0,0.0,0.0,0.0,0.0,0.0,0.0,0.0,0.0,0.0,0.0,0.0,0.0,0.0,0.0,0.0,0.0,0.0,0.0,0.0,0.0,0.0,0.0,0.0,0.0,0.0,0.0,0.0,0.0,0.0,0.0,0.0,0.0,0.0,0.0,0.0,0.0,0.0,0.0,0.0,0.0,0.0,0.0,0.0,0.0,0.0,0.0,0.0,0.0,0.0,0.0,0.0,0.0,0.0,0.0,0.0,0.0,0.0,0.0,0.0,0.0,0.0,0.0,0.0,0.0,0.0,0.0,0.0,0.0,0.0,0.0,0.0,0.0,0.0,0.0,0.0,0.0,0.0,0.0,0.0,0.0,0.0,0.0,0.0,0.0,0.0,0.0,0.0,0.0,0.0,0.0,0.0,0.0,0.0,0.0,0.0,0.0,0.0,0.0,0.0,0.0,0.0,0.0,0.0,0.0,0.0,0.0,0.0,0.0,0.0,0.0,0.0,0.0,0.0,0.0,0.0,0.0,0.0,0.0,0.0,0.0,0.0,0.0,0.0,0.0,0.0,0.0,0.0,0.0,0.0,0.0,0.0,0.0,0.0,0.0,0.0,0.0,0.0,0.0,0.0,0.0,0.0,0.0,0.0,0.0,0.0,0.0,0.0,0.0,0.0,0.0,0.0,0.0,0.0,0.0,0.0,0.0,0.0,0.0,0.0,0.0,0.0,0.0,0.0,0.0,0.0,0.0,0.0,0.0,0.0,0.0,0.0,0.0,0.0,0.0,0.0,0.0,0.0,0.0,0.0,0.0,0.0,0.0,0.0,0.0,0.0,0.0,0.0,0.0,0.0,0.0,0.0,0.0,0.0,0.0,0.0,0.0,0.0,0.0,0.0,0.0,0.0,0.0,0.0,0.0,0.0,0.0,0.0,0.0,0.0,0.0,0.0,0.0,0.0,0.0,0.0,0.0,0.0,0.0,0.0,0.0,0.0,0.0,0.0,0.0,0.0,0.0,0.0,0.0,0.0,0.0,0.0,0.0,0.0,0.0,0.0,0.0,0.0,0.0,0.0,0.0,0.0,0.0,0.0,0.0,0.0,0.0,0.0,0.0,0.0,0.0,0.0,0.0,0.0,0.0,0.0,0.0,0.0,0.0,0.0,0.0,0.0,0.0,0.0,0.0,0.0,0.0,0.0,0.0,0.0,0.0,0.0,0.0,0.0,0.0,0.0,0.0,0.0,0.0,0.0,0.0,0.0,0.0,0.0,0.0,0.0,0.0,0.0,0.0,0.0,0.0,0.0,0.0,0.0,0.0,0.0,0.0,0.0,0.0,0.0,0.0,0.0,0.0,0.0,0.0,0.0,0.0,0.0,0.0,0.0,0.0,0.0,0.0,0.0,0.0,0.0,0.0,0.0,0.0,0.0,0.0,0.0,0.0,0.0,0.0,0.0,0.0,0.0,0.0,0.0,0.0,0.0,0.0,0.0,0.0,0.0,0.0,0.0,0.0,0.0,0.0,0.0,0.0,0.0,0.0,0.0,0.0,0.0,0.0,0.0,0.0,0.0,0.0,0.0,-1.9124,0.0,0.0,0.0,0.0,0.0,0.0,0.0,0.0,0.0,0.0,0.0,0.0,0.0,0.0,0.0,0.0,0.0,0.0,0.0,0.0,0.0,0.0,0.0,0.0,-0.7584,-0.7587,-0.7256,-0.7235,-0.7235,-0.7235,-0.6824,0.0,0.0,-0.5371,-0.4889,-0.4274,-0.4198,-0.4214,-0.4341,-0.4444,-0.4758,-0.5267,-0.5094,-0.4956,-0.4838,0.0,0.0,0.0,0.0,0.0,0.0,0.0,0.0,0.0,0.0,0.0,0.0,0.0,0.0,0.0,0.0,0.0,0.0,0.0,0.0,0.0,0.0,0.0,0.0,0.0,0.0,0.0,0.0,0.0,0.0,0.0,0.0,0.0,0.0,0.0,0.0,0.0,0.0,0.0,0.0,0.0,0.0,0.0,0.0,0.0,0.0,0.0,0.0,0.0,0.0,0.0,0.0,0.0,0.0,0.0,0.0,0.0,0.0,0.0,0.0,0.0,0.0,0.0,0.0,0.0,0.0,0.0,0.0,0.0,0.0,0.0,-2.0439,0.0,0.0,0.0,0.0,0.0,0.0,0.0,0.0,0.0,0.0,0.0,0.0,0.0,0.0,0.0,0.0,0.0,0.0,0.0,0.0,0.0,-0.7547,-0.7181,-0.7521,-0.7772,-0.7738,-0.7632,-0.7544,-0.7491,-0.7235,-0.6826,-0.6227,-0.6206,-0.5938,-0.538,-0.5363,-0.5514,-0.5785,-0.5979,-0.6232,-0.6566,-0.7244,-0.7134,-0.6384,-0.6185,0.0,0.0,0.0,0.0,0.0,0.0,0.0,0.0,0.0,0.0,0.0,0.0,0.0,0.0,0.0,0.0,0.0,0.0,0.0,0.0,0.0,0.0,0.0,0.0,0.0,0.0,0.0,0.0,0.0,0.0,0.0,0.0,0.0,0.0,0.0,0.0,0.0,0.0,0.0,0.0,0.0,0.0,0.0,0.0,0.0,0.0,0.0,0.0,0.0,0.0,0.0,0.0,0.0,0.0,0.0,0.0,0.0,0.0,0.0,0.0,0.0,0.0,0.0,-2.4141,-2.4531,-2.4863,-2.4863,-2.5068,-2.5303,-2.3545,-2.2803,-2.2754,0.0,0.0,0.0,0.0,0.0,0.0,0.0,0.0,0.0,0.0,0.0,0.0,0.0,0.0,0.0,0.0,0.0,0.0,0.0,0.0,-0.8731,-0.8563,-0.8741,-0.8852,-0.8722,-0.8184,-0.7756,-0.7504,-0.745,-0.7076,-0.6233,-0.6206,-0.6017,-0.5654,-0.5654,-0.5813,-0.6136,-0.7127,-0.772,-0.7958,-0.8905,-0.9293,-0.9118,-0.809,-0.7763,-0.7937,0.0,0.0,0.0,0.0,0.0,0.0,0.0,0.0,0.0,0.0,0.0,0.0,0.0,0.0,0.0,0.0,0.0,0.0,0.0,0.0,0.0,0.0,0.0,0.0,0.0,0.0,0.0,0.0,0.0,0.0,0.0,0.0,0.0,0.0,0.0,0.0,0.0,0.0,0.0,0.0,0.0,-1.1136,-1.1209,0.0,0.0,0.0,0.0,0.0,0.0,0.0,0.0,0.0,0.0,0.0,0.0,0.0,-2.3867,-2.4607,-2.5439,-2.5908,-2.5967,-2.6387,-2.6621,-2.667,-2.667,-2.6699,-2.6738,-2.6465,0.0,-2.4092,-2.313,0.0,0.0,0.0,0.0,0.0,0.0,0.0,0.0,0.0,0.0,0.0,0.0,0.0,0.0,0.0,0.0,0.0,0.0,0.0,0.0,0.0,-0.9,-0.9103,-0.866,-0.8341,-0.8123,-0.8007,-0.7678,-0.7342,-0.6953,-0.6751,-0.6665,-0.6701,-0.6707,-0.7031,-0.7663,-0.8505,-0.8959,-0.9058,-0.9504,-0.9715,-0.9688,-0.9145,-0.8804,-0.8591,-0.819,0.0,0.0,0.0,0.0,0.0,0.0,0.0,0.0,0.0,0.0,0.0,0.0,0.0,0.0,0.0,0.0,0.0,0.0,0.0,0.0,0.0,0.0,0.0,0.0,0.0,0.0,0.0,0.0,0.0,0.0,0.0,0.0,0.0,0.0,0.0,0.0,0.0,0.0,0.0,-1.0962,-1.1797,-1.2167,-1.2692,-1.3313,0.0,0.0,0.0,0.0,0.0,0.0,0.0,0.0,0.0,-2.456,-2.5254,-2.5898,-2.6573,-2.7383,-2.7812,-2.7812,-2.8242,-2.8447,-2.8447,-2.8447,-2.832,-2.8086,-2.8086,-2.7383,-2.6143,-2.4785,-2.3721,-2.2871,0.0,0.0,0.0,0.0,-2.5052,-2.5814,0.0,0.0,0.0,0.0,0.0,0.0,0.0,0.0,0.0,0.0,0.0,0.0,-0.9292,-0.9539,-0.953,-0.9044,-0.8748,-0.8556,-0.8409,-0.7899,-0.7571,-0.7491,-0.7255,-0.7275,-0.7598,-0.7826,-0.825,-0.8891,-0.9506,-0.9793,-0.9793,-0.9903,-0.9936,-0.9936,-0.9936,-0.9619,-0.9125,-0.8905,-0.8297,-0.7413,0.0,0.0,0.0,0.0,0.0,0.0,0.0,0.0,0.0,0.0,0.0,0.0,0.0,0.0,0.0,0.0,0.0,0.0,0.0,0.0,0.0,0.0,0.0,0.0,0.0,0.0,0.0,0.0,0.0,0.0,0.0,0.0,0.0,0.0,0.0,0.0,0.0,-1.1705,-1.2512,-1.3065,-1.3681,-1.4428,0.0,0.0,0.0,0.0,0.0,0.0,-2.3842,-2.4375,-2.5205,-2.6464,-2.7168,-2.7715,-2.8207,-2.8769,-2.9082,-2.9092,-2.9414,-2.9626,-2.9626,-2.9626,-2.9394,-2.9082,-2.8965,-2.8564,-2.7861,-2.624,-2.5127,-2.4375,-2.3633,-2.3816,-2.4721,-2.647,-2.7544,-2.8454,0.0,0.0,0.0,0.0,0.0,0.0,0.0,0.0,0.0,0.0,0.0,-1.0546,-1.1363,-1.0896,-1.0586,-1.0662,-0.9763,-0.8938,-0.8435,-0.8083,-0.7776,-0.7504,-0.7471,-0.7611,-0.7879,-0.8698,-0.9144,-0.9191,-0.9777,-1.0094,-1.01,-1.0412,-1.0546,-1.0546,-1.0546,-1.0372,-0.9963,-0.9158,-0.8771,-0.8617,-0.7439,0.0,0.0,0.0,0.0,0.0,0.0,0.0,0.0,0.0,0.0,0.0,0.0,0.0,0.0,0.0,0.0,0.0,0.0,0.0,0.0,0.0,0.0,0.0,0.0,0.0,0.0,0.0,0.0,0.0,0.0,0.0,0.0,0.0,0.0,0.0,0.0,0.0,0.0,-1.3981,-1.4783,0.0,0.0,0.0,0.0,-2.1478,-2.3582,-2.5244,-2.6172,-2.6621,-2.7432,-2.8721,-2.8799,-2.9033,-2.9528,-2.9512,-2.9531,-2.9597,-2.9616,-2.9626,-2.9626,-2.9626,-2.9616,-2.9512,-2.9092,-2.8896,-2.875,-2.7451,-2.665,-2.6211,-2.5752,-2.6034,-2.6901,-2.8053,-2.8996,-2.9834,0.0,0.0,0.0,-0.7725,-0.7695,-0.7695,-0.7695,-0.8096,-0.8541,-0.8945,-0.999,-1.0764,-1.0938,-1.1202,-1.1216,-1.0838,-1.0448,-0.9959,-0.9332,-0.8834,-0.84,-0.8098,-0.7698,-0.7812,-0.8452,-0.9172,-0.9619,-0.977,-1.0207,-1.0432,-1.0439,-1.0546,-1.0593,-1.0593,-1.0593,-1.0533,-1.0399,-0.9866,-0.9325,-0.8751,-0.8136,-0.7618,0.0,0.0,0.0,0.0,0.0,0.0,0.0,0.0,0.0,0.0,0.0,0.0,0.0,0.0,0.0,0.0,0.0,0.0,0.0,0.0,0.0,0.0,0.0,0.0,0.0,0.0,0.0,0.0,0.0,0.0,0.0,0.0,0.0,0.0,0.0,0.0,0.0,-1.515,-1.5985,0.0,-1.8015,-1.9846,-2.172,-2.3565,-2.5334,-2.6816,-2.7959,-2.8154,-2.8701,-2.9707,-2.9746,-2.9961,-3.041,-3.042,-3.042,-3.042,-3.042,-3.042,-3.042,-3.042,-3.0254,-2.9961,-2.9805,-2.959,-2.9277,-2.8545,-2.7832,-2.7168,-2.6728,-2.7742,-2.9536,-2.9914,-3.1283,-3.2945,-0.8105,-0.7915,0.0,-0.7695,-0.7695,-0.7695,-0.7695,-0.8223,-0.8799,-0.9365,-1.042,-1.1197,-1.1356,-1.174,-1.1741,-1.1174,-1.1031,-1.0714,-1.0167,-0.9688,-0.9311,-0.9089,-0.8568,-0.8483,-0.8938,-0.9526,-0.9927,-1.0083,-1.0445,-1.0593,-1.0593,-1.0593,-1.0593,-1.0593,-1.0593,-1.0593,-1.0579,-1.0347,-0.9873,-0.9205,-0.8717,-0.8362,-0.7983,0.0,0.0,0.0,0.0,0.0,0.0,0.0,0.0,0.0,0.0,0.0,0.0,0.0,0.0,0.0,0.0,0.0,0.0,0.0,0.0,0.0,0.0,0.0,0.0,0.0,0.0,0.0,0.0,0.0,0.0,0.0,0.0,0.0,0.0,0.0,-1.5364,-1.6046,-1.682,-1.7891,-1.9265,-2.0742,-2.2686,-2.521,-2.6423,-2.7691,-2.9241,-2.9346,-2.9678,-3.041,-3.043,-3.0576,-3.0889,-3.0889,-3.0889,-3.0889,-3.0889,-3.0889,-3.0889,-3.0889,-3.0723,-3.042,-3.0264,-3.0039,-2.9746,-2.9316,-2.8721,-2.8047,-2.7617,-2.8928,-3.1072,-3.1072,-3.2618,-3.4675,-0.7695,-0.7695,-0.7695,-0.7695,-0.7695,-0.7705,-0.7715,-0.8451,-0.9316,-1.0195,-1.1067,-1.1939,-1.2788,-1.2533,-1.2188,-1.185,-1.1533,-1.1193,-1.0863,-1.0581,-1.0429,-1.0374,-1.0004,-0.9597,-0.9231,-0.9797,-1.012,-1.0134,-1.0452,-1.0624,-1.0656,-1.0656,-1.0656,-1.0656,-1.0656,-1.0624,-1.0593,-1.0593,-1.0425,-1.0053,-0.9192,-0.8984,-0.9098,0.0,0.0,0.0,0.0,0.0,0.0,0.0,0.0,0.0,0.0,0.0,0.0,0.0,0.0,0.0,0.0,0.0,0.0,0.0,0.0,0.0,0.0,0.0,0.0,0.0,0.0,0.0,0.0,0.0,0.0,0.0,0.0,0.0,-1.4128,-1.4897,-1.5785,-1.6647,-1.7261,-1.8312,-1.9946,-2.0992,-2.298,-2.6211,-2.6876,-2.8017,-3.0138,-3.0215,-3.042,-3.0879,-3.0889,-3.0889,-3.0889,-3.0889,-3.0889,-3.0889,-3.0889,-3.0889,-3.0889,-3.0889,-3.0889,-3.0869,-3.042,-3.0215,-3.0185,-2.9766,-2.9336,-2.8916,-2.853,-2.9653,-3.1526,-3.1576,-3.2924,-3.4705,-0.7695,-0.7695,-0.7695,-0.7695,-0.7695,-0.7817,-0.8154,-0.8662,-0.9316,-1.0195,-1.1067,-1.18,-1.232,-1.2599,-1.2693,-1.2618,-1.2516,-1.2193,-1.1575,-1.1276,-1.0779,-0.9994,-0.9578,-0.952,-0.9837,-1.0033,-1.0221,-1.0472,-1.0553,-1.0895,-1.1469,-1.1469,-1.1469,-1.1469,-1.1469,-1.1139,-1.0593,-1.0593,-1.0546,-1.0432,-0.994,-0.9679,-0.9506,0.0,0.0,0.0,0.0,0.0,0.0,0.0,0.0,0.0,0.0,0.0,0.0,0.0,0.0,0.0,0.0,0.0,0.0,0.0,0.0,0.0,0.0,0.0,0.0,0.0,0.0,0.0,0.0,0.0,0.0,0.0,-1.4215,-1.5037,-1.5037,-1.6159,-1.7148,-1.7602,-1.819,-1.8919,-1.9828,-2.1104,-2.2976,-2.5562,-2.69,-2.8508,-3.0616,-3.0703,-3.0762,-3.0889,-3.0889,-3.0889,-3.0889,-3.0889,-3.0889,-3.0889,-3.0889,-3.0889,-3.0889,-3.0889,-3.0889,-3.0889,-3.0752,-3.0703,-3.0664,-3.0215,-2.9951,-2.9878,-3.0147,-3.0996,-3.2179,-3.3256,-3.4318,-3.527,-0.7695,-0.7695,-0.7695,-0.7695,-0.7866,-0.8086,-0.8356,-0.8887,-0.9552,-1.043,-1.1164,-1.1819,-1.2432,-1.2725,-1.2905,-1.2905,-1.2905,-1.2725,-1.2295,-1.2278,-1.1875,-1.0975,-1.0985,-1.1069,-1.1145,-1.1255,-1.1409,-1.1608,-1.1264,-1.1507,-1.2297,-1.195,-1.1989,-1.2297,-1.1958,-1.1531,-1.1076,-1.0744,-1.0593,-1.0579,-1.0405,-1.0231,-1.0037,-0.9586,-0.9399,-0.92,-0.8157,-0.7257,-0.6455,-0.5593,0.0,0.0,0.0,0.0,0.0,0.0,0.0,0.0,0.0,0.0,0.0,0.0,0.0,0.0,0.0,0.0,0.0,0.0,0.0,0.0,0.0,0.0,0.0,0.0,-1.5284,-1.6172,-1.6299,-1.7048,-1.7782,-1.833,-1.8818,-1.9339,-1.9927,-2.084,-2.264,-2.5493,-2.6568,-2.8183,-3.0752,-3.0889,-3.0889,-3.0889,-3.0889,-3.0889,-3.0889,-3.0889,-3.0889,-3.0889,-3.0889,-3.0889,-3.0889,-3.0889,-3.0889,0.0,-3.0889,-3.0889,-3.0869,-3.0605,-3.0371,0.0,0.0,0.0,0.0,0.0,-3.5517,-3.5893,-0.7705,-0.7695,-0.7695,-0.7695,-0.8086,-0.8414,-0.8453,-0.9104,-0.9942,-1.0869,-1.134,-1.1917,-1.2807,-1.2905,-1.2905,-1.2905,-1.2905,-1.2925,-1.2949,-1.3225,-1.3159,-1.2634,-1.3174,-1.3223,-1.2655,-1.2874,-1.3009,-1.3009,-1.2297,-1.2358,-1.313,-1.2381,-1.2451,-1.31,-1.2381,-1.2012,-1.1896,-1.1076,-1.0744,-1.0713,-1.0656,-1.0593,-1.0533,-1.001,-0.992,-1.005,-0.9731,-0.8625,-0.7271,-0.7074,0.0,0.0,0.0,0.0,0.0,0.0,0.0,0.0,0.0,0.0,0.0,0.0,0.0,0.0,0.0,0.0,0.0,0.0,0.0,0.0,0.0,0.0,0.0,0.0,-1.6375,-1.7373,-1.7682,-1.7736,-1.8029,-1.8831,-1.9212,-1.9633,-2.018,-2.0679,-2.2364,-2.5769,-2.6158,-2.7632,-3.0704,0.0,0.0,0.0,0.0,-3.0889,-3.0889,-3.0889,-3.0889,-3.0889,-3.0889,-3.0889,-3.0889,-3.0889,-3.0889,-3.0889,-3.0889,-3.0889,-3.0889,-3.0889,-3.0779,-3.0711,-3.1054,-3.2115,-3.3611,-3.5635,-3.6405,0.0,-0.7763,-0.7695,-0.7695,-0.7695,-0.8086,-0.8512,-0.8838,-0.9289,-1.0049,-1.1301,-1.1547,-1.1917,-1.2807,-1.2905,-1.2905,-1.2905,-1.2905,-1.3052,-1.3359,-1.2962,-1.2903,-1.3374,-1.3004,-1.2819,-1.2932,-1.2976,-1.3009,-1.3009,-1.2848,-1.3183,-1.3965,-1.3816,-1.3816,-1.3965,-1.3816,-1.3394,-1.2734,-1.1896,-1.1562,-1.15,-1.0863,-1.0593,-1.0579,-1.0466,-1.0274,-1.0016,-0.9369,-0.8854,-0.8253,-0.6843,-0.6194,-0.5848,-0.5032,-0.4684,0.0,0.0,0.0,0.0,0.0,0.0,0.0,0.0,0.0,0.0,0.0,0.0,0.0,0.0,0.0,0.0,0.0,0.0,0.0,-1.6556,-1.7213,-1.7769,-1.8551,-1.8664,-1.8724,-1.8905,-1.9392,-1.9853,-2.0201,-2.1697,-2.3566,-2.583,-2.7194,-2.8792,-3.0772,-3.0889,0.0,-3.0889,-3.0889,-3.0889,-3.0889,-3.0889,-3.0889,-3.0889,0.0,0.0,-3.0889,-3.0889,-3.0889,-3.0889,-3.0889,-3.0889,-3.0889,-3.0889,-3.1932,-3.3519,-3.2886,-3.39,-3.5803,-3.6241,-3.6405,-3.6405,-0.8392,-0.8353,-0.8285,-0.8086,-0.8584,-0.9065,-0.927,-0.9669,-1.0264,-1.1144,-1.1252,-1.1506,-1.2171,-1.224,-1.224,-1.224,-1.2422,-1.2822,-1.3467,-1.338,-1.3556,-1.4176,-1.4076,-1.4073,-1.4204,-1.4213,-1.4213,-1.4213,-1.3786,-1.3995,-1.4776,-1.4392,-1.4421,-1.4785,-1.4632,-1.4182,-1.3563,-1.2974,-1.2352,-1.1772,-1.1351,-1.0958,-1.0593,-1.0593,-1.0499,-1.0303,-0.9924,-0.9481,-0.8857,-0.7539,-0.6786,-0.6245,-0.5293,-0.4894,-0.4789,0.0,0.0,0.0,0.0,0.0,0.0,0.0,0.0,0.0,0.0,0.0,0.0,0.0,0.0,-1.3477,-1.4701,0.0,-1.6172,-1.7253,-1.7742,-1.8243,-1.8838,-1.9052,-1.9145,-1.9145,-1.9659,-2.0074,-2.0221,-2.1354,-2.3195,-2.5785,-2.6772,-2.8298,-3.0772,-3.0889,-3.0889,-3.0889,-3.0889,-3.0889,-3.0889,-3.0889,-3.0889,-3.0889,-3.0889,-3.0889,-3.0889,-3.0889,-3.0889,-3.0889,-3.0889,-3.0889,-3.0947,-3.171,-3.2973,-3.4406,-3.4411,-3.5356,-3.6782,-3.6505,-3.6405,-3.6405,-0.9023,-0.9141,-0.9092,-0.861,-0.9114,-0.9592,-0.9592,-1.0,-1.043,-1.085,-1.0908,-1.1074,-1.1557,-1.1606,-1.1636,-1.1702,-1.1999,-1.2603,-1.3539,-1.3919,-1.4338,-1.4883,-1.5234,-1.541,-1.541,-1.541,-1.541,-1.541,-1.4746,-1.4746,-1.5381,-1.4746,-1.4823,-1.5517,-1.5254,-1.4934,-1.4529,-1.4068,-1.3135,-1.202,-1.1857,-1.132,-1.0593,-1.0593,-1.0593,-1.0586,-1.0526,-0.9964,-0.909,-0.817,-0.721,-0.6212,-0.5371,-0.5002,-0.487,-0.4806,-0.4843,0.0,0.0,0.0,0.0,0.0,0.0,0.0,0.0,-1.1633,-1.2207,-1.3458,-1.4329,-1.5023,-1.5551,-1.6319,-1.7068,-1.7662,-1.8217,-1.8677,-1.8971,-1.9219,-1.9424,-1.9424,-1.988,-2.0173,-2.0173,-2.1072,-2.2702,-2.5314,-2.6106,-2.7632,-3.0274,-3.0704,-3.0889,-3.0889,-3.0976,-3.1016,-3.1016,-3.1016,-3.1016,-3.1016,-3.0928,-3.0889,-3.0889,-3.0889,-3.0889,-3.0889,-3.0889,-3.0889,-3.1054,-3.2804,-3.3942,-3.467,-3.5784,-3.67,-3.7262,-3.6656,-3.6405,-3.6405,-0.9065,-0.9619,-0.9901,-0.9072,-0.9309,-0.9592,-0.9592,-1.0,-1.043,-1.085,-1.0908,-1.1074,-1.1557,-1.1606,-1.1741,-1.2096,-1.2174,-1.273,-1.3958,-1.4085,-1.4465,-1.5312,-1.5391,-1.541,-1.541,-1.541,-1.541,-1.541,-1.5323,-1.5323,-1.541,-1.5323,-1.5527,-1.6016,-1.5974,-1.5944,-1.5835,-1.5069,-1.4021,-1.2787,-1.2081,-1.132,-1.0593,-1.0593,-1.0593,-1.0559,-1.0261,-0.9665,-0.8849,-0.7763,-0.687,-0.6103,-0.5335,-0.5002,-0.4911,-0.5019,-0.4972,-0.4911,-0.5019,-0.6107,-0.7815,-1.0256,-1.096,-1.1674,0.0,-1.4465,-1.4379,-1.5318,-1.5825,-1.6179,-1.65,-1.7068,-1.7682,-1.829,-1.8664,-1.8978,-1.9279,-1.9403,-1.9424,-1.9424,-1.988,-2.0173,-2.0173,-2.2096,-2.345,-2.3814,-2.6539,-2.8298,-2.8664,-3.0089,-3.0889,-3.0889,-3.126,-3.1445,-3.1445,-3.1445,-3.1445,-3.1445,-3.1064,-3.0889,-3.0889,-3.0889,-3.0889,-3.0889,-3.0889,-3.0889,-3.1112,-3.3923,-3.509,-3.5393,-3.7093,-3.7816,-3.7789,-3.6795,-3.6405,-3.6405,-0.9785,-1.0058,-1.0195,-0.9814,-0.9893,-1.001,-1.001,-1.0166,-1.0361,-1.0518,-1.0547,-1.0635,-1.0821,-1.1056,-1.1357,-1.1797,-1.2057,-1.2642,-1.3675,-1.3968,-1.4377,-1.5019,-1.5283,-1.541,-1.541,-1.541,-1.541,-1.541,-1.541,-1.541,-1.541,-1.541,-1.5508,-1.5693,-1.5977,-1.5948,-1.5703,-1.5645,-1.4574,-1.2978,-1.2634,-1.1756,-1.0573,-1.0367,-1.0301,-1.0287,-1.016,-0.979,0.0,-0.7771,-0.7081,-0.6623,-0.5379,-0.4935,-0.4901,-0.4958,-0.5087,-0.5557,-0.722,-0.8677,-1.0202,-1.211,-1.2846,-1.348,-1.4859,-1.5084,-1.5184,-1.5671,-1.6199,-1.656,-1.6687,-1.7335,-1.7996,-1.8424,-1.8738,-1.9025,-1.9325,-1.9424,-1.9424,-1.9424,-1.9733,-2.0047,-2.0153,-2.1211,-2.2398,-2.3497,-2.5688,-2.7443,-2.8358,-2.9962,-3.0889,-3.0889,-3.1299,-3.1514,-3.1514,-3.1514,-3.1514,-3.1514,-3.1094,-3.0889,-3.0889,-3.0889,-3.0889,-3.0889,-3.0889,-3.0889,-3.1054,-3.3145,-3.4515,-3.5406,-3.6323,-3.7219,-3.7877,-3.682,-3.6405,-3.6405,-1.0303,-1.0303,-1.0303,-1.0303,-1.0303,-1.0303,-1.0303,-1.0303,-1.0303,-1.0303,-1.0303,-1.0352,-1.0439,-1.0732,-1.1133,-1.1721,-1.2041,-1.2574,-1.3447,-1.3763,-1.4182,-1.4756,-1.5078,-1.5293,-1.541,-1.541,-1.541,-1.541,-1.541,-1.541,-1.541,-1.541,-1.5478,-1.5605,-1.5948,-1.5919,-1.5615,-1.5958,-1.4888,-1.3009,-1.3009,-1.2035,-1.0559,-1.0234,-1.0037,-0.9987,-0.9877,-0.9623,-0.9109,-0.7827,-0.7136,-0.6653,-0.5723,-0.5299,-0.5235,-0.5643,-0.6084,-0.6918,-0.9279,-1.0781,-1.2013,-1.348,-1.4286,-1.4836,-1.5137,-1.5364,-1.5578,-1.5738,-1.6233,-1.6613,-1.6693,-1.7368,-1.8043,-1.843,-1.8738,-1.9025,-1.9325,-1.9424,-1.9424,-1.9424,-1.9553,-1.9826,-2.0194,-2.0501,-2.1279,-2.2812,-2.4409,-2.6045,-2.7623,-2.9285,-3.0392,-3.0889,-3.1416,-3.1699,-3.1699,-3.1816,-3.1807,-3.1689,-3.1269,-3.1006,-3.0889,-3.0889,-3.0889,-3.0889,-3.0889,-3.0889,-3.1005,-3.2473,-3.3968,-3.5308,-3.5701,-3.6705,-3.7877,-3.682,-3.6405,-3.6405,-1.0303,-1.0303,-1.0303,-1.0303,-1.0303,-1.0303,-1.0303,-1.0303,-1.0303,-1.0303,-1.0303,-1.0459,-1.085,-1.0878,-1.126,-1.2106,-1.2203,-1.2574,-1.3447,-1.3516,-1.3906,-1.4746,-1.4795,-1.5,-1.54,-1.541,-1.541,-1.541,-1.541,-1.541,-1.541,-1.541,-1.5635,-1.6075,-1.6085,-1.6085,-1.6075,-1.6085,-1.4888,-1.3009,-1.3009,-1.2035,-1.0559,-1.0234,-0.994,-0.9659,-0.9344,-0.8807,-0.8199,-0.7802,-0.6734,-0.5698,-0.6567,-0.6349,-0.6061,-0.7497,-0.8407,-0.9275,-1.0613,-1.1516,-1.2486,-1.4077,-1.4937,-1.5444,-1.5684,-1.5764,-1.5771,-1.5778,-1.6072,-1.6373,-1.6653,-1.7194,-1.7796,-1.839,-1.8738,-1.9025,-1.9325,-1.9424,-1.9424,-1.9424,-1.943,-1.9606,-2.018,-2.0501,-2.0857,-2.1152,-2.2709,-2.4355,-2.5976,-2.7623,-2.9216,-3.083,-3.1709,-3.2148,-3.2148,-3.2559,-3.2549,-3.2148,-3.1709,-3.1289,-3.0889,-3.0889,-3.0889,-3.0889,-3.0889,-3.0889,-3.1005,-3.2473,-3.3968,-3.5308,-3.5701,-3.6705,-3.7877,-3.682,-3.6405,-3.6405,-1.0303,-1.0508,-1.0615,-1.0352,-1.0508,-1.0605,-1.0342,-1.0303,-1.04,-1.0664,-1.0978,0.0,0.0,0.0,0.0,0.0,-1.2467,-1.2783,-1.3076,-1.335,-1.3633,-1.3926,-1.4172,-1.4523,-1.498,-1.5,-1.5127,-1.541,-1.541,-1.541,-1.541,-1.541,-1.5488,-1.5635,-1.5635,-1.5635,-1.5635,-1.5635,-1.5097,-1.4158,-1.3152,-1.2365,-1.166,-1.0328,-0.9773,-0.9646,0.0,-0.8948,-0.8502,-0.7913,-0.7364,-0.6918,-0.6751,-0.6687,-0.6871,-0.7941,-0.9252,-1.0576,-1.1485,-1.2686,-1.3924,-1.486,-1.5251,-1.5471,-1.5718,-1.5784,-1.5784,-1.5784,-1.6066,-1.6348,-1.64,-1.7054,-1.7716,-1.813,-1.8604,-1.9025,-1.9325,-1.9533,-1.9586,-1.945,-1.9706,-2.002,-2.0153,-2.0321,0.0,-2.1069,-2.2654,-2.4294,-2.5915,-2.7503,-2.9157,-3.083,-3.1719,-3.2229,-3.2229,-3.2588,-3.2588,-3.2158,-3.1445,-3.1025,-3.0889,-3.0889,-3.0889,-3.0889,-3.0889,-3.0889,-3.0947,-3.1441,-3.3098,-3.5254,-3.4562,-3.5844,-3.7877,-3.682,-3.6405,-3.6405,-1.0518,-1.0723,-1.0869,-1.0782,-1.083,0.0,0.0,0.0,0.0,0.0,0.0,0.0,0.0,0.0,0.0,0.0,0.0,-1.2905,-1.2905,-1.3135,-1.335,-1.3496,-1.3743,-1.4085,-1.4541,-1.4551,-1.4687,-1.4923,-1.4923,-1.5011,-1.5186,-1.5186,-1.5264,-1.541,-1.541,-1.541,-1.54,-1.5254,-1.4895,-1.43,-1.2913,-1.2142,-1.1637,-1.0094,-0.9526,0.0,-0.9164,-0.8938,-0.8725,-0.8262,-0.8003,-0.7837,-0.7613,-0.7966,-0.8638,-0.9427,-1.0647,-1.1958,-1.2746,-1.378,-1.4823,-1.5404,-1.5551,-1.5598,-1.5738,-1.5784,-1.5751,-1.5698,-1.5825,-1.5992,-1.6092,-1.6573,-1.7194,-1.7876,-1.8457,-1.8945,-1.9452,-1.9773,-1.9887,-1.97,-2.0007,-2.0274,-2.0381,-2.0394,0.0,-2.1069,-2.2097,-2.3683,-2.5855,-2.6953,-2.8545,-3.083,-3.1719,-3.2229,-3.2229,-3.2588,-3.251,-3.1924,-3.123,-3.0889,-3.0889,-3.0889,-3.0889,-3.0889,-3.0889,-3.0889,-3.0889,-3.0889,-3.2664,-3.5199,-3.403,-3.5423,-3.7877,-3.682,-3.6405,-3.6405,-1.0902,-1.0947,-1.1103,0.0,0.0,0.0,0.0,0.0,0.0,0.0,0.0,0.0,0.0,0.0,0.0,0.0,0.0,0.0,-1.2905,-1.2905,-1.3057,-1.3457,-1.3477,-1.3646,-1.4065,-1.4075,-1.4085,-1.4104,-1.4104,-1.4319,-1.4746,-1.4746,-1.4971,-1.5313,-1.5313,-1.5313,-1.5322,-1.4922,-1.4336,-1.3562,-1.2363,-1.1447,-1.0672,-0.9604,-0.9211,-0.9178,-0.8904,-0.8831,-0.8831,-0.8831,-0.8603,-0.843,-0.9114,-1.0097,-1.1156,-1.1792,-1.2559,-1.344,-1.4309,-1.477,-1.5137,-1.5691,-1.5784,-1.5784,-1.5784,-1.5771,-1.5732,-1.5451,-1.5384,-1.5458,-1.5684,-1.5825,-1.6277,-1.7716,-1.829,-1.8811,-1.9679,-2.0067,-2.0193,-2.0173,-2.0261,-2.0381,-2.0648,-2.0688,0.0,-2.1089,0.0,-2.2514,-2.5794,-2.5976,-2.7512,-3.0772,-3.1719,-3.2219,-3.2129,-3.2529,-3.2324,-3.1514,-3.1094,-3.0889,-3.0889,-3.0889,-3.0889,-3.0889,-3.0889,-3.0889,-3.0889,-3.0889,-3.2664,-3.5199,-3.403,-3.5423,-3.7877,-3.682,-3.6405,-3.6405,0.0,0.0,0.0,0.0,0.0,0.0,0.0,0.0,0.0,0.0,0.0,0.0,0.0,0.0,0.0,0.0,0.0,0.0,-1.2905,-1.2905,-1.2954,-1.3062,-1.3037,-1.3242,-1.3627,-1.3636,-1.3792,-1.4104,-1.4104,-1.4163,-1.427,-1.427,-1.4328,-1.4436,-1.4436,-1.4436,-1.4426,-1.4319,-1.4345,-1.4316,-1.2391,-1.1809,-1.1884,-0.9953,-0.9211,-0.9204,-0.9131,-0.9098,-0.9098,-0.9098,-0.9497,-1.0078,-1.0664,-1.1223,-1.1839,-1.2625,-1.334,-1.4008,-1.4669,-1.5224,-1.5645,-1.5792,-1.5784,-1.5784,-1.5784,-1.5665,-1.5484,-1.5411,-1.5224,-1.5142,-1.517,-1.5718,-1.6426,-1.7248,-1.8183,-1.9045,-1.9706,-2.0241,-2.0481,-2.0261,-2.0621,-2.0828,-2.0688,-2.0869,-2.1029,0.0,-2.1109,-2.2514,-2.5794,-2.5976,-2.7512,-3.0772,-3.1719,-3.2012,-3.1689,-3.1787,-3.1728,-3.1514,-3.1094,-3.0889,-3.0889,-3.0889,-3.0889,-3.0889,-3.0889,-3.0889,-3.0889,-3.0889,-3.2664,-3.5199,-3.403,-3.5423,-3.7877,-3.682,-3.6405,-3.6405,0.0,0.0,0.0,0.0,0.0,0.0,0.0,0.0,0.0,0.0,0.0,0.0,0.0,0.0,0.0,0.0,0.0,0.0,0.0,-1.2905,-1.2905,-1.2905,-1.2905,-1.3013,-1.3232,-1.3408,-1.3525,-1.3584,-1.3743,-1.3831,-1.3831,-1.3831,-1.3929,-1.4104,-1.4104,-1.4104,-1.4094,-1.3909,-1.3809,0.0,0.0,-1.1268,-1.119,-0.963,-0.9024,-0.9024,-0.9024,-0.9271,-0.9657,-1.0043,-1.0528,-1.1089,-1.1937,-1.2325,-1.2632,-1.352,-1.4108,-1.4569,-1.503,-1.5484,-1.5784,-1.5784,-1.5784,-1.5718,-1.5504,-1.5424,-1.5251,-1.473,-1.4703,-1.4689,-1.4429,-1.5104,-1.598,-1.6697,-1.7762,-1.8838,-1.9679,-2.0307,-2.0661,-2.0621,-2.0909,-2.1042,-2.0882,-2.1015,-2.1109,0.0,-2.1109,-2.2514,-2.5794,-2.5976,-2.7512,-3.0772,-3.1543,-3.1768,-3.1514,-3.1514,-3.1426,-3.124,-3.1006,-3.0889,-3.0889,-3.0889,-3.0889,-3.0889,0.0,-3.0889,-3.0889,-3.0889,-3.2275,-3.4305,-3.3817,-3.501,-3.6984,-3.6568,-3.6405,-3.6405,0.0,0.0,0.0,0.0,0.0,0.0,0.0,0.0,0.0,-1.1773,-1.2377,-1.2837,-1.2895,-1.2905,0.0,0.0,0.0,0.0,0.0,0.0,-1.2905,-1.2905,-1.2905,-1.2905,-1.2905,-1.3242,-1.3242,-1.2905,-1.3242,-1.3418,-1.3418,-1.3418,-1.3623,-1.3938,-1.3938,-1.3938,-1.3919,-1.3584,-1.3078,-1.245,-1.1285,-1.044,-0.984,0.0,-0.8831,-0.8878,-0.8951,-0.9492,-1.0314,-1.1202,-1.1535,-1.1804,-1.2966,-1.3353,-1.3547,-1.4389,-1.4816,-1.5129,-1.5378,-1.5638,-1.5784,-1.5784,-1.5784,-1.5691,-1.5189,-1.5157,-1.4977,-1.388,-1.4006,-1.4159,-1.3686,-1.4369,-1.5296,-1.6181,-1.7275,-1.8402,-1.9633,-2.0274,-2.0742,-2.1069,-2.1109,-2.1109,-2.1109,-2.1109,-2.1109,-2.1109,-2.1109,-2.2514,-2.5794,-2.5976,-2.7529,-3.085,-3.1269,-3.1465,-3.1514,-3.1465,-3.125,-3.0889,-3.0889,-3.0889,-3.0889,-3.0889,-3.0889,-3.0889,0.0,0.0,-3.0889,-3.0889,-3.1767,-3.3096,-3.3279,-3.4334,-3.5839,-3.6061,-3.6263,-3.6405,0.0,0.0,0.0,0.0,0.0,0.0,-1.2106,-1.2086,-1.2246,-1.2631,-1.2471,-1.248,-1.2866,-1.2905,0.0,0.0,0.0,0.0,0.0,0.0,0.0,-1.2905,-1.2905,-1.2905,-1.2905,-1.2983,-1.2983,-1.2905,-1.2983,-1.2988,-1.2988,-1.2988,-1.3027,-1.3096,-1.3096,-1.3096,-1.3096,-1.3018,-1.2939,-1.2698,-1.136,-1.0737,-1.0491,-0.9263,0.0,0.0,-0.9684,-1.0147,-1.0687,-1.1777,-1.2318,-1.2717,-1.3634,-1.4102,-1.4416,-1.5057,-1.5284,-1.5384,-1.5671,-1.5744,-1.5784,-1.5784,-1.5784,-1.5738,-1.5398,-1.4983,-1.4543,-1.4102,-1.3707,-1.348,-1.358,-1.4369,-1.5296,-1.6181,-1.7275,-1.8402,-1.9633,-2.0094,-2.0508,-2.1049,-2.1109,-2.1109,-2.1109,-2.1109,-2.1109,0.0,-2.1109,-2.2514,-2.5794,-2.5976,-2.7651,-3.1278,-3.1143,-3.1162,-3.1514,-3.1172,-3.0967,-3.0889,-3.0889,-3.0889,-3.0889,-3.0889,-3.0889,-3.0889,0.0,0.0,-3.0889,-3.0889,-3.1767,-3.3039,-3.2268,-3.3546,-3.5687,-3.5013,-3.5463,-3.6405,0.0,0.0,0.0,0.0,0.0,0.0,-1.2837,-1.2866,-1.3022,-1.3477,-1.3324,-1.3198,-1.3213,-1.3042,-1.2905,0.0,0.0,0.0,0.0,0.0,0.0,-1.2905,-1.2905,-1.2905,-1.2905,-1.3096,-1.3096,-1.2905,0.0,-1.3096,-1.2905,-1.2905,-1.2905,-1.2905,-1.2905,-1.2905,-1.2905,-1.2905,-1.2691,-1.2264,-1.1413,-1.0842,-1.0453,0.0,0.0,0.0,-0.996,-1.0307,-1.072,-1.1557,-1.2144,-1.2764,-1.3935,-1.4516,-1.4836,-1.5271,-1.5504,-1.5651,-1.5792,-1.5784,-1.5784,-1.5784,-1.5718,-1.5451,-1.485,-1.4496,-1.4082,-1.3313,-1.3186,-1.3153,-1.2979,-1.3801,-1.4696,-1.5271,-1.6353,-1.7589,-1.8931,-1.9499,-2.0054,-2.0795,-2.1022,-2.1109,-2.1109,-2.1109,-2.1109,-2.1109,-2.1109,-2.2514,-2.5794,-2.7632,-2.9378,-3.1123,-3.0996,-3.0986,-3.1191,-3.0996,-3.0889,-3.0889,-3.0889,-3.0889,-3.0889,-3.0889,-3.0889,-3.0889,-3.0889,0.0,-3.0889,-3.0889,-3.1334,-3.1954,-3.1685,-3.2844,-3.4636,-3.4457,-3.5271,-3.6405,0.0,0.0,0.0,0.0,0.0,0.0,-1.332,-1.3447,-1.3627,-1.4055,-1.4104,-1.3977,-1.3656,-1.3271,-1.3003,0.0,0.0,0.0,0.0,0.0,0.0,0.0,0.0,-1.2905,-1.2905,0.0,0.0,-1.3042,-1.335,0.0,0.0,0.0,0.0,0.0,-1.2905,-1.2905,-1.2905,-1.2905,-1.2508,0.0,0.0,-1.0933,0.0,0.0,0.0,0.0,0.0,-1.0392,-1.068,-1.1229,-1.173,-1.2351,-1.3707,-1.4436,-1.4888,-1.5204,-1.5504,-1.5752,-1.5764,-1.5784,-1.5784,-1.5784,-1.5611,-1.5184,-1.4369,-1.4082,-1.3687,-1.2619,-1.2726,-1.2906,-1.2559,-1.332,-1.4148,-1.4629,-1.5538,-1.672,-1.827,-1.8945,-1.9619,-2.0561,-2.0935,-2.1109,-2.1109,-2.1109,-2.1109,-2.1109,-2.1783,0.0,-2.5855,-2.8792,-3.0518,-3.0889,-3.0889,-3.0889,-3.0889,-3.0889,-3.0889,-3.0889,-3.0889,-3.0889,-3.0889,-3.0889,-3.0889,-3.0889,-3.0889,0.0,0.0,-3.0889,-3.083,-3.077,-3.1055,-3.1943,-3.3121,-3.375,-3.4812,-3.6013,0.0,0.0,0.0,0.0,0.0,0.0,-1.2954,-1.3262,-1.3627,-1.4055,-1.4104,-1.4094,-1.4055,-1.3701,-1.3301,0.0,0.0,0.0,0.0,0.0,0.0,0.0,0.0,0.0,0.0,0.0,0.0,-1.3447,-1.3486,0.0,0.0,0.0,0.0,0.0,0.0,-1.2905,-1.2905,-1.2905,0.0,0.0,0.0,0.0,0.0,0.0,0.0,0.0,0.0,-1.0566,-1.068,-1.1229,-1.1429,-1.167,-1.265,-1.3527,-1.4318,-1.4881,-1.5211,-1.5491,-1.5711,-1.5784,-1.5784,-1.5784,-1.5611,-1.5237,-1.4623,-1.4026,-1.35,-1.2878,-1.2569,-1.2538,-1.3039,-1.3393,-1.3999,-1.5137,-1.5625,-1.648,-1.8243,-1.8764,-1.9392,-2.0541,-2.0935,-2.1109,-2.1109,-2.1109,-2.1109,-2.1109,0.0,0.0,-2.5976,-2.7692,-2.9344,-3.083,-3.0889,-3.0889,-3.0889,-3.0889,-3.0889,-3.0889,-3.0889,-3.0889,-3.0889,-3.0889,-3.0889,-3.0889,-3.0889,0.0,0.0,-3.0889,-3.0644,-3.0215,-2.9914,-3.0387,-3.1328,-3.2177,-3.3403,-3.4775,0.0,0.0,0.0,0.0,0.0,0.0,-1.3213,-1.3398,-1.375,-1.4434,-1.4521,-1.4521,-1.4521,-1.4141,-1.3588,-1.2964,0.0,0.0,0.0,0.0,0.0,0.0,0.0,0.0,0.0,0.0,-1.334,-1.3506,-1.3734,0.0,0.0,0.0,0.0,0.0,0.0,-1.3125,-1.2925,-1.3154,0.0,0.0,0.0,0.0,0.0,0.0,0.0,0.0,0.0,0.0,-1.0626,-1.0861,-1.1022,-1.1229,-1.1618,-1.2298,-1.3233,-1.4369,-1.4903,-1.5237,-1.5705,-1.5784,-1.5784,-1.5784,-1.5478,-1.4983,-1.4396,-1.3801,-1.3213,-1.2605,-1.2385,-1.2432,-1.2891,-1.318,-1.3707,-1.4703,-1.5117,-1.5798,-1.7215,-1.7822,-1.8557,-1.9746,-2.0301,-2.0722,-2.1076,-2.1109,-2.1109,-2.1109,0.0,0.0,-2.5915,-2.8486,-3.0206,-3.0889,-3.0889,-3.0889,-3.0889,-3.0889,-3.0889,-3.0889,-3.0889,-3.0889,-3.0889,-3.0889,-3.0889,-3.0889,-3.0889,0.0,0.0,-3.0889,-3.0615,-3.0156,-2.9736,-3.0158,-3.1116,-3.1962,-3.3204,-3.4581,0.0,0.0,0.0,0.0,0.0,-1.3013,-1.3281,-1.3428,-1.3721,-1.4326,-1.4512,-1.459,-1.459,-1.4182,-1.3734,-1.3291,-1.3052,0.0,0.0,0.0,0.0,0.0,0.0,0.0,0.0,0.0,-1.3633,-1.3887,-1.428,-1.4416,0.0,0.0,-1.4192,-1.3665,0.0,0.0,0.0,0.0,0.0,0.0,0.0,0.0,0.0,0.0,0.0,0.0,0.0,0.0,0.0,0.0,0.0,-1.1122,-1.1122,-1.1603,-1.2432,-1.3748,-1.4462,-1.4963,-1.5545,-1.5718,-1.5784,-1.5784,-1.5391,-1.4854,-1.4222,-1.3634,-1.3039,-1.2432,-1.2371,-1.2525,-1.2864,-1.3133,-1.3601,-1.4346,-1.477,-1.5417,-1.654,-1.7215,-1.7996,-1.9105,-1.9673,-2.0207,-2.0795,-2.1435,-2.1601,-2.1172,0.0,0.0,0.0,-2.8673,-3.0401,-3.0889,-3.0889,-3.0889,-3.0889,-3.0889,-3.0889,-3.0889,-3.0889,-3.0889,-3.0889,-3.0889,-3.0889,-3.0889,0.0,0.0,0.0,-3.0742,-3.042,-2.9971,-2.9541,-2.9694,-3.0303,-3.1354,-3.2342,-3.3464,0.0,0.0,0.0,0.0,0.0,-1.2905,-1.2915,-1.3242,-1.3516,-1.3516,-1.386,-1.4114,-1.4114,-1.3743,-1.3656,-1.4055,-1.3359,0.0,0.0,0.0,0.0,0.0,0.0,0.0,0.0,0.0,-1.3926,-1.4803,-1.5195,-1.5186,-1.4813,-1.5205,-1.4913,-1.4085,0.0,0.0,0.0,0.0,0.0,0.0,0.0,0.0,-1.1322,0.0,0.0,0.0,0.0,0.0,0.0,0.0,0.0,0.0,0.0,-1.163,-1.2087,-1.2959,-1.3841,-1.4649,-1.5244,-1.5611,-1.5784,-1.5784,-1.5391,-1.4854,-1.4222,-1.3634,-1.3039,-1.2432,-1.2569,-1.2878,-1.3153,-1.34,-1.3793,-1.4379,-1.477,-1.5417,-1.654,-1.7215,-1.7916,-1.8824,-1.9192,-1.9606,-2.0187,-2.2226,-2.2897,0.0,0.0,0.0,0.0,-2.7563,-2.9216,-3.083,-3.0889,-3.0889,-3.0889,-3.0889,-3.0889,-3.0889,-3.0889,-3.0889,-3.0889,-3.0889,-3.0889,0.0,0.0,0.0,0.0,-3.0391,-2.9961,-2.9531,-2.9092,-2.8662,-2.8504,-2.9807,-3.0317,-3.0721,0.0,0.0,0.0,0.0,0.0,0.0,-1.2905,-1.3023,-1.3184,-1.3467,-1.3623,-1.3792,-1.4075,-1.3987,-1.3968,-1.4094,-1.3359,0.0,0.0,0.0,0.0,0.0,0.0,0.0,0.0,-1.3763,-1.4328,-1.5215,-1.5644,-1.5947,-1.6113,-1.5937,-1.5547,-1.4962,-1.457,-1.4287,0.0,0.0,0.0,0.0,0.0,-1.1369,-1.1109,0.0,0.0,0.0,0.0,0.0,0.0,0.0,0.0,0.0,0.0,0.0,0.0,-1.3395,-1.3687,-1.3966,-1.4396,-1.4716,-1.489,-1.4689,-1.4502,-1.4208,-1.3621,-1.3347,-1.3289,-1.3654,-1.324,-1.3163,-1.4417,-1.4054,-1.4254,-1.6176,-1.5819,-1.5918,-1.7822,-1.7818,-1.7916,-1.8818,-1.9887,-2.0628,0.0,0.0,-2.3387,0.0,0.0,0.0,0.0,-2.811,-2.9157,-3.083,-3.0889,-3.0889,-3.0889,-3.0889,-3.0889,-3.0889,-3.0889,-3.0889,-3.0889,-3.0889,0.0,0.0,0.0,0.0,0.0,-3.0264,-2.9775,-2.9111,-2.8975,-2.8662,-2.8441,-2.9817,-3.0317,-3.0669,0.0,0.0,0.0,0.0,0.0,0.0,-1.2905,-1.2905,-1.2993,-1.3232,-1.3271,-1.3437,-1.3821,-1.387,-1.4007,-1.4328,-1.375,0.0,0.0,0.0,0.0,0.0,0.0,0.0,-1.3704,-1.3968,-1.4601,-1.5654,-1.6103,-1.6455,-1.6697,-1.6611,-1.6271,-1.5635,-1.5215,-1.4873,0.0,0.0,0.0,0.0,-1.308,-1.2406,-1.1642,0.0,0.0,0.0,0.0,0.0,0.0,0.0,0.0,0.0,0.0,0.0,0.0,0.0,-1.4201,-1.4291,-1.4008,-1.4375,-1.4844,-1.4657,-1.4809,-1.4868,-1.4388,-1.4178,-1.4227,-1.463,-1.4388,-1.4415,-1.5451,-1.5273,-1.5553,-1.7352,-1.6609,-1.666,-1.8889,-1.8831,-1.8893,-1.99,-2.1019,0.0,0.0,-2.3046,0.0,0.0,0.0,0.0,0.0,-2.8417,-2.9157,-3.083,-3.0889,-3.0889,-3.0889,-3.0889,-3.0889,-3.0889,-3.0889,-3.0889,-3.0889,-3.0889,0.0,0.0,0.0,0.0,0.0,-2.9775,-2.9404,-2.8896,-2.874,-2.8525,-2.8398,-2.926,-2.9565,-2.9859,0.0,0.0,0.0,0.0,0.0,0.0,0.0,-1.2905,-1.2905,-1.2905,-1.2905,-1.3027,-1.3418,-1.3516,-1.3877,-1.4668,-1.4424,0.0,0.0,0.0,0.0,0.0,0.0,0.0,-1.4133,-1.4182,-1.4816,-1.6144,-1.6592,-1.6804,-1.6843,-1.7285,-1.7034,-1.6163,-1.5703,-1.5469,0.0,0.0,0.0,0.0,-1.4851,-1.4304,0.0,0.0,0.0,0.0,0.0,0.0,0.0,0.0,0.0,0.0,0.0,0.0,0.0,0.0,0.0,0.0,0.0,-1.4595,-1.5509,-1.5487,-1.5981,-1.6366,-1.6008,-1.5765,0.0,-1.5377,-1.5786,-1.6236,-1.637,-1.6928,-1.7556,-1.8138,-1.7459,-1.7625,-1.9997,-2.0297,-2.0704,-2.1892,-2.2536,0.0,-2.0766,-2.3969,0.0,0.0,0.0,0.0,0.0,-2.8605,-2.9285,-3.083,-3.0889,-3.0889,-3.0889,-3.0889,-3.0889,-3.0889,-3.0889,-3.0869,-3.084,-3.084,0.0,0.0,0.0,0.0,0.0,-2.9082,-2.8896,-2.8838,-2.8447,-2.8291,-2.8291,-2.8291,-2.8291,-2.8495,0.0,0.0,0.0,0.0,0.0,0.0,0.0,0.0,0.0,0.0,-1.2905,-1.2944,-1.3042,-1.3578,-1.4036,0.0,0.0,0.0,0.0,0.0,0.0,0.0,0.0,0.0,-1.4619,-1.4941,-1.5566,-1.6541,-1.7301,-1.7837,-1.8159,-1.8256,-1.7891,-1.7051,-1.659,-1.6015,0.0,0.0,0.0,0.0,-1.4119,-1.3434,0.0,0.0,0.0,0.0,-1.2515,-1.3092,0.0,0.0,0.0,0.0,0.0,0.0,0.0,0.0,-1.6236,-1.6139,-1.5093,0.0,-1.5525,-1.5335,-1.5548,-1.5745,0.0,-1.5486,-1.5813,-1.6588,-1.6451,-1.6631,-1.8083,-1.8059,-1.8473,-2.035,-1.9639,-1.962,-2.2009,-2.2642,-2.3197,-2.408,-2.4817,-2.5073,-2.4701,0.0,0.0,0.0,0.0,0.0,0.0,-3.0333,-3.0518,-3.0889,-3.0889,-3.0889,-3.0889,-3.0889,-3.0889,-3.0889,-3.0889,-3.0703,-3.0361,-3.0361,0.0,0.0,0.0,0.0,-2.9062,-2.8965,-2.873,-2.8428,-2.833,-2.8291,-2.8291,-2.8291,-2.8291,-2.8495,0.0,0.0,0.0,0.0,0.0,0.0,0.0,0.0,0.0,0.0,-1.2905,-1.2905,-1.2905,-1.3633,-1.4104,0.0,0.0,0.0,0.0,0.0,0.0,0.0,0.0,-1.4309,-1.4803,-1.5195,-1.5937,-1.7031,-1.749,-1.8144,-1.8926,-1.85,-1.8105,-1.7637,-1.6797,-1.5969,0.0,0.0,0.0,-1.4739,-1.4639,0.0,0.0,0.0,0.0,0.0,-1.3122,-1.3418,0.0,-1.4539,-1.5184,-1.567,0.0,0.0,0.0,0.0,-1.7242,-1.7139,-1.6611,-1.6571,-1.6618,-1.6484,-1.688,-1.7269,-1.7099,-1.6902,-1.6865,-1.7458,-1.7615,-1.7921,-1.8956,-1.9326,-1.9956,-2.1455,-2.0908,-2.1177,-2.3656,-2.5091,-2.5963,-2.6218,-2.6721,-2.6832,0.0,0.0,0.0,0.0,0.0,0.0,0.0,-3.0889,-3.0889,-3.0889,-3.0889,-3.0889,-3.0889,-3.0889,-3.0889,-3.0889,-3.0674,-3.0439,-3.0185,-3.0,-2.9678,0.0,0.0,0.0,-2.8633,-2.8633,-2.8496,-2.8291,-2.8291,-2.8291,-2.8291,-2.8291,-2.8291,-2.8398,0.0,0.0,0.0,0.0,0.0,0.0,0.0,0.0,0.0,0.0,0.0,0.0,0.0,0.0,0.0,0.0,0.0,0.0,0.0,0.0,0.0,0.0,-1.4338,-1.4531,-1.4999,-1.54,-1.6191,-1.7383,-1.7578,-1.8223,-1.9277,-1.8613,-1.8164,-1.7861,-1.6721,-1.5777,0.0,0.0,-1.5965,-1.4685,-1.5641,0.0,0.0,0.0,0.0,0.0,0.0,0.0,0.0,-1.567,-1.633,-1.6327,-1.7437,0.0,0.0,0.0,0.0,0.0,-1.8164,-1.8237,-1.8257,-1.8073,-1.8682,-1.9365,-1.9307,-1.8721,-1.8203,-1.8203,-1.8828,-1.9424,-1.9561,-2.0547,-2.1514,-2.209,-2.2092,-2.2757,-2.5066,-2.7046,-2.8231,-2.8086,-2.8454,0.0,0.0,0.0,0.0,0.0,0.0,0.0,0.0,-3.0693,-3.0693,-3.0693,-3.0693,-3.0693,-3.0693,-3.082,-3.0859,-3.0781,-3.0391,-3.0127,-2.999,-2.9639,-2.9238,0.0,0.0,0.0,-2.8291,-2.8291,-2.8291,-2.8291,-2.8291,-2.8291,-2.8291,-2.8291,-2.8252,-2.8247,0.0,0.0,0.0,0.0,0.0,0.0,0.0,0.0,0.0,0.0,0.0,0.0,0.0,0.0,0.0,0.0,0.0,0.0,0.0,0.0,0.0,-1.5791,-1.541,-1.542,-1.5889,-1.6299,-1.6807,-1.7383,-1.8467,-1.9102,-1.9287,-1.9521,-1.8857,-1.7461,-1.6885,-1.6354,-1.5991,-1.6902,-1.7145,-1.6811,-1.5928,0.0,0.0,0.0,0.0,0.0,0.0,0.0,0.0,-1.5584,-1.6303,-1.7151,-1.6957,0.0,0.0,0.0,0.0,0.0,-1.8896,-1.9642,-1.9907,-1.8788,-1.9168,-1.9727,-1.9365,-1.9189,-1.9092,-1.9092,-1.9482,-2.0049,-2.0761,-2.1396,-2.2158,-2.331,-2.4346,-2.5305,0.0,0.0,-2.8524,-2.9261,0.0,0.0,0.0,0.0,0.0,0.0,0.0,0.0,0.0,-2.9832,-2.9832,-2.9832,-2.9832,-2.9832,-2.9832,-3.0518,-3.0693,-3.0303,-3.0234,-2.9814,-2.9111,-2.9053,-2.8789,0.0,0.0,-2.835,-2.8291,-2.8291,-2.8291,-2.8291,-2.8291,-2.8291,-2.8291,-2.8291,-2.8066,-2.7914,0.0,0.0,0.0,0.0,0.0,0.0,0.0,0.0,0.0,0.0,0.0,0.0,0.0,0.0,0.0,0.0,0.0,0.0,0.0,0.0,-1.5605,-1.6075,-1.5899,-1.5889,-1.6085,-1.6953,-1.7594,-1.8057,-1.8887,-1.9521,-2.0008,-1.9697,-1.8789,-1.7373,-1.7178,-1.6973,-1.6838,-1.7239,-1.7235,-1.6899,0.0,0.0,0.0,0.0,0.0,0.0,0.0,0.0,0.0,0.0,-1.6328,-1.7041,-1.708,0.0,0.0,0.0,0.0,0.0,-1.8154,-1.9089,-1.9785,-1.9414,-2.0156,-2.0928,-2.0732,-2.0322,-2.0018,-2.0018,-2.0322,-2.0713,-2.1122,-2.1777,-2.2715,-2.4228,-2.5185,-2.6055,-2.6953,-2.7783,-2.8525,0.0,0.0,0.0,0.0,0.0,0.0,0.0,0.0,0.0,0.0,0.0,-2.9626,-2.9626,-2.9626,-2.9626,-2.9626,-2.9971,-3.0068,-2.9853,-2.9619,-2.9307,-2.8916,-2.8682,-2.8476,-2.8291,0.0,-2.8291,-2.8291,-2.8291,-2.8291,-2.8291,-2.8291,-2.8291,-2.8262,-2.8037,-2.7685,-2.7388,0.0,0.0,0.0,0.0,0.0,0.0,0.0,0.0,0.0,0.0,0.0,0.0,0.0,0.0,0.0,0.0,0.0,0.0,0.0,-1.5566,-1.5762,-1.6232,-1.6349,-1.6447,-1.6545,-1.75,-1.8237,-1.8754,-1.9228,-1.9717,-2.0292,-1.9492,-1.8506,-1.7393,-1.749,-1.7471,-1.7425,-1.749,-1.7283,-1.6886,0.0,0.0,0.0,0.0,0.0,0.0,0.0,0.0,0.0,0.0,0.0,0.0,0.0,0.0,0.0,-1.7598,-1.7461,-1.7484,-1.7744,-1.8467,-1.9287,-1.9912,-2.083,-2.166,-2.1963,-2.1357,-2.082,-2.0977,-2.1299,-2.1492,-2.1492,-2.2272,-2.3389,-2.4707,-2.5547,-2.6387,-2.7373,-2.7969,-2.8447,0.0,0.0,0.0,0.0,0.0,0.0,0.0,0.0,0.0,0.0,0.0,-2.9323,-2.9323,-2.9323,-2.9323,-2.9323,-2.9323,-2.9316,-2.9414,-2.9082,-2.8867,-2.876,-2.8437,-2.8291,-2.8291,-2.8291,-2.8232,-2.8144,-2.8144,-2.8086,-2.7988,-2.7988,-2.7988,-2.7949,-2.7519,-2.7158,-2.6906,0.0,0.0,0.0,0.0,0.0,0.0,0.0,0.0,0.0,0.0,0.0,0.0,0.0,0.0,0.0,0.0,0.0,0.0,0.0,-1.6046,-1.6221,-1.6638,-1.707,-1.7471,-1.7861,-1.7959,-1.8418,-1.9238,-1.9668,-1.9697,-1.9365,-1.8861,-1.8213,-1.7435,-1.7793,-1.7744,-1.7402,-1.7803,-1.7944,-1.7867,-1.7482,0.0,0.0,0.0,0.0,0.0,0.0,0.0,0.0,0.0,0.0,0.0,0.0,0.0,-1.75,-1.7861,-1.7686,-1.7646,-1.8828,-1.8926,-1.8975,-2.0243,-2.0625,-2.1016,-2.2197,-2.1765,-2.1375,-2.2207,-2.2402,-2.2422,-2.2422,-2.3437,-2.4316,-2.4443,-2.585,-2.6953,-2.7051,0.0,0.0,0.0,0.0,0.0,0.0,0.0,0.0,0.0,0.0,0.0,0.0,0.0,0.0,-2.8389,-2.8389,-2.8389,-2.8389,-2.8389,-2.8584,-2.8965,-2.8935,-2.8711,-2.834,-2.8301,-2.8291,-2.8291,-2.8291,-2.8066,-2.7767,-2.7767,-2.7471,-2.7109,-2.7109,-2.7109,-2.7051,-2.6631,-2.6455,-2.6566,0.0,0.0,0.0,0.0,0.0,0.0,0.0,0.0,0.0,0.0,0.0,0.0,0.0,0.0,0.0,0.0,0.0,0.0,0.0,-1.5547,-1.5859,-1.6299,-1.6506,-1.6926,-1.7607,-1.8398,-1.9092,-1.9678,-1.9834,-1.9697,-1.9277,-1.8812,-1.8432,-1.812,-1.8057,-1.793,-1.7783,-1.7939,-1.8008,-1.7998,-1.7842,-1.7353,0.0,0.0,0.0,0.0,0.0,0.0,0.0,0.0,-1.587,-1.6153,-1.6486,-1.6975,-1.7363,-1.7246,-1.7067,-1.708,-1.7535,-1.812,-1.8783,-1.958,-2.0381,-2.125,-2.2275,-2.2471,-2.2676,-2.3525,-2.3691,-2.3613,-2.335,-2.3916,-2.4502,-2.4775,-2.584,-2.6816,-2.7344,0.0,0.0,0.0,0.0,0.0,0.0,0.0,0.0,0.0,0.0,0.0,0.0,0.0,0.0,-2.8291,-2.8291,-2.8291,-2.8291,-2.8291,-2.8369,-2.8535,-2.8535,-2.8447,-2.8291,-2.8291,-2.8144,-2.791,-2.791,-2.7656,-2.7266,-2.7266,-2.7168,-2.7012,-2.7012,-2.6855,-2.6602,-2.6445,-2.6221,-2.6006,0.0,0.0,0.0,0.0,0.0,0.0,0.0,0.0,0.0,0.0,0.0,0.0,0.0,0.0,0.0,0.0,0.0,0.0,-1.457,-1.5098,-1.5547,-1.587,-1.6153,-1.6652,-1.7363,-1.8369,-1.9092,-1.9475,-1.9475,-1.9365,-1.9072,-1.8607,-1.8481,-1.8588,-1.8159,-1.8086,-1.8159,-1.8066,-1.8008,-1.8008,-1.8008,-1.7578,0.0,0.0,0.0,0.0,0.0,0.0,0.0,0.0,-1.5723,-1.5938,-1.6191,-1.6623,-1.6966,-1.6746,-1.6794,-1.6941,-1.7067,-1.7837,-1.8734,-1.9346,-2.0264,-2.1318,-2.2409,-2.2949,-2.3443,-2.4248,-2.4307,-2.417,-2.4014,-2.4219,-2.456,0.0,-2.581,-2.6592,0.0,0.0,0.0,0.0,0.0,0.0,0.0,0.0,0.0,0.0,0.0,0.0,0.0,0.0,0.0,0.0,-2.7891,-2.7891,-2.7891,-2.7891,-2.7891,-2.7891,-2.7891,-2.8027,-2.8291,-2.8154,-2.7939,-2.7708,-2.7519,-2.7217,-2.6816,-2.6816,-2.6738,-2.6611,-2.6611,-2.6435,-2.6182,-2.6182,-2.5996,-2.5781,0.0,0.0,0.0,0.0,0.0,0.0,0.0,0.0,0.0,0.0,0.0,0.0,0.0,0.0,0.0,0.0,0.0,0.0,-1.4075,-1.4894,-1.54,-1.5371,-1.621,-1.6882,-1.7353,-1.7783,-1.8178,-1.8598,-1.8598,-1.8598,-1.8588,-1.8178,-1.8208,-1.8578,-1.8159,-1.8208,-1.8559,-1.8149,-1.8008,-1.8008,-1.8008,-1.7754,-1.7334,0.0,0.0,0.0,0.0,0.0,0.0,0.0,-1.5762,-1.5537,-1.6414,-1.6426,-1.6193,-1.657,-1.7041,-1.748,-1.7881,-1.8276,-1.8812,-1.9697,-2.0254,-2.1035,-2.2711,-2.3154,-2.3452,-2.4258,-2.4092,-2.3926,-2.4346,-2.4424,-2.456,-2.5047,-2.581,-2.6387,0.0,0.0,0.0,0.0,0.0,0.0,0.0,0.0,0.0,0.0,0.0,0.0,0.0,0.0,0.0,0.0,-2.7012,-2.7012,-2.7012,-2.7012,-2.7012,-2.7012,-2.7012,-2.7461,-2.8262,-2.7851,-2.7708,-2.7679,-2.7197,-2.6768,-2.6387,-2.6387,-2.6133,-2.5693,-2.5693,-2.5693,-2.5693,-2.5693,-2.5693,-2.5878,0.0,0.0,0.0,0.0,0.0,0.0,0.0,0.0,0.0,0.0,0.0,0.0,0.0,0.0,0.0,0.0,0.0,0.0,-1.3656,-1.4182,-1.4621,-1.4951,-1.5225,-1.5557,-1.5986,-1.6697,-1.7574,-1.8598,-1.8598,-1.8598,-1.8598,-1.8481,-1.8325,-1.8203,-1.8344,-1.7983,-1.7282,-1.749,-1.7568,-1.7568,-1.7568,-1.75,-1.7334,0.0,0.0,0.0,0.0,0.0,0.0,0.0,0.0,0.0,-1.5693,-1.6348,-1.6926,-1.6437,-1.7002,-1.7725,-1.7204,-1.8086,-1.915,-1.9414,-2.0713,-2.2148,-2.2916,-2.3379,-2.3935,-2.506,-2.499,-2.4773,-2.4853,-2.4873,0.0,-2.5096,-2.5557,0.0,0.0,0.0,0.0,0.0,0.0,0.0,0.0,0.0,0.0,0.0,0.0,0.0,0.0,0.0,0.0,0.0,-2.7012,-2.7012,-2.7012,-2.7012,-2.7012,-2.7012,-2.7012,-2.7148,-2.7393,-2.7266,-2.7041,-2.6758,-2.6631,-2.6328,-2.5937,-2.5937,-2.581,-2.5693,-2.5693,-2.5693,-2.5693,-2.5693,-2.5693,-2.5732,0.0,0.0,0.0,0.0,0.0,0.0,0.0,0.0,0.0,0.0,-1.3242,-1.3506,0.0,0.0,0.0,0.0,0.0,0.0,0.0,-1.3782,-1.4221,-1.4512,-1.4853,-1.5234,-1.5664,-1.6336,-1.7077,-1.7847,-1.8022,-1.81,-1.81,-1.81,-1.8149,-1.8227,-1.8315,-1.7925,-1.7213,-1.7344,-1.7383,-1.7383,-1.7383,-1.7383,-1.7334,0.0,0.0,0.0,0.0,0.0,0.0,0.0,0.0,0.0,-1.541,-1.5957,-1.6562,-1.6387,-1.7129,-1.8008,-1.7964,-1.9004,-2.0146,-2.0478,-2.1553,-2.2666,-2.3262,-2.3857,-2.4521,-2.5312,-2.5254,-2.5116,-2.5116,-2.5116,0.0,-2.5303,0.0,0.0,0.0,0.0,0.0,0.0,0.0,0.0,0.0,0.0,0.0,0.0,0.0,0.0,0.0,0.0,0.0,0.0,-2.6454,-2.6454,-2.6454,-2.6454,-2.6454,-2.6454,-2.6454,-2.6454,-2.6464,-2.6689,-2.6631,-2.6377,-2.6201,-2.5977,-2.5693,-2.5693,-2.5693,-2.5693,-2.5693,-2.5693,-2.5693,-2.5693,-2.5693,-2.5693,0.0,0.0,-1.3057,-1.3437,0.0,0.0,0.0,0.0,0.0,-1.2964,-1.3271,-1.3506,0.0,0.0,0.0,-1.3447,-1.3105,-1.2905,0.0,-1.3633,-1.4065,-1.4104,-1.4962,-1.5674,-1.6144,-1.6523,-1.6677,-1.6638,-1.7109,-1.7376,-1.7383,-1.7422,-1.7832,-1.8471,-1.8164,-1.7939,-1.7812,-1.7422,-1.7298,-1.7298,-1.7298,-1.7285,-1.7275,-1.6765,0.0,0.0,0.0,0.0,0.0,0.0,0.0,0.0,-1.541,-1.5439,-1.5644,-1.6365,-1.7272,-1.8311,-1.9434,-2.0401,-2.1337,-2.2246,-2.2539,-2.2832,-2.3613,-2.4424,-2.5057,-2.5057,-2.5057,-2.5067,-2.5106,-2.5116,-2.5215,-2.5615,0.0,0.0,0.0,0.0,0.0,0.0,0.0,0.0,0.0,0.0,0.0,0.0,0.0,0.0,0.0,0.0,0.0,0.0,-2.5693,-2.5693,-2.5693,-2.5693,-2.5693,0.0,-2.5693,-2.5693,-2.5703,-2.6143,-2.6328,-2.6309,-2.5908,-2.5693,-2.5693,-2.5693,-2.5693,-2.5684,-2.5645,-2.5625,-2.5625,-2.5625,-2.5625,-2.5635,0.0,0.0,-1.3398,-1.3486,0.0,0.0,0.0,0.0,-1.3369,-1.3369,-1.3447,-1.3506,-1.3506,-1.3213,0.0,-1.3042,-1.2954,-1.2905,-1.2905,-1.3359,-1.3763,-1.4094,-1.5283,-1.6133,-1.6541,-1.6648,-1.6562,-1.6242,-1.665,-1.7051,-1.7425,-1.7715,-1.7793,-1.7666,-1.79,-1.7441,-1.6506,-1.6418,-1.6378,-1.6378,-1.6378,-1.6553,-1.6755,-1.5966,-1.585,0.0,0.0,0.0,0.0,0.0,0.0,0.0,-1.541,-1.5859,-1.6317,-1.584,-1.6999,-1.8451,-1.8437,-1.9541,-2.0957,-2.1797,-2.2773,-2.3564,-2.375,-2.4189,-2.456,-2.456,-2.456,-2.4658,-2.5047,-2.5116,-2.5215,0.0,0.0,0.0,0.0,0.0,0.0,0.0,0.0,0.0,0.0,0.0,0.0,0.0,0.0,0.0,0.0,0.0,0.0,-2.5693,-2.5693,-2.5693,-2.5693,-2.5693,-2.5693,0.0,-2.5693,-2.5693,-2.5693,-2.5781,-2.583,-2.582,-2.5732,-2.5693,-2.5693,-2.5693,-2.5693,-2.5654,-2.5352,-2.5215,-2.5215,-2.5215,-2.5215,-2.5264,0.0,0.0,0.0,0.0,0.0,0.0,0.0,0.0,-1.3975,-1.3555,-1.3506,-1.3506,-1.3506,-1.3135,0.0,0.0,-1.2905,-1.2905,-1.2905,-1.3467,-1.4065,-1.4689,-1.5625,-1.6105,-1.6073,-1.6299,-1.6191,-1.5752,-1.5986,-1.6436,-1.709,-1.7715,-1.7998,-1.7978,-1.8008,-1.7402,-1.6357,-1.5928,-1.5752,-1.5752,-1.5752,-1.5889,-1.6015,-1.5556,-1.543,-1.542,-1.4951,0.0,0.0,0.0,0.0,0.0,0.0,0.0,-1.6063,-1.6024,-1.696,-1.8164,-1.876,-1.9883,-2.1143,-2.2217,-2.2988,-2.3477,-2.3477,-2.3652,-2.3764,-2.3764,-2.4131,-2.4424,-2.4453,-2.4832,-2.5194,0.0,0.0,0.0,0.0,0.0,0.0,0.0,0.0,0.0,0.0,0.0,0.0,0.0,0.0,0.0,0.0,-2.542,-2.5518,-2.5684,-2.5527,-2.542,-2.542,-2.542,-2.5312,-2.506,-2.5322,-2.5312,-2.507,-2.5499,-2.5567,-2.542,-2.542,-2.5303,-2.506,-2.506,-2.506,-2.504,-2.4853,-2.4756,-2.4756,-2.4756,-2.4756,-2.4785,0.0,0.0,0.0,0.0,0.0,0.0,0.0,0.0,0.0,-1.3711,-1.3588,-1.3588,-1.3588,-1.3174,-1.2905,0.0,0.0,0.0,-1.2905,-1.3636,-1.4494,-1.5342,-1.586,-1.5919,-1.5527,-1.5831,-1.5801,-1.541,-1.541,-1.5907,-1.6931,-1.7607,-1.8164,-1.8578,-1.8125,-1.7422,-1.6531,-1.5674,-1.5264,-1.5195,-1.5195,-1.5195,-1.5157,-1.5107,-1.4912,-1.4658,-1.459,-1.4883,-1.5303,-1.5303,0.0,0.0,0.0,0.0,-1.5547,-1.6171,-1.6807,-1.7559,-1.8887,-2.0166,-2.1385,-2.2662,-2.3042,-2.3091,-2.3091,-2.3091,-2.3091,-2.3091,-2.3656,-2.4111,-2.3838,-2.4375,0.0,0.0,0.0,0.0,0.0,0.0,0.0,0.0,0.0,0.0,0.0,0.0,0.0,0.0,0.0,0.0,-2.4941,-2.4998,-2.5127,-2.545,-2.5146,-2.4998,-2.4998,-2.4998,-2.4775,-2.4424,-2.4785,-2.4766,-2.4443,-2.5128,-2.5303,-2.4998,-2.4998,-2.4746,-2.4414,-2.4414,-2.4414,-2.4414,-2.4336,-2.4307,-2.4307,-2.4307,-2.4307,-2.4316,0.0,0.0,0.0,0.0,0.0,0.0,0.0,0.0,0.0,0.0,-1.4026,-1.4026,-1.4026,-1.335,-1.2905,-1.2905,-1.2905,-1.2905,-1.2905,0.0,0.0,-1.5342,-1.586,-1.6065,-1.6007,-1.5664,-1.5469,-1.541,-1.541,-1.624,-1.7832,-1.7578,-1.7881,-1.8568,-1.7822,-1.7014,-1.6124,-1.5263,-1.4648,-1.428,-1.428,-1.428,-1.4241,-1.3896,-1.3929,-1.4143,-1.3809,-1.4189,-1.4873,-1.4873,-1.5107,0.0,0.0,0.0,-1.5361,-1.5117,-1.5889,-1.6787,-1.6652,-1.8609,-2.1006,-2.2275,-2.2828,-2.3091,-2.3091,-2.3091,-2.3091,-2.3091,-2.3188,-2.3364,-2.373,0.0,0.0,0.0,0.0,0.0,0.0,0.0,0.0,0.0,0.0,0.0,0.0,0.0,0.0,0.0,0.0,0.0,-2.4502,-2.4502,-2.4531,-2.459,-2.4531,-2.4502,-2.4502,-2.4502,-2.4473,-2.4414,-2.4473,-2.4473,-2.4424,-2.4541,-2.456,-2.4502,-2.4502,-2.4473,-2.4414,-2.4414,-2.4414,-2.4385,-2.4014,-2.3877,-2.3877,-2.3877,-2.3877,-2.3926,0.0,0.0,0.0,0.0,0.0,0.0,0.0,0.0,0.0,0.0,0.0,-1.4104,-1.4104,-1.3594,-1.3135,-1.2925,-1.2905,-1.3013,-1.3213,-1.3574,0.0,-1.464,-1.5107,-1.5263,-1.499,-1.5029,-1.5059,-1.5059,-1.4786,-1.5927,-1.8315,-1.793,-1.8574,-2.0011,-1.8945,-1.7969,-1.7051,-1.5459,-1.4531,-1.4085,-1.3851,-1.4355,-1.5088,-1.3945,-1.4219,-1.5068,-1.3916,-1.3896,-1.4463,-1.4697,-1.4912,-1.5059,-1.5059,0.0,0.0,0.0,-1.5,-1.5918,-1.7168,-1.8828,-2.0576,-2.2129,-2.2646,-2.2808,-2.3042,-2.3091,-2.3091,-2.3091,-2.3091,-2.3149,0.0,0.0,0.0,0.0,0.0,0.0,0.0,0.0,0.0,0.0,0.0,0.0,0.0,0.0,0.0,0.0,0.0,-2.3809,-2.4053,-2.4062,-2.417,-2.4414,-2.4189,-2.4062,-2.4062,-2.4062,-2.4062,-2.4062,-2.3818,-2.3656,-2.3656,-2.3656,-2.3838,-2.4062,-2.4062,-2.3926,-2.3656,-2.3656,-2.3656,-2.3637,-2.3496,-2.3428,-2.3428,-2.3428,-2.3428,-2.3447,0.0,0.0,0.0,0.0,0.0,0.0,0.0,0.0,0.0,0.0,0.0,-1.3948,-1.3948,0.0,0.0,0.0,-1.2905,-1.3042,-1.333,0.0,0.0,0.0,-1.4394,-1.4424,-1.3958,-1.4297,-1.4463,-1.4463,-1.4211,-1.5654,-1.8598,-1.8393,-1.9541,-2.1619,-2.0244,-1.8955,-1.7734,-1.6006,-1.5029,-1.4572,-1.4287,-1.495,-1.5987,-1.501,-1.5449,-1.6378,-1.4736,-1.4434,-1.4767,-1.4785,-1.4813,-1.4813,-1.4813,-1.4707,0.0,0.0,0.0,-1.4844,-1.7314,-1.85,-1.9514,-2.1396,-2.2109,-2.2461,-2.2838,-2.3023,-2.3091,0.0,-2.3091,-2.3091,0.0,0.0,0.0,0.0,0.0,0.0,0.0,0.0,0.0,0.0,0.0,0.0,0.0,0.0,0.0,0.0,0.0,-2.3237,-2.3603,-2.3623,-2.3769,-2.4082,-2.3789,-2.3623,-2.3623,-2.3623,-2.3623,-2.3623,-2.3247,-2.3091,-2.3091,-2.3091,-2.3276,-2.3623,-2.3623,-2.3437,-2.3091,-2.3091,-2.3091,-2.3091,-2.3091,-2.3091,-2.3091,-2.3091,-2.3091,-2.3091,0.0,0.0,0.0,0.0,0.0,0.0,0.0,0.0,0.0,0.0,0.0,-1.3545,-1.3545,-1.3164,-1.2925,-1.2905,-1.2905,-1.2915,-1.2935,0.0,0.0,0.0,0.0,0.0,-1.3545,-1.3564,-1.3574,-1.3574,-1.3929,-1.5654,-1.8607,-1.9043,-2.0586,-2.2925,-2.126,-1.9392,-1.7383,-1.6855,-1.6377,-1.5987,-1.5968,-1.6016,-1.6222,-1.7334,-1.7832,-1.7734,-1.6437,-1.6221,-1.6375,-1.5195,-1.4813,-1.4813,-1.4813,-1.4502,-1.4055,0.0,0.0,0.0,-1.5635,-1.6543,-1.7369,-1.9485,-2.0996,-2.2031,-2.2451,-2.2808,-2.3091,-2.3091,-2.3091,0.0,0.0,0.0,0.0,0.0,0.0,0.0,0.0,0.0,0.0,0.0,0.0,0.0,0.0,0.0,0.0,0.0,0.0,-2.311,-2.313,-2.313,-2.314,-2.3159,-2.314,-2.313,-2.313,-2.313,-2.313,-2.313,-2.311,-2.3091,-2.3091,-2.3091,-2.311,-2.313,-2.313,-2.312,-2.3091,-2.3091,-2.3091,-2.3091,-2.3091,-2.3091,-2.3091,-2.3091,-2.3091,-2.3091,0.0,0.0,0.0,0.0,0.0,0.0,0.0,0.0,0.0,0.0,0.0,0.0,0.0,-1.3369,-1.3174,-1.2925,-1.2905,0.0,0.0,0.0,0.0,0.0,0.0,0.0,-1.3115,-1.3369,-1.3506,-1.3506,-1.3389,-1.4727,-1.7389,-1.7535,-1.8437,-1.9863,-2.0352,-2.0184,-1.9343,-1.7467,-1.6609,-1.6494,-1.6494,-1.7148,-1.8096,-1.7744,-1.8457,-1.9451,-1.7602,-1.6836,-1.6629,-1.6161,-1.5654,-1.5088,-1.4541,-1.4231,-1.3968,-1.3311,-1.3379,-1.3906,-1.4989,-1.5977,-1.7019,-1.8369,-1.9668,-2.0732,-2.1162,-2.2021,-2.2691,-2.2691,-2.2906,0.0,0.0,0.0,0.0,0.0,0.0,0.0,0.0,0.0,0.0,0.0,0.0,0.0,0.0,0.0,0.0,0.0,0.0,0.0,-2.3091,-2.3091,-2.3091,-2.3091,-2.3091,-2.3091,-2.3091,-2.3091,-2.3091,-2.3091,-2.3091,-2.3091,-2.3091,-2.3091,-2.3091,-2.3091,-2.3091,-2.3091,-2.3091,-2.3091,-2.3091,-2.3091,-2.3091,-2.3091,-2.3091,-2.3091,-2.3091,-2.3091,0.0,0.0,0.0,-1.541,0.0,-1.4104,-1.4104,-1.3418,-1.3027,-1.3447,0.0,0.0,0.0,0.0,-1.334,-1.2944,-1.2905,-1.2905,-1.2905,-1.2905,0.0,0.0,0.0,0.0,-1.2915,-1.3154,-1.3301,-1.3301,-1.3164,-1.4189,-1.6258,-1.6404,-1.7119,-1.8217,-1.8965,-1.9521,-1.9814,-1.8252,-1.7467,-1.736,-1.7652,-1.8398,-1.9287,-1.9307,-2.0107,-2.0996,-1.9287,-1.8486,-1.812,-1.7535,-1.6668,-1.5673,-1.4806,-1.4143,-1.3578,-1.3071,-1.3379,-1.3958,-1.4277,-1.5195,-1.6326,-1.751,-1.8437,-1.9326,-2.037,-2.123,-2.1904,-2.2051,-2.2496,0.0,0.0,0.0,0.0,0.0,0.0,0.0,0.0,0.0,0.0,0.0,0.0,0.0,0.0,0.0,0.0,0.0,0.0,0.0,-2.3091,-2.3091,-2.3091,-2.3091,-2.3091,-2.3091,-2.3091,-2.3091,-2.3091,-2.3091,-2.3091,-2.3091,-2.3091,-2.3091,-2.3091,-2.3091,-2.3091,-2.3091,-2.3091,-2.3091,-2.3091,-2.3091,-2.3091,-2.3091,-2.3091,-2.3091,-2.3091,-2.3091,-1.6138,-1.5703,-1.541,-1.541,-1.4689,-1.4124,-1.4124,-1.3447,-1.3091,-1.3477,0.0,0.0,0.0,0.0,0.0,-1.2954,-1.2925,-1.2915,-1.2905,-1.2905,-1.2905,-1.2905,-1.2905,-1.2905,-1.2905,-1.2905,-1.2905,-1.2905,-1.3291,-1.4131,-1.5361,-1.5831,-1.6904,-1.8432,-1.7223,-1.736,-1.8539,-1.8994,-1.8965,-1.8666,-1.9494,-1.9648,-1.9619,-2.2087,-2.2808,-2.2422,-2.1541,-2.122,-2.0956,-1.9251,-1.7828,-1.659,-1.5654,-1.4248,-1.2925,-1.2905,-1.3184,-1.3516,0.0,0.0,0.0,-1.6887,-1.7295,-1.7905,-1.9999,-2.0498,-2.0625,-2.1054,-2.1865,0.0,0.0,0.0,0.0,0.0,0.0,0.0,0.0,0.0,0.0,0.0,0.0,0.0,0.0,0.0,0.0,0.0,0.0,-2.3091,-2.3091,-2.3091,-2.3091,-2.3091,-2.3091,-2.3091,-2.3091,-2.3091,-2.3091,-2.3091,-2.3091,-2.3091,-2.3091,-2.3091,-2.3091,-2.3091,-2.3091,-2.3091,-2.3091,-2.3091,-2.3091,-2.3091,-2.3091,-2.3091,-2.3091,-2.3091,-2.3091,-2.3091,-1.5596,-1.5498,-1.541,-1.541,-1.4961,-1.4609,-1.4609,-1.4141,-1.3802,0.0,0.0,0.0,-1.3545,-1.3506,-1.3467,-1.334,-1.334,-1.3203,-1.2925,-1.2905,-1.2905,-1.2905,-1.2905,-1.2905,-1.2905,-1.2905,-1.2905,-1.2905,-1.3023,-1.3389,-1.4043,-1.4473,-1.5088,-1.5859,-1.6133,-1.6269,-1.6278,-1.6436,-1.7314,-1.8598,-1.8564,-1.9404,-2.0732,-2.1453,-2.2223,-2.2847,-2.2311,-2.1963,-2.1582,-2.0752,-1.9407,-1.7711,-1.5625,-1.4209,-1.3271,-1.2993,-1.3389,-1.3802,-1.3213,0.0,0.0,0.0,0.0,0.0,0.0,0.0,-1.9014,-2.0068,0.0,0.0,0.0,0.0,0.0,0.0,0.0,0.0,0.0,0.0,0.0,0.0,0.0,0.0,0.0,0.0,0.0,0.0,-2.3091,-2.3091,-2.3091,-2.3091,-2.3091,-2.3091,-2.3091,-2.3091,-2.3091,-2.3091,-2.3091,-2.3091,-2.3091,-2.3091,-2.3091,-2.3091,-2.3091,-2.3091,-2.3091,-2.3091,-2.3091,-2.3091,-2.3091,-2.3091,-2.3091,-2.3091,-2.3091,-2.3091,-2.3091,-2.3091,-1.5468,-1.541,-1.541,-1.541,-1.5205,-1.5049,-1.5049,-1.4678,-1.4445,0.0,0.0,0.0,-1.4062,-1.3877,-1.3675,-1.35,-1.335,-1.3145,-1.2925,-1.2905,-1.2905,-1.2905,-1.2905,-1.2905,-1.2905,-1.2905,-1.2905,-1.2905,-1.2905,-1.3032,-1.3252,-1.3496,-1.3838,-1.4268,-1.4617,-1.4785,-1.4825,-1.4502,-1.5703,-1.7886,-1.874,-1.9727,-2.0742,-2.1648,-2.234,-2.2828,-2.275,-2.2617,-2.2344,-2.1873,-2.0333,-1.8208,-1.6016,-1.4853,-1.418,-1.3584,-1.4004,-1.4455,-1.3633,-1.4082,-1.4784,-1.4609,0.0,0.0,-1.6378,-1.6946,0.0,0.0,0.0,0.0,0.0,0.0,0.0,0.0,0.0,0.0,0.0,0.0,0.0,0.0,0.0,0.0,0.0,0.0,0.0,-2.3091,-2.3091,-2.3023,-2.2847,-2.2838,-2.2838,-2.2838,-2.3003,-2.3091,-2.3091,-2.3091,-2.3091,-2.3091,-2.3091,-2.3091,-2.3091,-2.3091,-2.3091,-2.3091,-2.3091,-2.3091,-2.3091,-2.3091,-2.3091,-2.3091,-2.3091,-2.3091,-2.3091,-2.3091,-2.3091,-2.3091,0.0,-1.541,-1.543,-1.5478,-1.5488,-1.5498,-1.5547,-1.5195,-1.5078,0.0,-1.5186,-1.4951,-1.5,-1.4543,-1.4094,-1.375,-1.3291,-1.2998,-1.2983,-1.291,-1.2905,-1.2905,-1.2905,-1.2905,-1.2905,-1.2905,-1.2905,-1.2905,-1.2905,-1.2905,-1.2905,-1.2905,-1.3076,-1.3418,-1.3071,-1.3301,-1.3929,-1.335,-1.4473,-1.6833,-1.9199,-2.0107,-2.0273,-2.2204,-2.2779,-2.2627,-2.2955,-2.3091,-2.3023,-2.2598,-2.0839,-1.8578,-1.6868,-1.6016,-1.5518,-1.4533,-1.4855,-1.5342,-1.4484,-1.459,-1.5116,-1.5782,-1.5127,0.0,-1.6611,-1.6515,-1.6349,0.0,0.0,0.0,0.0,0.0,0.0,0.0,0.0,0.0,0.0,0.0,0.0,0.0,0.0,0.0,0.0,-2.2984,-2.2974,-2.3023,-2.2984,-2.2789,-2.2461,-2.2441,-2.2441,-2.2441,-2.276,-2.2955,-2.2955,-2.2955,-2.2955,-2.2955,-2.2955,-2.2955,-2.2955,-2.2955,-2.2984,-2.3023,-2.3023,-2.3052,-2.3091,-2.3091,-2.3091,-2.3091,-2.3091,-2.3091,-2.3091,-2.3091,-2.3091,-2.3091,-1.5458,-1.541,-1.5527,-1.5909,-1.5968,-1.6055,-1.6385,-1.6094,-1.5997,-1.6385,-1.6084,-1.5987,-1.6287,-1.5615,-1.5098,-1.5049,-1.4309,-1.3724,-1.3408,-1.3066,-1.2905,-1.2905,-1.2905,-1.2905,-1.2905,-1.2905,-1.2905,-1.2905,-1.2905,-1.2905,-1.2905,-1.2905,-1.2954,-1.2998,-1.2944,-1.2993,-1.3184,-1.4069,-1.5136,-1.63,-1.7139,-1.8851,-2.1025,-2.1836,-2.25,-2.2984,-2.3062,-2.3091,-2.2984,-2.2266,-2.1435,-2.0323,-1.8291,-1.7578,-1.7197,-1.5625,-1.5751,-1.6258,-1.5371,-1.5478,-1.5713,-1.5195,-1.539,0.0,-1.4874,-1.5166,-1.5615,0.0,0.0,0.0,0.0,0.0,0.0,0.0,0.0,0.0,0.0,0.0,0.0,0.0,0.0,0.0,0.0,-2.2324,-2.2275,-2.2607,-2.2324,-2.21,-2.2012,-2.2012,-2.2012,-2.2012,-2.209,-2.2129,-2.2129,-2.2129,-2.2129,-2.2129,-2.2129,-2.2129,-2.2129,-2.2129,-2.2314,-2.2637,-2.2637,-2.2779,-2.3091,-2.3091,-2.3091,-2.3091,-2.3091,-2.3091,-2.3091,-2.3091,-2.3091,-2.3091,-1.5247,-1.5264,-1.5547,-1.6016,-1.6281,-1.6543,-1.6992,-1.6865,-1.6875,-1.7314,-1.7178,-1.6875,-1.6445,-1.6006,-1.5566,-1.5137,-1.4484,-1.3929,-1.3535,-1.3311,-1.3096,-1.2915,-1.2905,-1.2905,-1.2905,-1.2905,-1.2905,-1.2905,-1.2905,-1.2905,-1.2905,-1.2905,-1.3105,-1.3486,-1.3066,-1.3257,-1.3874,-1.4053,-1.4766,-1.5869,-1.7393,-1.927,-2.1268,-2.1953,-2.2588,-2.3091,-2.3091,-2.3091,-2.2935,-2.1914,-2.1269,-2.0635,-1.9121,-1.8496,-1.8081,-1.6999,-1.7021,-1.7145,-1.6278,-1.623,-1.6348,-1.6133,-1.5908,0.0,0.0,-1.5235,-1.5283,-1.5907,-1.5889,-1.6006,0.0,0.0,0.0,0.0,0.0,0.0,0.0,0.0,0.0,0.0,0.0,0.0,0.0,-2.2012,-2.1973,-2.2187,-2.1807,-2.1562,-2.1562,-2.1562,-2.1562,-2.1562,-2.1777,-2.1885,-2.1885,-2.1885,-2.1885,-2.1885,-2.1885,-2.1885,-2.1885,-2.1885,-2.2002,-2.2207,-2.2422,-2.2627,-2.2799,-2.3013,-2.3091,-2.3091,-2.3091,-2.3091,-2.3091,-2.3091,-2.3091,-2.3091,-1.4877,-1.5,-1.543,-1.5889,-1.6309,-1.6748,-1.7187,-1.7187,-1.7285,-1.7705,-1.7944,-1.7725,-1.6701,-1.6515,-1.6261,-1.5693,-1.4951,-1.4367,-1.4124,-1.3809,-1.3477,-1.3135,-1.2993,-1.2944,-1.2998,-1.2944,-1.2905,-1.2905,-1.2905,-1.2905,-1.2905,-1.2905,-1.3281,-1.3958,-1.3301,-1.3688,-1.4736,-1.4043,-1.459,-1.6094,-1.8203,-1.9678,-2.0683,-2.1748,-2.2344,-2.2623,-2.2789,-2.2857,-2.2682,-2.157,-2.0996,-2.0527,-1.958,-1.916,-1.8841,-1.8203,-1.8125,-1.8066,-1.7174,-1.7009,-1.7096,-1.7236,-1.6641,-1.6063,0.0,0.0,0.0,-1.6034,0.0,0.0,0.0,0.0,0.0,0.0,0.0,0.0,0.0,0.0,0.0,0.0,0.0,0.0,0.0,-2.1435,-2.1455,-2.1621,-2.1152,-2.0898,-2.1094,-2.1064,-2.1064,-2.1064,-2.1445,-2.1631,-2.1631,-2.1631,-2.1631,-2.1631,-2.1631,-2.1631,-2.1631,-2.1631,-2.168,-2.1777,-2.2119,-2.2314,-2.2412,-2.2711,-2.2857,-2.2867,-2.3033,-2.3091,-2.3091,-2.3091,-2.3091,-2.3091,-1.4228,-1.4561,-1.499,-1.541,-1.585,-1.632,-1.6707,-1.6465,-1.6408,-1.6785,-1.7828,-1.8481,-1.8325,-1.8018,-1.8057,-1.8721,-1.7005,-1.5986,-1.6317,-1.4894,-1.4016,-1.3968,-1.3281,-1.3057,-1.3428,-1.3066,-1.2905,-1.2905,-1.2905,-1.2905,-1.2905,-1.2905,-1.3135,-1.3549,-1.3477,-1.3936,-1.4775,-1.4678,-1.583,-1.7734,-1.8037,-1.8242,-1.8555,-2.0176,-2.086,-2.0997,-2.1748,-2.2031,-2.1943,0.0,-2.1161,-2.0937,0.0,-1.9775,-2.0077,-1.8467,-1.8555,-1.8955,-1.8096,-1.81,0.0,0.0,-1.7506,0.0,0.0,0.0,-1.5664,-1.4601,0.0,0.0,0.0,0.0,0.0,0.0,0.0,0.0,0.0,0.0,0.0,0.0,0.0,0.0,0.0,0.0,-1.993,-2.0693,-1.9961,-1.9844,-2.0644,-2.0683,-2.0683,-2.0683,-2.0732,-2.0752,-2.0752,-2.0752,-2.0752,-2.0752,-2.0752,-2.0752,-2.0752,-2.0752,-2.0928,-2.1268,-2.1317,-2.1602,-2.1963,-2.2012,-2.2031,-2.21,-2.2808,-2.3091,-2.3091,-2.3091,-2.3091,-2.3091,-1.3707,-1.4094,-1.4541,-1.4971,-1.5195,-1.5586,-1.624,-1.7031,-1.7627,-1.7779,-1.8525,-1.9014,-1.9014,-1.8418,-1.8252,-1.8857,-1.7861,-1.6953,-1.6387,-1.5664,-1.4912,-1.4143,-1.3539,-1.333,-1.3506,-1.3096,-1.2905,-1.2905,-1.2905,-1.2905,-1.2905,-1.2905,-1.3369,-1.4238,-1.3958,-1.4775,-1.6271,-1.5478,-1.582,-1.6904,-1.7168,-1.7109,0.0,-1.9912,-2.1113,-2.1377,-2.1758,-2.1885,-2.1777,0.0,-2.0674,0.0,0.0,0.0,0.0,-1.918,-1.9014,-1.8779,0.0,0.0,0.0,0.0,0.0,0.0,-1.6221,0.0,-1.5605,0.0,0.0,0.0,0.0,0.0,0.0,0.0,0.0,0.0,0.0,0.0,0.0,0.0,0.0,0.0,0.0,0.0,0.0,0.0,0.0,-1.9287,-2.0137,-2.0185,-2.0303,-2.0595,-2.0605,-2.0605,-2.0605,-2.0605,-2.0605,-2.0605,-2.0605,-2.0605,-2.0605,-2.0605,-2.0703,-2.0859,-2.1083,-2.1298,-2.1523,-2.1777,-2.1885,-2.1924,-2.2275,-2.2412,-2.2412,-2.2412,-2.2412,-2.2441,-1.3271,-1.3646,-1.4036,-1.4375,-1.4629,-1.5107,-1.5958,-1.7236,-1.8159,-1.8403,-1.8945,-1.9375,-1.9609,-1.9082,-1.8975,-1.9602,-1.8984,-1.8184,-1.7386,-1.6672,-1.5879,-1.503,-1.4133,-1.3714,-1.3857,-1.333,-1.3023,-1.2905,-1.2905,-1.2905,-1.2905,-1.2905,-1.3463,-1.4434,-1.4346,-1.5391,-1.7148,-1.6309,-1.6406,-1.7171,-1.7344,-1.7383,-1.7582,-1.9834,-2.1045,-2.1523,-2.1523,-2.1523,-2.1447,-2.0644,-2.0176,0.0,-2.0184,0.0,-1.9046,0.0,0.0,0.0,-1.8295,0.0,0.0,0.0,0.0,0.0,0.0,0.0,0.0,0.0,0.0,0.0,0.0,0.0,-1.425,-1.4124,0.0,-1.4492,0.0,0.0,0.0,0.0,0.0,0.0,0.0,0.0,0.0,0.0,0.0,0.0,-1.9687,-1.9853,-2.0059,-2.0419,-2.0537,-2.0605,-2.0605,-2.0605,-2.0605,-2.0605,-2.0605,-2.0605,-2.0605,-2.0605,-2.0605,-2.0625,-2.0908,-2.1055,-2.1074,-2.1396,-2.1523,-2.1523,-2.1523,-2.1523,-2.1553,-2.1797,-2.1885,-2.1934,-1.2925,-1.3242,-1.3525,-1.3545,-1.4238,-1.5107,-1.5958,-1.6475,-1.7058,-1.792,-1.8769,-1.9637,-2.0468,-2.0537,-2.1036,-2.2275,-2.083,-2.0019,-2.0439,-1.8096,-1.6853,-1.7298,-1.5215,-1.428,-1.4764,-1.3916,-1.3291,-1.2905,-1.2905,-1.2905,-1.2905,-1.2905,-1.3125,-1.3584,-1.4404,-1.5508,-1.6746,-1.7158,-1.8271,-1.9756,-1.9365,-1.9697,-2.038,0.0,-1.9873,-2.0644,-2.0644,0.0,0.0,-2.0088,-1.9922,0.0,0.0,0.0,0.0,0.0,0.0,0.0,0.0,0.0,0.0,-1.7155,0.0,0.0,0.0,0.0,-1.6424,0.0,0.0,0.0,0.0,-1.5059,-1.4629,-1.4172,-1.4114,0.0,0.0,0.0,0.0,0.0,0.0,0.0,0.0,0.0,0.0,0.0,0.0,0.0,-1.9238,-1.9697,-1.9922,-1.9932,-2.0342,-2.0605,-2.0605,-2.0605,-2.0605,-2.0605,-2.0605,-2.0605,-2.0605,-2.0605,-2.0605,-2.0605,-2.0615,-2.0625,-2.0625,-2.0644,-2.0644,-2.0644,-2.0644,-2.0644,-2.0752,-2.1572,-2.1885,-2.1885,-1.3301,-1.3408,-1.3418,-1.3145,-1.3564,-1.4424,-1.588,-1.6924,-1.7988,-1.9121,-1.9521,-2.0254,-2.1699,-2.1348,-2.1299,-2.2031,-2.1289,-2.0488,-1.9766,-1.8633,-1.7906,-1.7803,-1.6269,-1.5508,-1.5654,-1.4823,-1.4004,-1.3301,-1.3301,-1.3154,-1.2905,-1.2905,-1.3105,-1.3545,-1.4404,-1.5508,-1.6726,-1.7197,-1.7881,-1.8662,0.0,-1.9541,-2.0576,0.0,0.0,-2.0605,-2.0605,-2.0605,0.0,-2.0429,-2.0156,-1.9941,-2.0126,-1.9844,-1.9473,-1.9326,-1.918,0.0,0.0,0.0,-1.8945,-1.7519,0.0,0.0,0.0,0.0,0.0,0.0,0.0,0.0,0.0,-1.5068,-1.4736,-1.459,-1.4092,-1.3695,0.0,0.0,0.0,0.0,0.0,0.0,0.0,0.0,0.0,0.0,0.0,0.0,0.0,-1.8802,-1.929,-1.9893,-2.0059,-2.0273,-2.0605,-2.0605,-2.0605,-2.0605,-2.0605,-2.0605,-2.0605,-2.0605,-2.0605,-2.0605,-2.0605,-2.0605,-2.0605,-2.0605,-2.0605,-2.0605,-2.0605,-2.0605,-2.0644,-2.0938,-2.1055,-2.1094,-1.3701,-1.3613,-1.3418,-1.3154,-1.3584,-1.4492,-1.6064,-1.7402,-1.8633,-1.9766,-2.0147,-2.0928,-2.2353,-2.2021,-2.1824,-2.2295,-2.1943,-2.1161,-2.0059,-1.9387,-1.8861,-1.8477,-1.7363,-1.6721,-1.6564,-1.584,-1.4902,-1.3704,-1.3704,-1.3437,-1.2905,-1.2905,-1.3052,-1.333,-1.4363,-1.542,-1.6543,-1.7295,-1.7939,-1.8506,0.0,-1.9678,0.0,0.0,-2.0605,-2.0605,0.0,-2.0605,-2.0605,-2.0605,-2.0419,-2.0195,-2.0517,-2.0116,-1.9512,-1.9512,-1.9209,-1.8779,-1.8315,-1.8633,0.0,-1.7666,-1.7588,0.0,-1.6359,0.0,0.0,0.0,0.0,0.0,0.0,-1.54,-1.4961,-1.4805,-1.4189,-1.3597,0.0,-1.3408,0.0,0.0,0.0,0.0,0.0,0.0,-1.5596,-1.6056,-1.6191,0.0,0.0,0.0,-1.8695,-1.9407,-1.9609,-1.9824,-2.0145,-2.0302,-2.0332,-2.0332,-2.0332,-2.0458,-2.0595,-2.0292,-2.0312,-2.0595,-2.0439,-2.0458,-2.0605,-2.0605,-2.0605,-2.0605,-2.0605,-2.0605,-2.0605,-2.0605,-2.0605,-2.0644,-1.4026,-1.3821,-1.3603,-1.3603,-1.4277,-1.5254,-1.6531,-1.7779,-1.889,-1.9824,-2.0644,-2.1502,-2.2451,-2.2519,-2.2666,-2.3003,-2.2672,-2.2119,-2.122,-2.0352,-1.9746,-1.9365,-1.8535,-1.7891,-1.749,-1.7012,-1.5898,-1.4202,-1.4133,-1.3685,-1.2935,-1.2915,-1.2905,-1.2954,-1.4197,-1.5234,-1.6144,-1.7402,-1.8467,-1.9316,-1.9727,-2.0146,-2.0576,-2.0576,-2.0586,-2.0605,-2.0605,-2.0605,-2.0605,-2.0605,-2.0605,-2.0595,-2.0576,-2.0244,-1.9902,-1.9863,-1.9561,-1.916,-1.8695,-1.8588,-1.8403,-1.7617,0.0,0.0,0.0,0.0,-1.7168,0.0,0.0,0.0,0.0,0.0,-1.5303,-1.4911,-1.4453,-1.3851,-1.3057,-1.3281,0.0,0.0,0.0,0.0,-1.4687,-1.4385,-1.464,-1.5909,-1.5644,-1.5996,0.0,0.0,0.0,-1.8559,-1.9023,-1.9268,-1.9287,-1.9687,-1.9883,-1.9883,-1.9883,-2.0098,-2.0507,-1.9695,-1.9764,-2.0517,-2.0059,-2.0127,-2.0576,-2.0576,-2.0586,-2.0605,-2.0605,-2.0605,-2.0605,-2.0605,-2.0605,-2.0605,-1.4085,-1.4533,-1.4922,-1.4922,-1.5107,-1.5693,0.0,0.0,-1.8711,-2.0205,-2.0635,-2.1309,-2.2769,-2.2705,-2.2432,-2.2227,-2.2109,-2.168,-2.0791,-2.0215,-2.001,-2.0263,-1.9414,-1.8916,-1.8799,-1.7764,-1.668,-1.5596,-1.4582,-1.3841,-1.334,-1.3027,-1.2905,-1.2935,-1.3555,-1.4482,-1.5644,-1.6609,-1.792,-1.9297,-1.9404,-1.9697,0.0,0.0,-2.0283,-2.0605,-2.0605,-2.0605,-2.0605,-2.0605,-2.0605,-2.0546,-2.0185,-2.0,-1.9785,-1.9114,-1.8851,-1.8676,-1.8281,-1.8364,-1.8481,-1.7978,-1.7852,-1.7705,0.0,0.0,0.0,0.0,0.0,0.0,0.0,0.0,0.0,-1.5322,-1.4893,-1.4424,-1.386,-1.388,0.0,-1.3948,0.0,0.0,-1.3857,-1.4316,-1.4619,-1.4601,-1.542,-1.6075,0.0,0.0,0.0,-1.812,-1.8549,-1.8965,-1.9287,-1.9394,-1.9443,-1.9443,-1.9443,-1.9512,-1.9646,-1.9385,-1.9404,-1.9646,-1.9492,-1.9687,-2.0078,-2.0078,-2.0273,-2.0605,-2.0605,-2.0605,-2.0605,-2.0605,-2.0605,-2.0605,-1.4902,-1.5674,-1.6269,-1.6269,0.0,0.0,-1.7539,-1.8174,0.0,-2.0127,-2.0625,0.0,-2.2155,-2.2266,-2.2139,-2.1904,-2.1885,-2.1514,-2.0664,-2.0518,-2.043,-2.0283,-2.0038,-1.9756,-1.957,-1.8672,-1.7543,-1.6095,-1.5146,-1.4189,-1.3232,-1.3013,-1.2905,-1.2925,-1.332,-1.4111,-1.5215,-1.6484,-1.7686,-1.875,-1.8926,-1.9258,0.0,-1.9639,-1.9795,-2.0048,-2.0048,-2.0282,-2.0576,-2.0342,-2.0283,-2.0205,-1.9775,-1.9512,-1.9231,-1.8744,-1.8471,-1.8276,-1.8076,-1.8184,-1.8266,-1.8066,-1.8008,-1.79,-1.748,-1.7568,-1.7598,0.0,0.0,0.0,0.0,0.0,0.0,-1.5234,-1.4775,-1.4414,-1.4143,-1.4104,-1.4036,0.0,-1.3997,0.0,0.0,-1.3838,-1.4199,-1.4114,-1.4805,0.0,0.0,0.0,0.0,-1.7715,-1.7969,-1.8291,-1.8721,-1.8916,-1.9004,-1.9004,-1.9004,-1.9102,-1.9277,-1.8896,-1.8936,-1.9277,-1.9082,-1.9248,-1.9639,-1.9639,-1.9893,-2.0283,-2.0283,-2.0283,-2.0283,-2.0283,-2.0439,-2.0605,-1.5948,-1.6848,-1.7451,-1.7393,-1.7773,0.0,0.0,-1.8809,0.0,-1.9932,0.0,-2.1151,-2.1268,-2.1611,-2.1807,-2.1807,-2.1807,-2.1445,-2.0654,-2.0928,-2.0761,-2.0029,-2.0361,-2.0429,-2.001,-1.9473,-1.8223,-1.6261,-1.5625,-1.4521,-1.2983,-1.291,-1.2905,-1.2925,-1.3262,-1.3965,-1.4999,-1.6611,-1.7578,-1.8047,-1.8373,-1.8818,-1.9209,-1.9209,-1.9238,-1.9287,-1.9287,-1.9805,-2.0449,-1.998,-1.9873,-1.9824,-1.9355,-1.8945,-1.8588,-1.8539,-1.8256,-1.8008,-1.8008,-1.8008,-1.8008,-1.8008,-1.8008,-1.791,-1.7549,-1.7461,-1.7461,-1.7461,-1.7158,-1.7077,0.0,0.0,0.0,-1.5107,-1.4639,-1.4358,-1.4358,-1.4309,-1.4114,-1.373,0.0,0.0,0.0,0.0,-1.3695,-1.3997,-1.4075,0.0,0.0,0.0,0.0,0.0,-1.7357,0.0,-1.793,0.0,-1.852,-1.852,-1.852,-1.875,-1.9092,-1.835,-1.8418,-1.9102,-1.8721,-1.8763,-1.9209,-1.9209,-1.9453,-1.9834,-1.9834,-1.9863,-1.9902,-1.9853,-2.0137,-2.0605,-1.6065,-1.7051,-1.7793,-1.7451,0.0,-1.8617,-1.9004,-1.9189,-1.957,-2.039,-2.0625,-2.0997,-2.1689,-2.1523,-2.1307,-2.1307,-2.1307,0.0,0.0,0.0,0.0,-2.0498,-2.0566,-2.0566,-2.0488,-1.9336,-1.8223,-1.7181,-1.5635,-1.4385,-1.3389,-1.3071,-1.2905,-1.2905,-1.2959,-1.3857,-1.5371,-1.6375,0.0,-1.8018,-1.8086,-1.8334,-1.8715,-1.8715,-1.8975,-1.9287,-1.9287,-1.9609,-1.9961,-1.9541,-1.9629,-1.9738,-1.8958,-1.8666,-1.8529,-1.8188,-1.8066,-1.8008,-1.8008,-1.8008,-1.8008,-1.8008,-1.8008,-1.7988,-1.792,-1.79,-1.79,-1.79,-1.7842,-1.7725,-1.7529,0.0,0.0,0.0,0.0,0.0,0.0,-1.542,-1.5029,-1.4609,0.0,-1.4336,0.0,0.0,-1.389,-1.3607,-1.3909,0.0,0.0,0.0,0.0,0.0,0.0,0.0,0.0,0.0,0.0,-1.8115,-1.8115,-1.8164,-1.8232,-1.8076,-1.8086,-1.8232,-1.8154,-1.8325,-1.8715,-1.8715,-1.9004,-1.9394,-1.9394,-1.9609,-1.9873,-1.9531,-1.993,-2.0605,-1.678,-1.7607,-1.8237,-1.8066,0.0,0.0,0.0,-1.9805,-2.0057,-2.0205,-2.0225,-2.0391,-2.082,-2.0879,-2.0889,-2.0889,-2.0889,-2.0791,-2.0615,-2.0605,-2.0605,-2.0605,-2.0605,-2.0605,-2.0605,-1.9521,-1.8447,-1.7383,-1.5859,-1.4561,-1.3496,-1.3076,-1.2905,-1.2925,-1.334,-1.4111,0.0,0.0,0.0,-1.7705,-1.793,-1.8135,-1.8276,-1.8276,-1.8437,-1.8623,-1.8623,-1.8896,-1.9182,-1.9014,-1.9092,-1.9104,-1.8471,-1.8276,-1.8237,-1.8066,-1.8008,-1.8008,-1.8008,-1.8008,-1.8008,-1.8008,-1.8008,-1.8008,-1.8008,-1.8008,-1.8008,-1.8008,-1.8008,-1.7881,-1.7461,-1.7031,0.0,0.0,0.0,0.0,0.0,0.0,-1.5166,-1.4521,-1.4648,-1.4392,0.0,0.0,0.0,0.0,0.0,0.0,0.0,0.0,0.0,0.0,0.0,0.0,0.0,0.0,0.0,-1.8008,-1.8008,-1.8008,-1.8008,-1.8008,-1.8008,-1.8008,-1.8008,-1.8125,-1.8295,-1.851,-1.8598,-1.8652,-1.8867,-1.9072,-1.9192,-1.9023,-1.9355,-1.9969,-1.7656,-1.8262,-1.8734,0.0,-1.9404,0.0,-1.9795,-2.0146,-2.0332,-2.0088,-2.0049,-2.0049,-2.0049,-2.04,-2.0605,-2.0605,-2.0605,-2.0605,-2.0605,-2.0605,-2.0605,-2.0605,-2.0605,-2.0605,-2.0605,-1.9764,-1.8662,-1.7383,-1.6064,-1.4756,-1.3496,-1.3076,-1.2954,-1.3047,-1.387,0.0,0.0,0.0,-1.7009,-1.7549,-1.7881,-1.8008,-1.8008,-1.8008,-1.8008,-1.8008,-1.8008,-1.8188,-1.8471,-1.8471,-1.8529,-1.8529,-1.8144,-1.8008,-1.8008,-1.8008,-1.8008,-1.8008,-1.8008,-1.8008,-1.8008,-1.8008,-1.8008,-1.8008,-1.8008,-1.7939,-1.7881,-1.7881,-1.7803,-1.7607,-1.721,-1.6904,0.0,0.0,0.0,0.0,0.0,0.0,-1.5098,-1.4338,-1.4492,-1.4219,-1.3125,0.0,0.0,0.0,0.0,0.0,0.0,0.0,0.0,0.0,0.0,-1.6758,-1.7132,0.0,-1.8008,0.0,-1.8008,-1.8008,-1.8008,-1.8008,-1.8008,-1.8008,-1.8008,-1.8008,-1.8037,-1.8334,-1.8276,-1.8047,-1.8344,-1.852,-1.8588,-1.85,-1.8838,-1.9316,0.0,0.0,0.0,0.0,0.0,0.0,-1.9404,-1.9707,-2.0098,-2.0498,-2.0546,-2.0546,-2.0546,-2.0576,-2.0605,-2.0605,-2.0605,-2.0605,-2.0605,-2.0605,-2.0605,-2.0605,-2.0605,-2.0605,-2.0605,-1.9764,-1.8662,0.0,0.0,-1.4756,-1.3496,-1.3076,-1.3086,-1.3486,0.0,0.0,0.0,-1.6473,-1.7174,-1.7959,-1.7988,-1.8008,-1.8008,-1.8008,-1.8008,-1.8008,-1.8008,-1.8037,-1.8066,-1.8066,-1.8286,-1.8529,-1.8144,-1.8008,-1.8008,-1.8008,-1.8008,-1.8008,-1.8008,-1.8008,-1.8008,-1.8008,-1.8008,-1.8008,-1.8008,-1.7715,-1.7474,-1.7474,-1.7129,-1.6719,-1.63,-1.6484,-1.657,0.0,0.0,0.0,0.0,0.0,-1.5234,-1.4775,-1.4414,-1.3977,0.0,0.0,0.0,0.0,0.0,0.0,0.0,0.0,0.0,-1.4873,0.0,-1.6183,-1.6212,-1.7393,0.0,-1.8008,-1.8008,-1.8008,-1.8008,-1.8008,-1.8008,-1.8008,-1.8008,-1.8008,-1.8018,-1.8047,-1.8047,-1.8018,-1.8057,-1.8266,-1.8559,-1.8178,-1.8584,-1.9238,0.0,0.0,0.0,0.0,0.0,0.0,0.0,-1.9805,-1.9883,-1.9852,-2.0019,-2.0273,-2.0576,-2.0605,-2.0605,-2.0605,-2.0605,-2.0605,-2.0605,-2.0322,-2.0293,-2.0595,-2.0312,-2.0176,-2.0176,-1.959,-1.8779,0.0,0.0,0.0,-1.4639,-1.4219,-1.4248,0.0,0.0,-1.5928,-1.6494,-1.6934,-1.7471,-1.8008,-1.8008,-1.8008,-1.8008,-1.8008,-1.8008,-1.8008,-1.8008,-1.8008,-1.8008,-1.8008,-1.8125,-1.8198,-1.8057,-1.8008,-1.8008,-1.8008,-1.8008,-1.8008,-1.8008,-1.8008,-1.7949,-1.7695,-1.7637,-1.7568,-1.7272,-1.7109,-1.6992,-1.6992,-1.6824,-1.6648,-1.6494,-1.6387,-1.6357,0.0,0.0,0.0,0.0,0.0,0.0,-1.4445,-1.4211,-1.3851,0.0,0.0,0.0,0.0,0.0,-1.3135,-1.3695,0.0,0.0,-1.4385,0.0,-1.5968,-1.5674,-1.6973,-1.7637,-1.7637,-1.7891,-1.8008,-1.8008,-1.8008,-1.8008,-1.8008,-1.8008,-1.8008,-1.8008,-1.8008,-1.8008,-1.8008,-1.8008,-1.8115,-1.8208,-1.8076,-1.8223,-1.8496,-1.9443,0.0,-1.9609,0.0,-2.0,-1.9873,-1.9746,-1.9619,-1.9434,-1.9131,-1.9463,-1.9893,-2.037,-2.0527,-2.0605,-2.0605,-2.0605,-2.0605,-2.0605,-2.0156,-2.0107,-2.0586,-2.0029,0.0,-1.9912,-1.9375,-1.874,-1.8008,-1.6836,0.0,0.0,-1.5332,0.0,0.0,-1.6232,-1.6631,-1.6953,-1.7383,-1.7734,-1.8008,-1.8008,-1.8008,-1.8008,-1.8008,-1.8008,-1.8008,-1.8008,-1.8008,-1.8008,-1.8008,-1.8008,-1.8008,-1.8008,-1.8008,-1.8008,-1.8008,-1.8008,-1.8008,-1.8008,-1.8008,-1.791,-1.749,-1.7383,-1.7275,-1.6804,-1.6599,-1.6473,-1.6346,-1.6317,-1.6317,-1.6317,-1.6084,-1.6007,-1.6258,0.0,0.0,0.0,-1.5498,0.0,-1.4367,-1.4075,-1.3695,-1.3125,0.0,0.0,0.0,0.0,0.0,0.0,0.0,0.0,0.0,0.0,0.0,0.0,-1.6719,-1.7383,-1.7393,-1.7812,-1.8008,-1.8008,-1.8008,-1.8008,-1.8008,-1.8008,-1.8008,-1.8008,-1.8008,-1.8008,-1.8008,-1.8008,-1.8008,-1.8008,-1.8008,-1.8008,-1.8008,-1.9824,-1.9902,-2.0049,-2.0517,-2.0195,-1.9775,-1.9355,-1.8926,-1.8617,-1.8607,-1.9023,-1.9453,-1.9873,-2.0303,-2.0605,-2.0605,-2.0605,-2.0605,-2.0605,-2.0156,-2.0107,0.0,0.0,-1.9482,-1.9902,-1.9046,-1.8403,-1.8008,0.0,0.0,-1.6085,-1.6085,-1.6085,-1.6124,-1.7005,-1.7406,-1.7435,-1.7822,-1.8008,-1.8008,-1.8008,-1.8008,-1.8008,-1.8008,-1.8008,-1.8008,-1.8008,-1.8008,-1.8008,-1.8008,-1.8008,-1.8008,-1.8008,-1.8008,-1.8008,-1.8008,-1.8008,-1.8008,-1.8008,-1.8008,-1.791,-1.749,-1.7383,-1.7275,-1.6804,-1.6387,-1.5977,-1.5518,-1.543,-1.543,-1.543,-1.542,-1.542,-1.54,0.0,0.0,0.0,0.0,0.0,-1.4775,-1.4033,-1.3516,-1.3496,0.0,0.0,0.0,0.0,0.0,0.0,0.0,0.0,-1.4094,-1.4942,0.0,-1.541,-1.6719,-1.7383,-1.7393,-1.7812,-1.8008,-1.8008,-1.8008,-1.8008,-1.8008,-1.8008,-1.8008,-1.8008,-1.8008,-1.8008,-1.8008,-1.8008,-1.8008,-1.8008,-1.8008,-1.8008,-1.8008,-2.037,-2.04,-2.0439,-2.0576,-2.0205,-1.9775,-1.9346,-1.8916,-1.85,-1.8217,-1.8539,-1.9004,-1.9443,-2.0137,-2.0605,0.0,-2.0293,-2.0244,0.0,-1.9609,-1.9365,-2.0088,-1.9307,-1.887,-1.9007,-1.8744,-1.8393,-1.8008,0.0,0.0,0.0,-1.6995,-1.7119,-1.7402,-1.7686,-1.7812,-1.7822,-1.7959,-1.8008,-1.8008,-1.8008,-1.8008,-1.8008,-1.8008,-1.8008,-1.8008,-1.8008,-1.8008,-1.8008,-1.8008,-1.8008,-1.8008,-1.8008,-1.8008,-1.8008,-1.8008,-1.8008,-1.8008,-1.8008,-1.8008,-1.7842,-1.7087,-1.6911,-1.6748,-1.5976,-1.5723,-1.5576,-1.5439,-1.541,-1.541,-1.541,-1.541,-1.541,-1.541,-1.541,0.0,0.0,0.0,-1.5107,-1.4814,-1.4551,-1.4258,0.0,-1.3909,0.0,0.0,0.0,0.0,0.0,0.0,0.0,0.0,-1.4786,0.0,-1.499,-1.6016,-1.6515,-1.6515,-1.6934,-1.7295,-1.7598,-1.7881,-1.8008,-1.8008,-1.8008,-1.8008,-1.8008,-1.8008,-1.8008,-1.8008,-1.8008,-1.8008,-1.8008,-1.8008,-1.8008,-1.8008,-2.0322,-2.0233,-2.0126,-2.0126,-1.9727,-1.9346,-1.9082,-1.8682,-1.8266,-1.8047,-1.8344,-1.8763,-1.9238,-1.9902,0.0,-2.0586,-2.0166,-2.0029,-2.0303,-1.9258,-1.8909,-1.9648,-1.8857,-1.8442,-1.8598,0.0,0.0,-1.7467,-1.6862,-1.6573,-1.6573,-1.6573,-1.6906,-1.7467,-1.7467,-1.7681,-1.8008,-1.8008,-1.8008,-1.8008,-1.8008,-1.8008,-1.8008,-1.8008,-1.8008,-1.8008,-1.8008,-1.8008,-1.8008,-1.8008,-1.8008,-1.8008,-1.8008,-1.8008,-1.8008,-1.8008,-1.8008,-1.8008,-1.8008,-1.8008,-1.7803,-1.6911,-1.6697,-1.6473,-1.5615,-1.541,-1.541,-1.541,-1.541,-1.541,-1.541,-1.541,-1.541,-1.541,-1.541,-1.541,-1.541,0.0,-1.4864,0.0,0.0,0.0,0.0,-1.425,0.0,0.0,0.0,0.0,0.0,0.0,0.0,-1.4004,-1.4912,0.0,-1.5029,-1.5743,-1.6183,-1.6318,-1.6768,-1.7207,-1.7627,-1.7725,-1.7773,-1.7783,-1.7939,-1.792,-1.7793,-1.7949,-1.8008,-1.8008,-1.8008,-1.8008,-1.8008,-1.8008,-1.8008,-1.8008,-1.9873,-1.9561,0.0,0.0,-1.8818,0.0,-1.8421,-1.8064,-1.7794,-1.7794,-1.8132,-1.8547,-1.9047,-1.9406,-1.9859,-2.0323,0.0,0.0,0.0,-1.9056,-1.8783,-1.9219,-1.8407,-1.8119,-1.8434,-1.8031,-1.7398,-1.6498,-1.5623,-1.5199,-1.5199,-1.5199,-1.5658,-1.6498,-1.6498,-1.7001,-1.7794,-1.7794,-1.7794,-1.7794,-1.7794,-1.7794,-1.7794,-1.7794,-1.7794,-1.7794,-1.7794,-1.7794,-1.7803,-1.7832,-1.7823,-1.7803,-1.7832,-1.7823,-1.7828,-1.7974,-1.8008,-1.8008,-1.8008,-1.8008,-1.7803,-1.6911,-1.6658,-1.6395,-1.5566,-1.541,-1.541,-1.541,-1.541,-1.541,-1.541,-1.541,-1.541,-1.541,-1.541,-1.54,-1.5371,0.0,0.0,0.0,0.0,0.0,0.0,-1.459,-1.4814,0.0,0.0,0.0,0.0,0.0,-1.4338,-1.4803,-1.5195,-1.541,-1.541,-1.584,-1.623,-1.6619,-1.7109,-1.7529,-1.7861,-1.7529,-1.7363,-1.7363,-1.7754,-1.7705,-1.7373,-1.7793,-1.7969,-1.7969,-1.7998,-1.8008,-1.8008,-1.8008,-1.8008,-1.8008,0.0,0.0,-1.9058,-1.835,-1.7852,-1.7288,-1.6576,-1.6111,-1.5869,-1.5869,-1.5947,-1.6258,-1.6877,-1.7023,-1.7351,-1.8,-1.8937,-1.9434,-1.9434,-1.89,-1.8646,-1.8754,-1.7868,-1.73,-1.707,-1.6272,-1.5763,-1.5544,-1.5305,-1.5199,-1.5199,-1.5199,-1.5305,-1.5544,-1.5544,-1.5658,-1.5869,-1.5869,-1.5869,-1.5869,-1.5869,-1.5869,-1.5869,-1.5869,-1.5869,-1.5869,-1.5869,-1.5869,-1.5885,-1.6089,-1.6039,-1.5885,-1.6098,-1.6031,-1.6158,-1.7588,-1.8008,-1.8008,-1.8008,-1.8008,-1.7803,-1.6911,-1.62,-1.5634,-1.5459,-1.541,-1.541,-1.541,-1.541,-1.541,-1.541,-1.541,-1.541,-1.541,-1.541,-1.5293,-1.498,-1.5029,0.0,0.0,-1.4893,-1.5,-1.5069,-1.5205,-1.5127,0.0,0.0,0.0,0.0,0.0,-1.4678,-1.4813,-1.5195,-1.541,-1.541,-1.5508,-1.5615,-1.5732,-1.6482,-1.6758,-1.6574,-1.7151,-1.7197,-1.6863,-1.696,-1.6941,-1.6892,-1.7353,-1.7529,-1.7568,-1.7881,-1.8008,-1.8008,-1.8008,-1.8008,-1.8008,-1.8244,-1.7868,-1.7406,-1.7334,-1.6759,-1.6108,-1.5596,-1.5323,-1.5199,-1.5199,-1.5199,-1.5405,-1.596,-1.6018,-1.6183,-1.6588,-1.7404,-1.7869,-1.7869,-1.737,-1.7042,-1.7042,-1.6546,-1.6191,-1.5974,-1.5446,-1.4985,-1.4522,-1.4091,-1.3875,-1.3875,-1.3875,-1.4091,-1.4522,-1.4522,-1.4772,-1.5199,-1.5199,-1.5199,-1.5199,-1.5199,-1.5199,-1.5199,-1.5199,-1.5199,-1.5223,-1.5353,-1.5303,-1.5248,-1.5503,-1.5424,-1.5232,-1.535,-1.532,-1.5411,-1.6402,-1.6724,-1.6724,-1.6724,-1.6724,-1.6533,-1.57,-1.4997,-1.446,-1.4339,-1.4302,-1.4302,-1.4302,-1.4302,-1.4302,-1.4302,-1.4599,-1.4835,-1.4835,-1.5167,-1.5332,-1.5107,-1.5107,0.0,-1.5078,-1.5107,-1.5205,-1.5391,-1.541,-1.5312,-1.5088,0.0,0.0,-1.5068,-1.5068,-1.5068,-1.5068,-1.5293,-1.541,-1.541,-1.5605,-1.5703,-1.5743,-1.6191,-1.6406,-1.6377,-1.6682,-1.6682,-1.6436,-1.6609,-1.659,-1.6465,-1.6904,-1.7207,-1.7402,-1.7637,-1.7842,-1.8008,-1.8008,-1.8008,-1.8008,-1.6722,-1.5987,-1.5411,-1.6035,-1.5508,-1.4914,-1.4772,-1.4772,-1.4772,-1.4772,-1.4772,-1.49,-1.5283,-1.536,-1.5348,-1.5404,-1.5592,-1.578,-1.6025,-1.5587,-1.5256,-1.5199,-1.5106,-1.5043,-1.4985,-1.4843,-1.4343,-1.3491,-1.2696,-1.2305,-1.2305,-1.2305,-1.2739,-1.3491,-1.3491,-1.3954,-1.4772,-1.4772,-1.4772,-1.4772,-1.4772,-1.4772,-1.4772,-1.4772,-1.4772,-1.4776,-1.5029,-1.4948,-1.4784,-1.5101,-1.4989,-1.478,-1.4836,-1.4812,-1.4772,-1.4772,-1.4772,-1.4843,-1.5128,-1.5116,-1.4884,-1.4272,-1.3704,-1.3286,-1.3044,-1.3009,-1.3009,-1.3009,-1.3009,-1.3009,-1.3009,-1.3545,-1.4037,-1.4102,-1.4738,-1.5216,-1.5206,0.0,-1.499,-1.5283,-1.5059,-1.5019,-1.5381,-1.541,-1.541,-1.541,-1.541,0.0,0.0,-1.541,-1.541,-1.541,-1.541,-1.541,-1.541,-1.5811,-1.5987,-1.5997,-1.6065,-1.623,-1.6492,-1.6201,-1.6056,-1.6016,-1.6367,-1.6318,-1.6036,-1.6445,-1.6846,-1.722,-1.7256,-1.7539,-1.791,-1.791,-1.7959,-1.8008,-1.5495,-1.5346,-1.4985,-1.4279,-1.4027,-1.3673,-1.2879,-1.2732,-1.2732,-1.2732,-1.2732,-1.2887,-1.323,-1.3265,-1.3376,-1.357,-1.3428,-1.3887,-1.5273,-1.5582,-1.5549,-1.5215,-1.4778,-1.4361,-1.3926,-1.3164,-1.2659,-1.2519,-1.2372,-1.2305,-1.2305,-1.2305,-1.2378,-1.2519,-1.2519,-1.2592,-1.2732,-1.2732,-1.2732,-1.2732,-1.2732,-1.2732,-1.2732,-1.2732,-1.2732,-1.2776,-1.2788,-1.2811,-1.2818,-1.3123,-1.3026,-1.2818,-1.3074,-1.2984,-1.2732,-1.2732,-1.2732,-1.3127,-1.4736,-1.4752,-1.4222,-1.4115,-1.3586,-1.3044,-1.3025,-1.3009,-1.3009,-1.3009,-1.3009,-1.3009,-1.3009,-1.31,-1.3301,-1.3627,-1.4085,-1.4358,-1.4324,0.0,-1.5205,-1.4922,-1.5137,-1.5342,-1.5371,-1.541,-1.541,-1.541,-1.541,-1.541,-1.541,-1.541,-1.541,-1.541,-1.541,-1.541,-1.541,-1.5478,-1.5508,-1.5518,-1.5919,-1.5938,-1.5625,-1.5958,-1.5889,-1.5518,-1.5586,-1.5576,-1.5547,-1.5986,-1.6232,-1.6339,-1.6689,-1.71,-1.748,-1.748,-1.7705,-1.8008,-1.4271,-1.3983,-1.3665,-1.3709,-1.3273,-1.2806,-1.2372,-1.2305,-1.2305,-1.2305,-1.2305,-1.2351,-1.2529,-1.2543,-1.2565,-1.2705,-1.2592,-1.2847,-1.36,-1.3799,-1.3814,-1.3637,-1.341,-1.3252,-1.3205,-1.26,-1.2378,-1.2583,-1.2378,-1.2305,-1.2305,-1.2305,-1.2305,-1.2305,-1.2305,-1.2305,-1.2305,-1.2305,-1.2305,-1.2305,-1.2305,-1.2305,-1.2305,-1.2305,-1.2305,-1.2325,-1.2485,-1.2438,-1.2345,-1.2683,-1.2589,-1.2325,-1.2465,-1.2412,-1.2305,-1.2305,-1.2305,-1.2519,-1.3375,-1.3281,-1.288,-1.2702,-1.2269,-1.1877,-1.1731,-1.1694,-1.1694,-1.1694,-1.1694,-1.1694,-1.1694,-1.2058,-1.2395,-1.259,-1.3164,0.0,0.0,-1.4513,-1.4866,-1.5089,-1.5293,-1.541,-1.541,-1.541,-1.541,-1.541,-1.541,-1.541,-1.541,-1.541,-1.541,-1.541,-1.541,-1.541,-1.541,-1.541,-1.541,-1.541,-1.5615,-1.5605,-1.542,-1.5615,-1.5596,-1.541,-1.541,-1.541,-1.543,-1.5625,-1.588,-1.6114,-1.6289,-1.6641,-1.7061,-1.7295,-1.7353,-1.7353,-1.3237,-1.2806,-1.2519,-1.3237,-1.2769,-1.2305,-1.2305,-1.2305,-1.2305,-1.2305,-1.2305,-1.2305,-1.2305,-1.2305,-1.2305,-1.2305,-1.2305,-1.2305,-1.2305,-1.2305,-1.2305,-1.2305,-1.2305,-1.2412,-1.2677,-1.2418,-1.2412,-1.2683,-1.2412,-1.2305,-1.2305,-1.2305,-1.2305,-1.2305,-1.2305,-1.2305,-1.2305,-1.2305,-1.2305,-1.2305,-1.2305,-1.2305,-1.2305,-1.2305,-1.2305,-1.2345,-1.2677,-1.2589,-1.2345,-1.2683,-1.2589,-1.2305,-1.2305,-1.2305,-1.2305,-1.2305,-1.2305,-1.2285,-1.2218,-1.2074,-1.1819,-1.1416,-1.1156,-1.0915,-1.066,-1.0593,-1.0593,-1.0593,-1.0593,-1.0593,-1.0593,-1.1108,-1.1564,-1.1606,0.0,0.0,0.0,-1.3853,-1.4213,-1.5021,-1.5108,-1.5196,-1.5381,-1.541,-1.541,-1.541,-1.541,-1.541,-1.541,-1.541,-1.541,-1.541,-1.541,-1.541,-1.541,-1.541,-1.541,-1.541,-1.541,-1.541,-1.541,-1.541,-1.541,-1.541,-1.541,-1.541,-1.541,-1.541,-1.5605,-1.5938,-1.5938,-1.6182,-1.659,-1.6953,-1.6934,-1.6746,-1.2372,-1.2342,-1.2335,-1.2372,-1.2342,-1.2305,-1.2305,-1.2305,-1.2305,-1.2305,-1.2305,-1.2305,-1.2305,-1.2305,-1.2305,-1.2305,-1.2305,-1.2305,-1.2305,-1.2305,-1.2305,-1.2305,-1.2305,-1.2311,-1.2338,-1.2311,-1.2311,-1.2338,-1.2311,-1.2305,-1.2305,-1.2305,-1.2305,-1.2305,-1.2305,-1.2305,-1.2305,-1.2305,-1.2305,-1.2305,-1.2305,-1.2305,-1.2305,-1.2305,-1.2305,-1.2345,-1.2677,-1.2589,-1.2345,-1.2683,-1.2589,-1.2305,-1.2305,-1.2305,-1.2305,-1.2305,-1.2305,-1.2245,-1.2013,-1.1926,-1.1772,-1.1169,-1.1009,-1.0915,-1.066,-1.0593,-1.0593,-1.0593,-1.0593,-1.0593,-1.0593,-1.0656,-1.0805,-1.1098,0.0,0.0,-1.2475,-1.2862,-1.3403,-1.4174,-1.4302,-1.4569,-1.5323,-1.541,-1.541,-1.541,-1.541,-1.541,-1.541,-1.541,-1.541,-1.541,-1.541,-1.541,-1.541,-1.541,-1.541,-1.541,-1.541,-1.541,-1.541,-1.541,-1.541,-1.541,-1.541,-1.541,-1.541,-1.541,-1.543,-1.5459,-1.5459,-1.5723,-1.6153,-1.6183,-1.6406,-1.6707,-1.2305,-1.2305,-1.2305,-1.2305,-1.2305,-1.2305,-1.2305,-1.2305,-1.2305,-1.2305,-1.2305,-1.2305,-1.2305,-1.2305,-1.2305,-1.2305,-1.2305,-1.2305,-1.2305,-1.2305,-1.2305,-1.2305,-1.2305,-1.2385,-1.261,-1.2398,-1.2392,-1.2616,-1.2392,-1.2305,-1.2305,-1.2305,-1.2305,-1.2305,-1.2305,-1.2305,-1.2305,-1.2305,-1.2305,-1.2305,-1.2305,-1.2305,-1.2305,-1.2305,-1.2305,-1.2318,-1.2432,-1.2398,-1.2318,-1.2432,-1.2398,-1.2305,-1.2305,-1.2305,-1.2305,-1.2305,-1.2305,-1.2198,-1.1724,-1.1597,-1.1543,-1.1316,-1.0989,-1.0727,-1.062,-1.0593,-1.0593,-1.0593,-1.0593,-1.0593,-1.0593,-1.0593,-1.0647,-1.0767,0.0,-1.1277,-1.1943,-1.215,-1.2543,-1.3364,-1.3455,-1.3575,-1.3876,-1.3906,-1.4115,-1.4628,-1.4658,-1.4864,-1.5381,-1.541,-1.541,-1.541,-1.541,-1.541,-1.541,-1.541,-1.541,-1.541,-1.541,-1.541,-1.541,-1.541,-1.541,-1.541,-1.541,-1.541,-1.541,-1.541,-1.541,-1.541,-1.541,-1.5508,-1.5693,-1.5987,-1.5996,-1.5957,-1.2305,-1.2305,-1.2305,-1.2305,-1.2305,-1.2305,-1.2305,-1.2305,-1.2305,-1.2305,-1.2305,-1.2305,-1.2305,-1.2305,-1.2305,-1.2305,-1.2305,-1.2305,-1.2305,-1.2305,-1.2305,-1.2305,-1.2305,-1.2398,-1.2643,-1.2405,-1.2405,-1.2643,-1.2405,-1.2305,-1.2305,-1.2305,-1.2305,-1.2305,-1.2305,-1.2305,-1.2305,-1.2305,-1.2305,-1.2305,-1.2305,-1.2305,-1.2305,-1.2305,-1.2305,-1.2311,-1.2412,-1.2378,-1.2318,-1.2412,-1.2378,-1.2305,-1.2305,-1.2305,-1.2305,-1.2305,-1.2305,-1.2191,-1.1703,-1.1563,-1.1496,-1.1223,-1.0922,-1.0707,-1.0613,-1.0593,-1.0593,-1.0593,-1.0593,-1.0593,-1.0593,-1.0593,-1.0593,-1.0593,-1.0593,-1.08,-1.1351,-1.1406,-1.1717,-1.2543,-1.2604,-1.2686,-1.2852,-1.2943,-1.3201,-1.3649,-1.37,-1.3936,-1.4501,-1.453,-1.4683,-1.5011,-1.5021,-1.5138,-1.541,-1.541,-1.541,-1.541,-1.541,-1.541,-1.541,-1.541,-1.541,-1.541,-1.541,-1.541,-1.541,-1.541,-1.541,-1.541,-1.541,-1.541,-1.5449,-1.5752,-1.5664,-1.5459,-1.2305,-1.2305,-1.2305,-1.2305,-1.2305,-1.2305,-1.2305,-1.2305,-1.2305,-1.2305,-1.2305,-1.2305,-1.2305,-1.2305,-1.2305,-1.2305,-1.2305,-1.2305,-1.2305,-1.2305,-1.2305,-1.2305,-1.2305,-1.2305,-1.2305,-1.2305,-1.2305,-1.2305,-1.2305,-1.2305,-1.2305,-1.2305,-1.2305,-1.2305,-1.2305,-1.2305,-1.2305,-1.2305,-1.2305,-1.2305,-1.2305,-1.2305,-1.2305,-1.2305,-1.2305,-1.2338,-1.2677,-1.2589,-1.2345,-1.2683,-1.2583,-1.2305,-1.2305,-1.2305,-1.2305,-1.2305,-1.2305,-1.2238,-1.1986,-1.1906,-1.1692,-1.0814,-1.0814,-1.0915,-1.066,-1.0593,-1.0593,-1.0593,-1.0593,-1.0593,-1.0593,-1.0593,-1.0593,-1.0593,-1.0593,-1.0593,-1.0593,-1.0593,-1.0895,-1.171,-1.1795,-1.2004,-1.2543,-1.2824,-1.2882,-1.2622,-1.2589,-1.2597,-1.2597,-1.2597,-1.3079,-1.4165,-1.4213,-1.4599,-1.5381,-1.541,-1.541,-1.541,-1.541,-1.541,-1.541,-1.541,-1.541,-1.541,-1.541,-1.541,-1.541,-1.541,-1.541,-1.541,-1.541,-1.541,-1.541,-1.541,-1.541,-1.541,-1.2305,-1.2305,-1.2305,-1.2305,-1.2305,-1.2305,-1.2305,-1.2305,-1.2305,-1.2305,-1.2305,-1.2305,-1.2305,-1.2305,-1.2305,-1.2305,-1.2305,-1.2305,-1.2305,-1.2305,-1.2305,-1.2305,-1.2305,-1.2305,-1.2305,-1.2305,-1.2305,-1.2305,-1.2305,-1.2305,-1.2305,-1.2305,-1.2305,-1.2305,-1.2305,-1.2305,-1.2305,-1.2305,-1.2305,-1.2305,-1.2305,-1.2305,-1.2305,-1.2305,-1.2305,-1.2311,-1.2405,-1.2378,-1.2318,-1.2405,-1.2378,-1.2305,-1.2305,-1.2305,-1.2305,-1.2305,-1.2305,-1.2238,-1.1986,-1.1906,-1.1745,-1.1062,-1.0929,-1.0915,-1.066,-1.0593,-1.0593,-1.0593,-1.0593,-1.0593,-1.0593,-1.0593,-1.0593,-1.0593,-1.0593,-1.0593,-1.0593,-1.0593,-1.0688,-1.0926,-1.0763,-1.0772,-1.1145,-1.0905,-1.0946,-1.1656,-1.2024,-1.243,-1.2849,-1.2701,-1.3079,-1.4165,-1.4213,-1.4599,-1.5381,-1.541,-1.541,-1.541,-1.541,-1.541,-1.541,-1.541,-1.541,-1.541,-1.541,-1.541,-1.541,-1.541,-1.541,-1.541,-1.541,-1.541,-1.541,-1.541,-1.541,-1.541,-1.1174,-1.1434,-1.1583,-1.1174,-1.1434,-1.1583,-1.1174,-1.1099,-1.1099,-1.1099,-1.1099,-1.1099,-1.1099,-1.1099,-1.1099,-1.1099,-1.1099,-1.1099,-1.1099,-1.1099,-1.1099,-1.1099,-1.1099,-1.1471,-1.2268,-1.2305,-1.2305,-1.2305,-1.2305,-1.2305,-1.2305,-1.2305,-1.2305,-1.2305,-1.2305,-1.2305,-1.2305,-1.2305,-1.2305,-1.2305,-1.2305,-1.2305,-1.2305,-1.2305,-1.2305,-1.2305,-1.2305,-1.2305,-1.2305,-1.2305,-1.2305,-1.2305,-1.2305,-1.2305,-1.2305,-1.2305,-1.2305,-1.2238,-1.1986,-1.1986,-1.1906,-1.1169,-1.0995,-1.0915,-1.066,-1.0593,-1.0593,-1.0593,-1.0593,-1.0593,-1.0593,-1.0593,-1.0593,-1.0593,-1.0593,-1.0593,-1.0593,-1.0593,-1.0593,-1.0593,-1.0432,-1.0274,-1.0251,-0.9993,-1.0025,-1.0444,-1.0895,-1.1326,-1.1675,-1.1535,-1.2019,-1.3218,-1.3265,-1.3588,-1.428,-1.428,-1.4684,-1.541,-1.5244,-1.5254,-1.5371,-1.5244,-1.5156,-1.5176,-1.5342,-1.5312,-1.5176,-1.5342,-1.541,-1.541,-1.541,-1.541,-1.541,-1.541,-1.541,-1.541,-0.9485,-1.004,-1.0378,-0.9448,-1.0045,-1.0378,-0.9448,-0.9296,-0.9296,-0.9296,-0.9296,-0.9296,-0.9296,-0.9296,-0.9296,-0.9296,-0.9296,-0.9296,-0.9296,-0.9296,-0.9296,-0.9296,-0.9296,-1.0158,-1.2003,-1.204,-1.204,-1.204,-1.204,-1.2077,-1.215,-1.215,-1.215,-1.2187,-1.2261,-1.2261,-1.2187,-1.2261,-1.2305,-1.2305,-1.2305,-1.2305,-1.2305,-1.2305,-1.2305,-1.2305,-1.2305,-1.2305,-1.2305,-1.2305,-1.2305,-1.2305,-1.2305,-1.2305,-1.2305,-1.2305,-1.2305,-1.2245,-1.202,-1.2084,-1.2064,-1.1236,-1.1009,-1.0915,-1.066,-1.0593,-1.0593,-1.0593,-1.0593,-1.0593,-1.0593,-1.0593,-1.0593,-1.0593,-1.0593,-1.0593,-1.0593,-1.0593,-1.0593,-1.0593,-1.0566,-1.0345,-0.9773,-0.9913,-0.979,-0.9251,-0.9492,-0.9666,-0.9719,-0.9726,-1.0384,-1.175,-1.1773,-1.2041,-1.2597,-1.2564,-1.3406,-1.511,-1.479,-1.4837,-1.5196,-1.4913,-1.4813,-1.4805,-1.5234,-1.5195,-1.4873,-1.5254,-1.541,-1.541,-1.541,-1.541,-1.541,-1.541,-1.541,-1.541,-0.9334,-0.9485,-0.9556,-0.9334,-0.9485,-0.9561,-0.9334,-0.9296,-0.9296,-0.9296,-0.9296,-0.9296,-0.9296,-0.9296,-0.9296,-0.9296,-0.9296,-0.9296,-0.9296,-0.9296,-0.9296,-0.9296,-0.9296,-0.9485,-0.9938,-0.9933,-0.9933,-0.9933,-0.9933,-1.0346,-1.1124,-1.1124,-1.1124,-1.1162,-1.1959,-1.1848,-1.1162,-1.1959,-1.2305,-1.2305,-1.2305,-1.2305,-1.2305,-1.2305,-1.2305,-1.2305,-1.2305,-1.2305,-1.2305,-1.2305,-1.2305,-1.2305,-1.2305,-1.2305,-1.2305,-1.2305,-1.2305,-1.2285,-1.2225,-1.2091,-1.1899,-1.1436,-1.1162,-1.0915,-1.066,-1.0593,-1.0593,-1.0593,-1.0593,-1.0593,-1.0593,-1.0593,-1.0593,-1.0593,-1.0593,-1.0593,-1.0593,-1.0593,-1.0593,-1.0593,-1.0385,-1.016,-1.0033,-0.9637,-0.9351,-0.9224,-0.9271,-0.9511,-1.0,-1.002,-1.0569,-1.1757,-1.1548,-1.18,-1.2589,-1.2334,-1.2422,-1.2809,-1.3258,-1.3506,-1.3636,-1.4436,-1.4813,-1.4805,-1.5234,-1.5361,-1.5283,-1.5371,-1.541,-1.541,-1.541,-1.541,-1.541,-1.541,-1.541,-1.541,-0.7974,-0.8237,-0.8428,-0.7936,-0.8275,-0.8428,-0.7936,-0.7859,-0.7859,-0.7859,-0.7859,-0.7859,-0.7859,-0.7859,-0.7859,-0.7859,-0.7859,-0.7859,-0.7859,-0.7859,-0.7859,-0.7859,-0.7859,-0.7859,-0.7859,-0.7859,-0.8351,-0.9296,-0.9296,-0.9561,-1.0078,-1.0078,-1.0078,-1.0115,-1.0645,-1.0571,-1.0115,-1.0645,-1.0875,-1.0875,-1.0875,-1.0875,-1.0875,-1.0875,-1.0875,-1.0875,-1.0875,-1.0875,-1.0875,-1.0875,-1.0875,-1.095,-1.1428,-1.1583,-1.1583,-1.1583,-1.1922,-1.2187,-1.1694,-1.1812,-1.1971,-1.1536,-1.1275,-1.1089,-1.0687,-1.0593,-1.0593,-1.0593,-1.0593,-1.0593,-1.0593,-1.0593,-1.0593,-1.0593,-1.0593,-1.0593,-1.0593,-1.0593,-1.0593,-1.0593,-1.0452,-1.0221,-0.9933,-0.9633,-0.9364,-0.9224,-0.9344,-0.9586,-0.9893,-0.9744,-1.0032,-1.077,-1.0621,-1.0668,-1.0973,-1.0791,-1.0659,-1.0527,-1.2066,-1.2905,-1.3114,-1.3855,-1.418,-1.4199,-1.4619,-1.466,-1.4521,-1.4689,-1.4777,-1.4796,-1.5029,-1.5117,-1.5137,-1.5342,-1.541,-1.541,-0.6451,-0.6984,-0.7288,-0.6451,-0.6984,-0.7249,-0.6416,-0.63,-0.63,-0.63,-0.63,-0.63,-0.63,-0.63,-0.63,-0.63,-0.63,-0.63,-0.63,-0.63,-0.63,-0.63,-0.63,-0.63,-0.63,-0.63,-0.7099,-0.877,-0.877,-0.8879,-0.9031,-0.9031,-0.9031,-0.9036,-0.9221,-0.9226,-0.9074,-0.9221,-0.9296,-0.9296,-0.9296,-0.9296,-0.9296,-0.9296,-0.9296,-0.9296,-0.9296,-0.9296,-0.9296,-0.9296,-0.9296,-0.9448,-1.0265,-1.0527,-1.0527,-1.0527,-1.113,-1.162,-1.0752,-1.1094,-1.1576,-1.1057,-1.0898,-1.0731,-1.0251,-1.0396,-1.0593,-1.0593,-1.0593,-1.0593,-1.0593,-1.0593,-1.0593,-1.0593,-1.0593,-1.0593,-1.0593,-1.0593,-1.0593,-1.0593,-1.0546,-1.0325,-0.9806,-0.9666,-0.9526,-0.9297,-0.9499,-0.9626,-0.9708,-0.9424,-0.9397,-0.9708,-0.9633,-0.9486,-0.9217,-0.9164,-0.9018,-0.8837,-1.0987,-1.2219,-1.2546,-1.2965,-1.3215,-1.3346,-1.376,-1.3804,-1.3617,-1.3968,-1.4104,-1.4143,-1.4531,-1.4678,-1.4727,-1.5146,-1.5254,-1.5205,-0.6338,-0.6412,-0.6451,-0.6338,-0.6412,-0.6451,-0.6338,-0.63,-0.63,-0.63,-0.63,-0.63,-0.63,-0.63,-0.63,-0.63,-0.63,-0.63,-0.63,-0.63,-0.63,-0.63,-0.63,-0.63,-0.63,-0.63,-0.6451,-0.6718,-0.6718,-0.7138,-0.8012,-0.8012,-0.8012,-0.805,-0.8917,-0.8808,-0.8046,-0.8922,-0.9296,-0.9296,-0.9296,-0.9296,-0.9296,-0.9296,-0.9296,-0.9296,-0.9296,-0.9296,-0.9296,-0.9296,-0.9296,-0.9334,-0.9448,-0.9523,-0.9523,-0.9523,-0.9599,-0.9674,-0.9561,-0.9405,-0.9218,-0.9038,-0.8793,-0.8578,-0.8381,-0.9518,-1.0593,-1.0593,-1.0593,-1.0593,-1.0593,-1.0593,-1.0593,-1.0593,-1.0593,-1.0593,-1.0593,-1.0593,-1.0593,-1.0593,-1.0334,-1.0147,-1.0037,-0.957,-0.9364,-0.9606,-0.9391,-0.9384,-0.9695,-0.9646,-0.9646,-0.9715,-0.9404,-0.9251,-0.9211,-0.8964,-0.8844,-0.8811,-0.9736,-1.019,-1.0288,-1.1295,-1.2088,-1.2655,-1.3049,-1.352,-1.4026,-1.4085,-1.4104,-1.4114,-1.4172,-1.4192,-1.425,-1.4707,-1.4629,-1.4328,-0.6282,-0.63,-0.6272,-0.6146,-0.6242,-0.6272,-0.6146,-0.6245,-0.63,-0.63,-0.63,-0.63,-0.63,-0.63,-0.63,-0.63,-0.63,-0.63,-0.63,-0.63,-0.63,-0.63,-0.63,-0.63,-0.63,-0.63,-0.63,-0.63,-0.63,-0.6528,-0.6945,-0.6945,-0.6945,-0.6984,-0.7442,-0.7365,-0.6984,-0.7442,-0.7633,-0.7633,-0.7633,-0.7633,-0.7633,-0.7633,-0.7633,-0.7633,-0.7633,-0.7633,-0.7633,-0.7633,-0.7633,-0.7706,-0.8275,-0.8466,-0.8466,-0.8466,-0.8846,-0.9158,-0.8473,-0.8678,-0.8992,-0.8588,-0.8457,-0.8357,-0.8075,-0.8608,-0.9294,-0.9786,-0.9881,-1.0015,-1.0498,-1.0593,-1.0593,-1.0593,-1.0593,-1.0593,-1.0593,-1.0593,-1.0593,-1.0593,-1.0294,-1.0053,-0.9886,-0.9639,-0.9472,-0.9411,-0.9284,-0.9271,-0.9397,-0.9279,-0.9192,-0.9192,-0.9065,-0.8971,-0.8971,-0.8871,-0.8804,-0.8804,-0.9113,-0.9439,-0.9821,-1.0703,-1.1267,-1.1567,-1.1731,-1.1983,-1.2269,-1.2269,-1.2269,-1.2296,-1.2546,-1.2771,-1.2995,-1.323,-1.3406,-1.3585]}]]